<?xml version="1.0" encoding="UTF-8" standalone="no" ?>
<gpx xmlns="http://www.topografix.com/GPX/1/1" xmlns:xsi="http://www.w3.org/2001/XMLSchema-instance" xsi:schemaLocation="http://www.topografix.com/GPX/1/1 http://www.topografix.com/GPX/1/1/gpx.xsd" version="1.1" creator="VisuGPX - https://www.visugpx.com">
  <metadata>
    <name>La Robine piste Siron dh la Calade</name>
  </metadata>
  <trk>
    <name><![CDATA[La Robine piste Siron dh la Calade_1]]></name>
    <trkseg>
      <trkpt lat="44.1688" lon="6.21843">
        <ele>700.4</ele>
        <time>2023-02-21T09:26:34Z</time>
      </trkpt>
      <trkpt lat="44.16882" lon="6.21841">
        <ele>697.6</ele>
        <time>2023-02-21T09:26:35Z</time>
      </trkpt>
      <trkpt lat="44.16885" lon="6.21839">
        <ele>693.2</ele>
        <time>2023-02-21T09:26:36Z</time>
      </trkpt>
      <trkpt lat="44.16887" lon="6.21837">
        <ele>691</ele>
        <time>2023-02-21T09:26:37Z</time>
      </trkpt>
      <trkpt lat="44.1689" lon="6.21833">
        <ele>689.6</ele>
        <time>2023-02-21T09:26:39Z</time>
      </trkpt>
      <trkpt lat="44.16909" lon="6.21813">
        <ele>690.6</ele>
        <time>2023-02-21T09:26:53Z</time>
      </trkpt>
      <trkpt lat="44.1691" lon="6.21812">
        <ele>690.8</ele>
        <time>2023-02-21T09:26:54Z</time>
      </trkpt>
      <trkpt lat="44.1692" lon="6.21804">
        <ele>692</ele>
        <time>2023-02-21T09:27:01Z</time>
      </trkpt>
      <trkpt lat="44.16922" lon="6.21801">
        <ele>692.4</ele>
        <time>2023-02-21T09:27:03Z</time>
      </trkpt>
      <trkpt lat="44.16923" lon="6.21801">
        <ele>692.6</ele>
        <time>2023-02-21T09:27:04Z</time>
      </trkpt>
      <trkpt lat="44.16924" lon="6.21801">
        <ele>692.8</ele>
        <time>2023-02-21T09:27:07Z</time>
      </trkpt>
      <trkpt lat="44.16925" lon="6.218">
        <ele>693</ele>
        <time>2023-02-21T09:27:09Z</time>
      </trkpt>
      <trkpt lat="44.16925" lon="6.21799">
        <ele>693</ele>
        <time>2023-02-21T09:27:10Z</time>
      </trkpt>
      <trkpt lat="44.16925" lon="6.21799">
        <ele>693</ele>
        <time>2023-02-21T09:27:11Z</time>
      </trkpt>
      <trkpt lat="44.16928" lon="6.21796">
        <ele>692.8</ele>
        <time>2023-02-21T09:27:18Z</time>
      </trkpt>
      <trkpt lat="44.16929" lon="6.21795">
        <ele>692.8</ele>
        <time>2023-02-21T09:27:25Z</time>
      </trkpt>
      <trkpt lat="44.16929" lon="6.21795">
        <ele>692.8</ele>
        <time>2023-02-21T09:27:26Z</time>
      </trkpt>
      <trkpt lat="44.16929" lon="6.21793">
        <ele>692.6</ele>
        <time>2023-02-21T09:27:36Z</time>
      </trkpt>
      <trkpt lat="44.16928" lon="6.21794">
        <ele>692.6</ele>
        <time>2023-02-21T09:27:46Z</time>
      </trkpt>
      <trkpt lat="44.16928" lon="6.21796">
        <ele>692.6</ele>
        <time>2023-02-21T09:27:53Z</time>
      </trkpt>
      <trkpt lat="44.1693" lon="6.21796">
        <ele>692.6</ele>
        <time>2023-02-21T09:27:56Z</time>
      </trkpt>
      <trkpt lat="44.16932" lon="6.21794">
        <ele>693</ele>
        <time>2023-02-21T09:27:59Z</time>
      </trkpt>
      <trkpt lat="44.16935" lon="6.21789">
        <ele>693.2</ele>
        <time>2023-02-21T09:28:02Z</time>
      </trkpt>
      <trkpt lat="44.16941" lon="6.21786">
        <ele>693.8</ele>
        <time>2023-02-21T09:28:06Z</time>
      </trkpt>
      <trkpt lat="44.16942" lon="6.21785">
        <ele>694</ele>
        <time>2023-02-21T09:28:07Z</time>
      </trkpt>
      <trkpt lat="44.16946" lon="6.21788">
        <ele>694.6</ele>
        <time>2023-02-21T09:28:09Z</time>
      </trkpt>
      <trkpt lat="44.16952" lon="6.21792">
        <ele>695.2</ele>
        <time>2023-02-21T09:28:13Z</time>
      </trkpt>
      <trkpt lat="44.16957" lon="6.21793">
        <ele>695.6</ele>
        <time>2023-02-21T09:28:16Z</time>
      </trkpt>
      <trkpt lat="44.16963" lon="6.21787">
        <ele>696.2</ele>
        <time>2023-02-21T09:28:20Z</time>
      </trkpt>
      <trkpt lat="44.16967" lon="6.21778">
        <ele>696.8</ele>
        <time>2023-02-21T09:28:24Z</time>
      </trkpt>
      <trkpt lat="44.1697" lon="6.21774">
        <ele>697</ele>
        <time>2023-02-21T09:28:26Z</time>
      </trkpt>
      <trkpt lat="44.16978" lon="6.21759">
        <ele>697.2</ele>
        <time>2023-02-21T09:28:32Z</time>
      </trkpt>
      <trkpt lat="44.16984" lon="6.21758">
        <ele>697.4</ele>
        <time>2023-02-21T09:28:35Z</time>
      </trkpt>
      <trkpt lat="44.16986" lon="6.21758">
        <ele>697.4</ele>
        <time>2023-02-21T09:28:36Z</time>
      </trkpt>
      <trkpt lat="44.17004" lon="6.21754">
        <ele>698.4</ele>
        <time>2023-02-21T09:28:46Z</time>
      </trkpt>
      <trkpt lat="44.1701" lon="6.21757">
        <ele>698.8</ele>
        <time>2023-02-21T09:28:52Z</time>
      </trkpt>
      <trkpt lat="44.17013" lon="6.21759">
        <ele>698.8</ele>
        <time>2023-02-21T09:28:56Z</time>
      </trkpt>
      <trkpt lat="44.17013" lon="6.21763">
        <ele>698.8</ele>
        <time>2023-02-21T09:29:06Z</time>
      </trkpt>
      <trkpt lat="44.17011" lon="6.21765">
        <ele>698.8</ele>
        <time>2023-02-21T09:29:16Z</time>
      </trkpt>
      <trkpt lat="44.17012" lon="6.21766">
        <ele>699</ele>
        <time>2023-02-21T09:29:26Z</time>
      </trkpt>
      <trkpt lat="44.1701" lon="6.21765">
        <ele>698.8</ele>
        <time>2023-02-21T09:29:30Z</time>
      </trkpt>
      <trkpt lat="44.17009" lon="6.21763">
        <ele>698.8</ele>
        <time>2023-02-21T09:29:32Z</time>
      </trkpt>
      <trkpt lat="44.17007" lon="6.21759">
        <ele>698.6</ele>
        <time>2023-02-21T09:29:34Z</time>
      </trkpt>
      <trkpt lat="44.17007" lon="6.21754">
        <ele>698.6</ele>
        <time>2023-02-21T09:29:36Z</time>
      </trkpt>
      <trkpt lat="44.17009" lon="6.21752">
        <ele>698.6</ele>
        <time>2023-02-21T09:29:37Z</time>
      </trkpt>
      <trkpt lat="44.17017" lon="6.21746">
        <ele>698.8</ele>
        <time>2023-02-21T09:29:41Z</time>
      </trkpt>
      <trkpt lat="44.17018" lon="6.21741">
        <ele>698.8</ele>
        <time>2023-02-21T09:29:43Z</time>
      </trkpt>
      <trkpt lat="44.17019" lon="6.21735">
        <ele>699</ele>
        <time>2023-02-21T09:29:45Z</time>
      </trkpt>
      <trkpt lat="44.17019" lon="6.21733">
        <ele>699.2</ele>
        <time>2023-02-21T09:29:46Z</time>
      </trkpt>
      <trkpt lat="44.17018" lon="6.21727">
        <ele>699.6</ele>
        <time>2023-02-21T09:29:48Z</time>
      </trkpt>
      <trkpt lat="44.17018" lon="6.21721">
        <ele>700</ele>
        <time>2023-02-21T09:29:50Z</time>
      </trkpt>
      <trkpt lat="44.17017" lon="6.21716">
        <ele>700.6</ele>
        <time>2023-02-21T09:29:52Z</time>
      </trkpt>
      <trkpt lat="44.17015" lon="6.21707">
        <ele>701.6</ele>
        <time>2023-02-21T09:29:56Z</time>
      </trkpt>
      <trkpt lat="44.17013" lon="6.21696">
        <ele>702.8</ele>
        <time>2023-02-21T09:30:01Z</time>
      </trkpt>
      <trkpt lat="44.1701" lon="6.21687">
        <ele>703.4</ele>
        <time>2023-02-21T09:30:06Z</time>
      </trkpt>
      <trkpt lat="44.17008" lon="6.21683">
        <ele>703.8</ele>
        <time>2023-02-21T09:30:08Z</time>
      </trkpt>
      <trkpt lat="44.17005" lon="6.21664">
        <ele>704.6</ele>
        <time>2023-02-21T09:30:16Z</time>
      </trkpt>
      <trkpt lat="44.17005" lon="6.21656">
        <ele>704.8</ele>
        <time>2023-02-21T09:30:19Z</time>
      </trkpt>
      <trkpt lat="44.17004" lon="6.21643">
        <ele>705.2</ele>
        <time>2023-02-21T09:30:24Z</time>
      </trkpt>
      <trkpt lat="44.17004" lon="6.21638">
        <ele>705.4</ele>
        <time>2023-02-21T09:30:26Z</time>
      </trkpt>
      <trkpt lat="44.17003" lon="6.21628">
        <ele>706</ele>
        <time>2023-02-21T09:30:30Z</time>
      </trkpt>
      <trkpt lat="44.17002" lon="6.2162">
        <ele>706.4</ele>
        <time>2023-02-21T09:30:36Z</time>
      </trkpt>
      <trkpt lat="44.17001" lon="6.2162">
        <ele>706.4</ele>
        <time>2023-02-21T09:30:37Z</time>
      </trkpt>
      <trkpt lat="44.16998" lon="6.21604">
        <ele>706</ele>
        <time>2023-02-21T09:31:25Z</time>
      </trkpt>
      <trkpt lat="44.16996" lon="6.21601">
        <ele>706</ele>
        <time>2023-02-21T09:31:26Z</time>
      </trkpt>
      <trkpt lat="44.16995" lon="6.21598">
        <ele>705.8</ele>
        <time>2023-02-21T09:31:27Z</time>
      </trkpt>
      <trkpt lat="44.16987" lon="6.21571">
        <ele>705.6</ele>
        <time>2023-02-21T09:31:36Z</time>
      </trkpt>
      <trkpt lat="44.16986" lon="6.21547">
        <ele>705.8</ele>
        <time>2023-02-21T09:31:43Z</time>
      </trkpt>
      <trkpt lat="44.16986" lon="6.21538">
        <ele>706.4</ele>
        <time>2023-02-21T09:31:46Z</time>
      </trkpt>
      <trkpt lat="44.16985" lon="6.21531">
        <ele>707</ele>
        <time>2023-02-21T09:31:49Z</time>
      </trkpt>
      <trkpt lat="44.16987" lon="6.21518">
        <ele>707.6</ele>
        <time>2023-02-21T09:31:54Z</time>
      </trkpt>
      <trkpt lat="44.16989" lon="6.21513">
        <ele>707.8</ele>
        <time>2023-02-21T09:31:56Z</time>
      </trkpt>
      <trkpt lat="44.1699" lon="6.2151">
        <ele>708</ele>
        <time>2023-02-21T09:31:57Z</time>
      </trkpt>
      <trkpt lat="44.16992" lon="6.21495">
        <ele>709</ele>
        <time>2023-02-21T09:32:02Z</time>
      </trkpt>
      <trkpt lat="44.1699" lon="6.21485">
        <ele>709.8</ele>
        <time>2023-02-21T09:32:06Z</time>
      </trkpt>
      <trkpt lat="44.16987" lon="6.2148">
        <ele>710.2</ele>
        <time>2023-02-21T09:32:08Z</time>
      </trkpt>
      <trkpt lat="44.16975" lon="6.21461">
        <ele>711</ele>
        <time>2023-02-21T09:32:16Z</time>
      </trkpt>
      <trkpt lat="44.16972" lon="6.21457">
        <ele>711.2</ele>
        <time>2023-02-21T09:32:18Z</time>
      </trkpt>
      <trkpt lat="44.16966" lon="6.21438">
        <ele>712.4</ele>
        <time>2023-02-21T09:32:25Z</time>
      </trkpt>
      <trkpt lat="44.16965" lon="6.21436">
        <ele>712.6</ele>
        <time>2023-02-21T09:32:26Z</time>
      </trkpt>
      <trkpt lat="44.16962" lon="6.21429">
        <ele>713.4</ele>
        <time>2023-02-21T09:32:29Z</time>
      </trkpt>
      <trkpt lat="44.16959" lon="6.21416">
        <ele>714.6</ele>
        <time>2023-02-21T09:32:34Z</time>
      </trkpt>
      <trkpt lat="44.16958" lon="6.21414">
        <ele>714.8</ele>
        <time>2023-02-21T09:32:35Z</time>
      </trkpt>
      <trkpt lat="44.16957" lon="6.21413">
        <ele>715</ele>
        <time>2023-02-21T09:32:36Z</time>
      </trkpt>
      <trkpt lat="44.16954" lon="6.2141">
        <ele>715.6</ele>
        <time>2023-02-21T09:32:38Z</time>
      </trkpt>
      <trkpt lat="44.16953" lon="6.21408">
        <ele>715.8</ele>
        <time>2023-02-21T09:32:39Z</time>
      </trkpt>
      <trkpt lat="44.16951" lon="6.21405">
        <ele>716.4</ele>
        <time>2023-02-21T09:32:41Z</time>
      </trkpt>
      <trkpt lat="44.16947" lon="6.21405">
        <ele>717</ele>
        <time>2023-02-21T09:32:43Z</time>
      </trkpt>
      <trkpt lat="44.16942" lon="6.21408">
        <ele>717.6</ele>
        <time>2023-02-21T09:32:46Z</time>
      </trkpt>
      <trkpt lat="44.1694" lon="6.21415">
        <ele>718</ele>
        <time>2023-02-21T09:32:49Z</time>
      </trkpt>
      <trkpt lat="44.16939" lon="6.2142">
        <ele>718.2</ele>
        <time>2023-02-21T09:32:51Z</time>
      </trkpt>
      <trkpt lat="44.16935" lon="6.21424">
        <ele>718.6</ele>
        <time>2023-02-21T09:32:53Z</time>
      </trkpt>
      <trkpt lat="44.16931" lon="6.21423">
        <ele>719</ele>
        <time>2023-02-21T09:32:55Z</time>
      </trkpt>
      <trkpt lat="44.16929" lon="6.21421">
        <ele>719.4</ele>
        <time>2023-02-21T09:32:56Z</time>
      </trkpt>
      <trkpt lat="44.16926" lon="6.21409">
        <ele>720.2</ele>
        <time>2023-02-21T09:33:00Z</time>
      </trkpt>
      <trkpt lat="44.16925" lon="6.21391">
        <ele>721.2</ele>
        <time>2023-02-21T09:33:06Z</time>
      </trkpt>
      <trkpt lat="44.16925" lon="6.21388">
        <ele>721.4</ele>
        <time>2023-02-21T09:33:07Z</time>
      </trkpt>
      <trkpt lat="44.1692" lon="6.21373">
        <ele>722.6</ele>
        <time>2023-02-21T09:33:13Z</time>
      </trkpt>
      <trkpt lat="44.16918" lon="6.21365">
        <ele>723.4</ele>
        <time>2023-02-21T09:33:16Z</time>
      </trkpt>
      <trkpt lat="44.16916" lon="6.21363">
        <ele>723.6</ele>
        <time>2023-02-21T09:33:17Z</time>
      </trkpt>
      <trkpt lat="44.16912" lon="6.21354">
        <ele>725</ele>
        <time>2023-02-21T09:33:21Z</time>
      </trkpt>
      <trkpt lat="44.16908" lon="6.21345">
        <ele>726.2</ele>
        <time>2023-02-21T09:33:25Z</time>
      </trkpt>
      <trkpt lat="44.16907" lon="6.21343">
        <ele>726.4</ele>
        <time>2023-02-21T09:33:26Z</time>
      </trkpt>
      <trkpt lat="44.16904" lon="6.21338">
        <ele>727.2</ele>
        <time>2023-02-21T09:33:29Z</time>
      </trkpt>
      <trkpt lat="44.16899" lon="6.21331">
        <ele>728.4</ele>
        <time>2023-02-21T09:33:33Z</time>
      </trkpt>
      <trkpt lat="44.16895" lon="6.21327">
        <ele>729.2</ele>
        <time>2023-02-21T09:33:36Z</time>
      </trkpt>
      <trkpt lat="44.16894" lon="6.21325">
        <ele>729.4</ele>
        <time>2023-02-21T09:33:37Z</time>
      </trkpt>
      <trkpt lat="44.16888" lon="6.21321">
        <ele>730.6</ele>
        <time>2023-02-21T09:33:41Z</time>
      </trkpt>
      <trkpt lat="44.16879" lon="6.21315">
        <ele>731.8</ele>
        <time>2023-02-21T09:33:46Z</time>
      </trkpt>
      <trkpt lat="44.16873" lon="6.21315">
        <ele>732.8</ele>
        <time>2023-02-21T09:33:50Z</time>
      </trkpt>
      <trkpt lat="44.16862" lon="6.21314">
        <ele>733.8</ele>
        <time>2023-02-21T09:33:56Z</time>
      </trkpt>
      <trkpt lat="44.1686" lon="6.21314">
        <ele>734</ele>
        <time>2023-02-21T09:33:57Z</time>
      </trkpt>
      <trkpt lat="44.16842" lon="6.21312">
        <ele>734.2</ele>
        <time>2023-02-21T09:34:06Z</time>
      </trkpt>
      <trkpt lat="44.16823" lon="6.21309">
        <ele>734.6</ele>
        <time>2023-02-21T09:34:16Z</time>
      </trkpt>
      <trkpt lat="44.16818" lon="6.21308">
        <ele>735</ele>
        <time>2023-02-21T09:34:19Z</time>
      </trkpt>
      <trkpt lat="44.16808" lon="6.21309">
        <ele>736</ele>
        <time>2023-02-21T09:34:26Z</time>
      </trkpt>
      <trkpt lat="44.16796" lon="6.21314">
        <ele>737.2</ele>
        <time>2023-02-21T09:34:35Z</time>
      </trkpt>
      <trkpt lat="44.16794" lon="6.21315">
        <ele>737.2</ele>
        <time>2023-02-21T09:34:36Z</time>
      </trkpt>
      <trkpt lat="44.16782" lon="6.21325">
        <ele>738</ele>
        <time>2023-02-21T09:34:46Z</time>
      </trkpt>
      <trkpt lat="44.16779" lon="6.21327">
        <ele>738.2</ele>
        <time>2023-02-21T09:34:48Z</time>
      </trkpt>
      <trkpt lat="44.16771" lon="6.21336">
        <ele>739</ele>
        <time>2023-02-21T09:34:55Z</time>
      </trkpt>
      <trkpt lat="44.16769" lon="6.21337">
        <ele>739.2</ele>
        <time>2023-02-21T09:34:56Z</time>
      </trkpt>
      <trkpt lat="44.16762" lon="6.21346">
        <ele>740.2</ele>
        <time>2023-02-21T09:35:02Z</time>
      </trkpt>
      <trkpt lat="44.16758" lon="6.21351">
        <ele>741</ele>
        <time>2023-02-21T09:35:06Z</time>
      </trkpt>
      <trkpt lat="44.16755" lon="6.21355">
        <ele>741.4</ele>
        <time>2023-02-21T09:35:09Z</time>
      </trkpt>
      <trkpt lat="44.16745" lon="6.21362">
        <ele>742.4</ele>
        <time>2023-02-21T09:35:16Z</time>
      </trkpt>
      <trkpt lat="44.16735" lon="6.21374">
        <ele>743.6</ele>
        <time>2023-02-21T09:35:25Z</time>
      </trkpt>
      <trkpt lat="44.16734" lon="6.21375">
        <ele>743.8</ele>
        <time>2023-02-21T09:35:26Z</time>
      </trkpt>
      <trkpt lat="44.16731" lon="6.21387">
        <ele>744.6</ele>
        <time>2023-02-21T09:35:32Z</time>
      </trkpt>
      <trkpt lat="44.1673" lon="6.21395">
        <ele>745.4</ele>
        <time>2023-02-21T09:35:36Z</time>
      </trkpt>
      <trkpt lat="44.16728" lon="6.21399">
        <ele>745.6</ele>
        <time>2023-02-21T09:35:38Z</time>
      </trkpt>
      <trkpt lat="44.16723" lon="6.2141">
        <ele>746.8</ele>
        <time>2023-02-21T09:35:44Z</time>
      </trkpt>
      <trkpt lat="44.1672" lon="6.21413">
        <ele>747.4</ele>
        <time>2023-02-21T09:35:46Z</time>
      </trkpt>
      <trkpt lat="44.16716" lon="6.21418">
        <ele>748</ele>
        <time>2023-02-21T09:35:49Z</time>
      </trkpt>
      <trkpt lat="44.16706" lon="6.21424">
        <ele>748.8</ele>
        <time>2023-02-21T09:35:56Z</time>
      </trkpt>
      <trkpt lat="44.16702" lon="6.21425">
        <ele>749</ele>
        <time>2023-02-21T09:35:58Z</time>
      </trkpt>
      <trkpt lat="44.1669" lon="6.21424">
        <ele>749.8</ele>
        <time>2023-02-21T09:36:06Z</time>
      </trkpt>
      <trkpt lat="44.16686" lon="6.21422">
        <ele>750</ele>
        <time>2023-02-21T09:36:08Z</time>
      </trkpt>
      <trkpt lat="44.16679" lon="6.2142">
        <ele>751.2</ele>
        <time>2023-02-21T09:36:13Z</time>
      </trkpt>
      <trkpt lat="44.16674" lon="6.21421">
        <ele>751.6</ele>
        <time>2023-02-21T09:36:16Z</time>
      </trkpt>
      <trkpt lat="44.16668" lon="6.21423">
        <ele>752.2</ele>
        <time>2023-02-21T09:36:20Z</time>
      </trkpt>
      <trkpt lat="44.16666" lon="6.21425">
        <ele>752.4</ele>
        <time>2023-02-21T09:36:22Z</time>
      </trkpt>
      <trkpt lat="44.16662" lon="6.21428">
        <ele>753.4</ele>
        <time>2023-02-21T09:36:25Z</time>
      </trkpt>
      <trkpt lat="44.16661" lon="6.21429">
        <ele>753.6</ele>
        <time>2023-02-21T09:36:26Z</time>
      </trkpt>
      <trkpt lat="44.16651" lon="6.21431">
        <ele>754.4</ele>
        <time>2023-02-21T09:36:32Z</time>
      </trkpt>
      <trkpt lat="44.16645" lon="6.21432">
        <ele>754.8</ele>
        <time>2023-02-21T09:36:36Z</time>
      </trkpt>
      <trkpt lat="44.16635" lon="6.21435">
        <ele>755</ele>
        <time>2023-02-21T09:36:42Z</time>
      </trkpt>
      <trkpt lat="44.1663" lon="6.21435">
        <ele>755.4</ele>
        <time>2023-02-21T09:36:45Z</time>
      </trkpt>
      <trkpt lat="44.16629" lon="6.21435">
        <ele>755.6</ele>
        <time>2023-02-21T09:36:46Z</time>
      </trkpt>
      <trkpt lat="44.16616" lon="6.21441">
        <ele>756.6</ele>
        <time>2023-02-21T09:36:54Z</time>
      </trkpt>
      <trkpt lat="44.16613" lon="6.21441">
        <ele>756.8</ele>
        <time>2023-02-21T09:36:56Z</time>
      </trkpt>
      <trkpt lat="44.16603" lon="6.21438">
        <ele>757.6</ele>
        <time>2023-02-21T09:37:03Z</time>
      </trkpt>
      <trkpt lat="44.16598" lon="6.21437">
        <ele>758.2</ele>
        <time>2023-02-21T09:37:06Z</time>
      </trkpt>
      <trkpt lat="44.16592" lon="6.21442">
        <ele>758.6</ele>
        <time>2023-02-21T09:37:11Z</time>
      </trkpt>
      <trkpt lat="44.16595" lon="6.21457">
        <ele>756</ele>
        <time>2023-02-21T09:37:16Z</time>
      </trkpt>
      <trkpt lat="44.16596" lon="6.21462">
        <ele>754</ele>
        <time>2023-02-21T09:37:18Z</time>
      </trkpt>
      <trkpt lat="44.16598" lon="6.21466">
        <ele>752.6</ele>
        <time>2023-02-21T09:37:20Z</time>
      </trkpt>
      <trkpt lat="44.16598" lon="6.21473">
        <ele>751</ele>
        <time>2023-02-21T09:37:23Z</time>
      </trkpt>
      <trkpt lat="44.16601" lon="6.2148">
        <ele>749.6</ele>
        <time>2023-02-21T09:37:25Z</time>
      </trkpt>
      <trkpt lat="44.16603" lon="6.21483">
        <ele>749</ele>
        <time>2023-02-21T09:37:26Z</time>
      </trkpt>
      <trkpt lat="44.16605" lon="6.21486">
        <ele>748.4</ele>
        <time>2023-02-21T09:37:27Z</time>
      </trkpt>
      <trkpt lat="44.16609" lon="6.21492">
        <ele>747.2</ele>
        <time>2023-02-21T09:37:29Z</time>
      </trkpt>
      <trkpt lat="44.16612" lon="6.21499">
        <ele>746</ele>
        <time>2023-02-21T09:37:31Z</time>
      </trkpt>
      <trkpt lat="44.16613" lon="6.21509">
        <ele>744.6</ele>
        <time>2023-02-21T09:37:33Z</time>
      </trkpt>
      <trkpt lat="44.16612" lon="6.21516">
        <ele>743.2</ele>
        <time>2023-02-21T09:37:35Z</time>
      </trkpt>
      <trkpt lat="44.1661" lon="6.21518">
        <ele>742.8</ele>
        <time>2023-02-21T09:37:36Z</time>
      </trkpt>
      <trkpt lat="44.16606" lon="6.21522">
        <ele>742</ele>
        <time>2023-02-21T09:37:38Z</time>
      </trkpt>
      <trkpt lat="44.16609" lon="6.21535">
        <ele>740.6</ele>
        <time>2023-02-21T09:37:41Z</time>
      </trkpt>
      <trkpt lat="44.16611" lon="6.2154">
        <ele>739.2</ele>
        <time>2023-02-21T09:37:43Z</time>
      </trkpt>
      <trkpt lat="44.16612" lon="6.21545">
        <ele>738</ele>
        <time>2023-02-21T09:37:46Z</time>
      </trkpt>
      <trkpt lat="44.16612" lon="6.21551">
        <ele>736.8</ele>
        <time>2023-02-21T09:37:51Z</time>
      </trkpt>
      <trkpt lat="44.1661" lon="6.21555">
        <ele>735.8</ele>
        <time>2023-02-21T09:37:54Z</time>
      </trkpt>
      <trkpt lat="44.16608" lon="6.21557">
        <ele>734.8</ele>
        <time>2023-02-21T09:37:56Z</time>
      </trkpt>
      <trkpt lat="44.16607" lon="6.21558">
        <ele>734.4</ele>
        <time>2023-02-21T09:37:57Z</time>
      </trkpt>
      <trkpt lat="44.16604" lon="6.2156">
        <ele>733</ele>
        <time>2023-02-21T09:38:01Z</time>
      </trkpt>
      <trkpt lat="44.16602" lon="6.21561">
        <ele>731.6</ele>
        <time>2023-02-21T09:38:04Z</time>
      </trkpt>
      <trkpt lat="44.16601" lon="6.21561">
        <ele>730.2</ele>
        <time>2023-02-21T09:38:06Z</time>
      </trkpt>
      <trkpt lat="44.16603" lon="6.21562">
        <ele>729.2</ele>
        <time>2023-02-21T09:38:16Z</time>
      </trkpt>
      <trkpt lat="44.16603" lon="6.21563">
        <ele>729.2</ele>
        <time>2023-02-21T09:38:18Z</time>
      </trkpt>
      <trkpt lat="44.16602" lon="6.21565">
        <ele>728.6</ele>
        <time>2023-02-21T09:38:26Z</time>
      </trkpt>
      <trkpt lat="44.16601" lon="6.21565">
        <ele>728.6</ele>
        <time>2023-02-21T09:38:36Z</time>
      </trkpt>
      <trkpt lat="44.16601" lon="6.21564">
        <ele>728.4</ele>
        <time>2023-02-21T09:38:46Z</time>
      </trkpt>
      <trkpt lat="44.166" lon="6.21565">
        <ele>728.4</ele>
        <time>2023-02-21T09:38:51Z</time>
      </trkpt>
      <trkpt lat="44.16598" lon="6.21567">
        <ele>728.2</ele>
        <time>2023-02-21T09:38:53Z</time>
      </trkpt>
      <trkpt lat="44.16594" lon="6.21565">
        <ele>727.2</ele>
        <time>2023-02-21T09:38:55Z</time>
      </trkpt>
      <trkpt lat="44.16594" lon="6.21563">
        <ele>726.8</ele>
        <time>2023-02-21T09:38:56Z</time>
      </trkpt>
      <trkpt lat="44.16587" lon="6.21553">
        <ele>726.2</ele>
        <time>2023-02-21T09:39:02Z</time>
      </trkpt>
      <trkpt lat="44.16586" lon="6.21552">
        <ele>726.2</ele>
        <time>2023-02-21T09:39:03Z</time>
      </trkpt>
      <trkpt lat="44.16585" lon="6.21551">
        <ele>726.4</ele>
        <time>2023-02-21T09:39:04Z</time>
      </trkpt>
      <trkpt lat="44.16583" lon="6.2155">
        <ele>726.4</ele>
        <time>2023-02-21T09:39:05Z</time>
      </trkpt>
      <trkpt lat="44.16583" lon="6.21549">
        <ele>726.4</ele>
        <time>2023-02-21T09:39:06Z</time>
      </trkpt>
      <trkpt lat="44.1658" lon="6.21546">
        <ele>726.6</ele>
        <time>2023-02-21T09:39:08Z</time>
      </trkpt>
      <trkpt lat="44.16579" lon="6.21545">
        <ele>726.6</ele>
        <time>2023-02-21T09:39:09Z</time>
      </trkpt>
      <trkpt lat="44.16576" lon="6.21543">
        <ele>726.6</ele>
        <time>2023-02-21T09:39:11Z</time>
      </trkpt>
      <trkpt lat="44.16568" lon="6.21537">
        <ele>726.8</ele>
        <time>2023-02-21T09:39:16Z</time>
      </trkpt>
      <trkpt lat="44.16557" lon="6.21528">
        <ele>727.2</ele>
        <time>2023-02-21T09:39:26Z</time>
      </trkpt>
      <trkpt lat="44.16549" lon="6.21518">
        <ele>727.8</ele>
        <time>2023-02-21T09:39:32Z</time>
      </trkpt>
      <trkpt lat="44.16543" lon="6.21511">
        <ele>728.4</ele>
        <time>2023-02-21T09:39:36Z</time>
      </trkpt>
      <trkpt lat="44.1654" lon="6.21505">
        <ele>728.8</ele>
        <time>2023-02-21T09:39:39Z</time>
      </trkpt>
      <trkpt lat="44.16538" lon="6.21497">
        <ele>729.8</ele>
        <time>2023-02-21T09:39:43Z</time>
      </trkpt>
      <trkpt lat="44.16538" lon="6.21494">
        <ele>730.2</ele>
        <time>2023-02-21T09:39:44Z</time>
      </trkpt>
      <trkpt lat="44.16535" lon="6.21491">
        <ele>730.6</ele>
        <time>2023-02-21T09:39:46Z</time>
      </trkpt>
      <trkpt lat="44.16533" lon="6.21487">
        <ele>731.2</ele>
        <time>2023-02-21T09:39:48Z</time>
      </trkpt>
      <trkpt lat="44.16524" lon="6.2147">
        <ele>731.8</ele>
        <time>2023-02-21T09:39:56Z</time>
      </trkpt>
      <trkpt lat="44.16522" lon="6.21463">
        <ele>732</ele>
        <time>2023-02-21T09:39:59Z</time>
      </trkpt>
      <trkpt lat="44.16521" lon="6.21461">
        <ele>732.2</ele>
        <time>2023-02-21T09:40:00Z</time>
      </trkpt>
      <trkpt lat="44.16515" lon="6.21446">
        <ele>733</ele>
        <time>2023-02-21T09:40:06Z</time>
      </trkpt>
      <trkpt lat="44.16511" lon="6.21438">
        <ele>733.2</ele>
        <time>2023-02-21T09:40:09Z</time>
      </trkpt>
      <trkpt lat="44.16504" lon="6.21421">
        <ele>734.2</ele>
        <time>2023-02-21T09:40:16Z</time>
      </trkpt>
      <trkpt lat="44.16501" lon="6.21402">
        <ele>735.2</ele>
        <time>2023-02-21T09:40:23Z</time>
      </trkpt>
      <trkpt lat="44.16501" lon="6.21395">
        <ele>736</ele>
        <time>2023-02-21T09:40:26Z</time>
      </trkpt>
      <trkpt lat="44.16499" lon="6.21391">
        <ele>736.4</ele>
        <time>2023-02-21T09:40:28Z</time>
      </trkpt>
      <trkpt lat="44.16498" lon="6.21381">
        <ele>737.4</ele>
        <time>2023-02-21T09:40:32Z</time>
      </trkpt>
      <trkpt lat="44.16496" lon="6.2137">
        <ele>738.4</ele>
        <time>2023-02-21T09:40:36Z</time>
      </trkpt>
      <trkpt lat="44.16495" lon="6.21368">
        <ele>738.6</ele>
        <time>2023-02-21T09:40:37Z</time>
      </trkpt>
      <trkpt lat="44.16491" lon="6.21358">
        <ele>739.8</ele>
        <time>2023-02-21T09:40:41Z</time>
      </trkpt>
      <trkpt lat="44.16489" lon="6.21348">
        <ele>741</ele>
        <time>2023-02-21T09:40:46Z</time>
      </trkpt>
      <trkpt lat="44.16486" lon="6.21342">
        <ele>742</ele>
        <time>2023-02-21T09:40:49Z</time>
      </trkpt>
      <trkpt lat="44.16478" lon="6.21335">
        <ele>743</ele>
        <time>2023-02-21T09:40:54Z</time>
      </trkpt>
      <trkpt lat="44.16476" lon="6.2133">
        <ele>743.6</ele>
        <time>2023-02-21T09:40:56Z</time>
      </trkpt>
      <trkpt lat="44.16474" lon="6.21325">
        <ele>744.2</ele>
        <time>2023-02-21T09:40:58Z</time>
      </trkpt>
      <trkpt lat="44.1647" lon="6.21313">
        <ele>745.4</ele>
        <time>2023-02-21T09:41:03Z</time>
      </trkpt>
      <trkpt lat="44.16469" lon="6.21306">
        <ele>745.8</ele>
        <time>2023-02-21T09:41:06Z</time>
      </trkpt>
      <trkpt lat="44.16467" lon="6.21299">
        <ele>746.6</ele>
        <time>2023-02-21T09:41:09Z</time>
      </trkpt>
      <trkpt lat="44.16463" lon="6.2129">
        <ele>747.6</ele>
        <time>2023-02-21T09:41:13Z</time>
      </trkpt>
      <trkpt lat="44.1646" lon="6.21284">
        <ele>748.6</ele>
        <time>2023-02-21T09:41:16Z</time>
      </trkpt>
      <trkpt lat="44.16459" lon="6.21282">
        <ele>748.8</ele>
        <time>2023-02-21T09:41:17Z</time>
      </trkpt>
      <trkpt lat="44.16454" lon="6.2127">
        <ele>750</ele>
        <time>2023-02-21T09:41:23Z</time>
      </trkpt>
      <trkpt lat="44.16451" lon="6.21265">
        <ele>750.8</ele>
        <time>2023-02-21T09:41:26Z</time>
      </trkpt>
      <trkpt lat="44.16448" lon="6.21262">
        <ele>751.2</ele>
        <time>2023-02-21T09:41:28Z</time>
      </trkpt>
      <trkpt lat="44.16438" lon="6.21248">
        <ele>752.2</ele>
        <time>2023-02-21T09:41:36Z</time>
      </trkpt>
      <trkpt lat="44.16432" lon="6.2124">
        <ele>753.2</ele>
        <time>2023-02-21T09:41:40Z</time>
      </trkpt>
      <trkpt lat="44.16431" lon="6.21238">
        <ele>753.6</ele>
        <time>2023-02-21T09:41:41Z</time>
      </trkpt>
      <trkpt lat="44.16428" lon="6.21227">
        <ele>754.6</ele>
        <time>2023-02-21T09:41:46Z</time>
      </trkpt>
      <trkpt lat="44.16426" lon="6.21218">
        <ele>755.6</ele>
        <time>2023-02-21T09:41:50Z</time>
      </trkpt>
      <trkpt lat="44.16422" lon="6.21209">
        <ele>756.8</ele>
        <time>2023-02-21T09:41:54Z</time>
      </trkpt>
      <trkpt lat="44.1642" lon="6.21205">
        <ele>757.2</ele>
        <time>2023-02-21T09:41:56Z</time>
      </trkpt>
      <trkpt lat="44.16419" lon="6.212">
        <ele>757.8</ele>
        <time>2023-02-21T09:41:58Z</time>
      </trkpt>
      <trkpt lat="44.16415" lon="6.21188">
        <ele>759</ele>
        <time>2023-02-21T09:42:03Z</time>
      </trkpt>
      <trkpt lat="44.16413" lon="6.21182">
        <ele>760</ele>
        <time>2023-02-21T09:42:06Z</time>
      </trkpt>
      <trkpt lat="44.16412" lon="6.21179">
        <ele>760.2</ele>
        <time>2023-02-21T09:42:07Z</time>
      </trkpt>
      <trkpt lat="44.1641" lon="6.2117">
        <ele>761.4</ele>
        <time>2023-02-21T09:42:11Z</time>
      </trkpt>
      <trkpt lat="44.16407" lon="6.21157">
        <ele>762.2</ele>
        <time>2023-02-21T09:42:16Z</time>
      </trkpt>
      <trkpt lat="44.16406" lon="6.21152">
        <ele>762.6</ele>
        <time>2023-02-21T09:42:18Z</time>
      </trkpt>
      <trkpt lat="44.16405" lon="6.21142">
        <ele>763.6</ele>
        <time>2023-02-21T09:42:22Z</time>
      </trkpt>
      <trkpt lat="44.16404" lon="6.21132">
        <ele>764.6</ele>
        <time>2023-02-21T09:42:26Z</time>
      </trkpt>
      <trkpt lat="44.16403" lon="6.2113">
        <ele>764.6</ele>
        <time>2023-02-21T09:42:27Z</time>
      </trkpt>
      <trkpt lat="44.16401" lon="6.21121">
        <ele>765.8</ele>
        <time>2023-02-21T09:42:31Z</time>
      </trkpt>
      <trkpt lat="44.16397" lon="6.21109">
        <ele>766.8</ele>
        <time>2023-02-21T09:42:36Z</time>
      </trkpt>
      <trkpt lat="44.16391" lon="6.21097">
        <ele>767.8</ele>
        <time>2023-02-21T09:42:42Z</time>
      </trkpt>
      <trkpt lat="44.16387" lon="6.21089">
        <ele>768.6</ele>
        <time>2023-02-21T09:42:46Z</time>
      </trkpt>
      <trkpt lat="44.16384" lon="6.21085">
        <ele>769</ele>
        <time>2023-02-21T09:42:48Z</time>
      </trkpt>
      <trkpt lat="44.16381" lon="6.21071">
        <ele>770</ele>
        <time>2023-02-21T09:42:54Z</time>
      </trkpt>
      <trkpt lat="44.16379" lon="6.21066">
        <ele>770.4</ele>
        <time>2023-02-21T09:42:56Z</time>
      </trkpt>
      <trkpt lat="44.16376" lon="6.21059">
        <ele>771</ele>
        <time>2023-02-21T09:42:59Z</time>
      </trkpt>
      <trkpt lat="44.16375" lon="6.21049">
        <ele>772.4</ele>
        <time>2023-02-21T09:43:03Z</time>
      </trkpt>
      <trkpt lat="44.16374" lon="6.21042">
        <ele>773.2</ele>
        <time>2023-02-21T09:43:06Z</time>
      </trkpt>
      <trkpt lat="44.16375" lon="6.21039">
        <ele>773.6</ele>
        <time>2023-02-21T09:43:07Z</time>
      </trkpt>
      <trkpt lat="44.16377" lon="6.21028">
        <ele>774.8</ele>
        <time>2023-02-21T09:43:12Z</time>
      </trkpt>
      <trkpt lat="44.16379" lon="6.21019">
        <ele>775.6</ele>
        <time>2023-02-21T09:43:16Z</time>
      </trkpt>
      <trkpt lat="44.16379" lon="6.21016">
        <ele>776</ele>
        <time>2023-02-21T09:43:17Z</time>
      </trkpt>
      <trkpt lat="44.1638" lon="6.21006">
        <ele>777</ele>
        <time>2023-02-21T09:43:21Z</time>
      </trkpt>
      <trkpt lat="44.16383" lon="6.20994">
        <ele>778.2</ele>
        <time>2023-02-21T09:43:26Z</time>
      </trkpt>
      <trkpt lat="44.16383" lon="6.20981">
        <ele>779.4</ele>
        <time>2023-02-21T09:43:31Z</time>
      </trkpt>
      <trkpt lat="44.16384" lon="6.20968">
        <ele>780.4</ele>
        <time>2023-02-21T09:43:36Z</time>
      </trkpt>
      <trkpt lat="44.16383" lon="6.20963">
        <ele>780.4</ele>
        <time>2023-02-21T09:43:38Z</time>
      </trkpt>
      <trkpt lat="44.16376" lon="6.20948">
        <ele>781.6</ele>
        <time>2023-02-21T09:43:44Z</time>
      </trkpt>
      <trkpt lat="44.16374" lon="6.20943">
        <ele>782</ele>
        <time>2023-02-21T09:43:46Z</time>
      </trkpt>
      <trkpt lat="44.16369" lon="6.20925">
        <ele>782.6</ele>
        <time>2023-02-21T09:43:53Z</time>
      </trkpt>
      <trkpt lat="44.16368" lon="6.20917">
        <ele>783</ele>
        <time>2023-02-21T09:43:56Z</time>
      </trkpt>
      <trkpt lat="44.16367" lon="6.20908">
        <ele>783.6</ele>
        <time>2023-02-21T09:43:59Z</time>
      </trkpt>
      <trkpt lat="44.16364" lon="6.20889">
        <ele>784.2</ele>
        <time>2023-02-21T09:44:06Z</time>
      </trkpt>
      <trkpt lat="44.16363" lon="6.20883">
        <ele>784.6</ele>
        <time>2023-02-21T09:44:08Z</time>
      </trkpt>
      <trkpt lat="44.16358" lon="6.20872">
        <ele>785.8</ele>
        <time>2023-02-21T09:44:13Z</time>
      </trkpt>
      <trkpt lat="44.16355" lon="6.20866">
        <ele>786.6</ele>
        <time>2023-02-21T09:44:16Z</time>
      </trkpt>
      <trkpt lat="44.16352" lon="6.20858">
        <ele>787</ele>
        <time>2023-02-21T09:44:19Z</time>
      </trkpt>
      <trkpt lat="44.16346" lon="6.20844">
        <ele>788</ele>
        <time>2023-02-21T09:44:25Z</time>
      </trkpt>
      <trkpt lat="44.16345" lon="6.20842">
        <ele>788.2</ele>
        <time>2023-02-21T09:44:26Z</time>
      </trkpt>
      <trkpt lat="44.16341" lon="6.20835">
        <ele>789</ele>
        <time>2023-02-21T09:44:30Z</time>
      </trkpt>
      <trkpt lat="44.16335" lon="6.20822">
        <ele>790.2</ele>
        <time>2023-02-21T09:44:35Z</time>
      </trkpt>
      <trkpt lat="44.16334" lon="6.2082">
        <ele>790.2</ele>
        <time>2023-02-21T09:44:36Z</time>
      </trkpt>
      <trkpt lat="44.16329" lon="6.20808">
        <ele>791.2</ele>
        <time>2023-02-21T09:44:41Z</time>
      </trkpt>
      <trkpt lat="44.16324" lon="6.20794">
        <ele>792.2</ele>
        <time>2023-02-21T09:44:46Z</time>
      </trkpt>
      <trkpt lat="44.16323" lon="6.20792">
        <ele>792.4</ele>
        <time>2023-02-21T09:44:47Z</time>
      </trkpt>
      <trkpt lat="44.16317" lon="6.20766">
        <ele>793.4</ele>
        <time>2023-02-21T09:44:56Z</time>
      </trkpt>
      <trkpt lat="44.16311" lon="6.20749">
        <ele>794.6</ele>
        <time>2023-02-21T09:45:02Z</time>
      </trkpt>
      <trkpt lat="44.16307" lon="6.20737">
        <ele>795.4</ele>
        <time>2023-02-21T09:45:06Z</time>
      </trkpt>
      <trkpt lat="44.16307" lon="6.20735">
        <ele>795.8</ele>
        <time>2023-02-21T09:45:07Z</time>
      </trkpt>
      <trkpt lat="44.16304" lon="6.20728">
        <ele>796.8</ele>
        <time>2023-02-21T09:45:10Z</time>
      </trkpt>
      <trkpt lat="44.163" lon="6.20714">
        <ele>797.8</ele>
        <time>2023-02-21T09:45:16Z</time>
      </trkpt>
      <trkpt lat="44.16298" lon="6.20699">
        <ele>798.8</ele>
        <time>2023-02-21T09:45:21Z</time>
      </trkpt>
      <trkpt lat="44.16295" lon="6.20689">
        <ele>800</ele>
        <time>2023-02-21T09:45:25Z</time>
      </trkpt>
      <trkpt lat="44.16294" lon="6.20686">
        <ele>800.2</ele>
        <time>2023-02-21T09:45:26Z</time>
      </trkpt>
      <trkpt lat="44.16293" lon="6.20678">
        <ele>801</ele>
        <time>2023-02-21T09:45:29Z</time>
      </trkpt>
      <trkpt lat="44.16282" lon="6.2067">
        <ele>802</ele>
        <time>2023-02-21T09:45:35Z</time>
      </trkpt>
      <trkpt lat="44.1628" lon="6.20669">
        <ele>802.2</ele>
        <time>2023-02-21T09:45:36Z</time>
      </trkpt>
      <trkpt lat="44.16272" lon="6.2067">
        <ele>803.2</ele>
        <time>2023-02-21T09:45:40Z</time>
      </trkpt>
      <trkpt lat="44.1627" lon="6.20671">
        <ele>803.4</ele>
        <time>2023-02-21T09:45:41Z</time>
      </trkpt>
      <trkpt lat="44.16262" lon="6.20672">
        <ele>804.6</ele>
        <time>2023-02-21T09:45:45Z</time>
      </trkpt>
      <trkpt lat="44.1626" lon="6.20671">
        <ele>804.8</ele>
        <time>2023-02-21T09:45:46Z</time>
      </trkpt>
      <trkpt lat="44.16254" lon="6.20667">
        <ele>805.6</ele>
        <time>2023-02-21T09:45:49Z</time>
      </trkpt>
      <trkpt lat="44.16246" lon="6.2066">
        <ele>806.8</ele>
        <time>2023-02-21T09:45:54Z</time>
      </trkpt>
      <trkpt lat="44.16243" lon="6.20657">
        <ele>807.4</ele>
        <time>2023-02-21T09:45:56Z</time>
      </trkpt>
      <trkpt lat="44.16236" lon="6.20655">
        <ele>808</ele>
        <time>2023-02-21T09:45:59Z</time>
      </trkpt>
      <trkpt lat="44.1623" lon="6.20648">
        <ele>809</ele>
        <time>2023-02-21T09:46:03Z</time>
      </trkpt>
      <trkpt lat="44.16227" lon="6.20641">
        <ele>810</ele>
        <time>2023-02-21T09:46:06Z</time>
      </trkpt>
      <trkpt lat="44.16227" lon="6.20638">
        <ele>810.2</ele>
        <time>2023-02-21T09:46:07Z</time>
      </trkpt>
      <trkpt lat="44.1623" lon="6.20628">
        <ele>811.6</ele>
        <time>2023-02-21T09:46:11Z</time>
      </trkpt>
      <trkpt lat="44.16236" lon="6.20618">
        <ele>812.6</ele>
        <time>2023-02-21T09:46:16Z</time>
      </trkpt>
      <trkpt lat="44.16239" lon="6.20604">
        <ele>813.8</ele>
        <time>2023-02-21T09:46:22Z</time>
      </trkpt>
      <trkpt lat="44.16238" lon="6.20592">
        <ele>814.8</ele>
        <time>2023-02-21T09:46:26Z</time>
      </trkpt>
      <trkpt lat="44.16235" lon="6.20574">
        <ele>816</ele>
        <time>2023-02-21T09:46:31Z</time>
      </trkpt>
      <trkpt lat="44.16227" lon="6.20558">
        <ele>816.4</ele>
        <time>2023-02-21T09:46:36Z</time>
      </trkpt>
      <trkpt lat="44.16203" lon="6.20537">
        <ele>816.2</ele>
        <time>2023-02-21T09:46:46Z</time>
      </trkpt>
      <trkpt lat="44.16187" lon="6.20547">
        <ele>817.2</ele>
        <time>2023-02-21T09:46:55Z</time>
      </trkpt>
      <trkpt lat="44.16185" lon="6.20547">
        <ele>817.4</ele>
        <time>2023-02-21T09:46:56Z</time>
      </trkpt>
      <trkpt lat="44.16176" lon="6.20547">
        <ele>818.4</ele>
        <time>2023-02-21T09:47:00Z</time>
      </trkpt>
      <trkpt lat="44.16164" lon="6.20541">
        <ele>819.6</ele>
        <time>2023-02-21T09:47:06Z</time>
      </trkpt>
      <trkpt lat="44.16147" lon="6.20539">
        <ele>820.4</ele>
        <time>2023-02-21T09:47:14Z</time>
      </trkpt>
      <trkpt lat="44.16145" lon="6.20538">
        <ele>820.6</ele>
        <time>2023-02-21T09:47:15Z</time>
      </trkpt>
      <trkpt lat="44.16143" lon="6.20539">
        <ele>820.8</ele>
        <time>2023-02-21T09:47:16Z</time>
      </trkpt>
      <trkpt lat="44.16133" lon="6.20538">
        <ele>821.8</ele>
        <time>2023-02-21T09:47:21Z</time>
      </trkpt>
      <trkpt lat="44.16124" lon="6.20534">
        <ele>823</ele>
        <time>2023-02-21T09:47:26Z</time>
      </trkpt>
      <trkpt lat="44.16116" lon="6.20531">
        <ele>824</ele>
        <time>2023-02-21T09:47:31Z</time>
      </trkpt>
      <trkpt lat="44.16108" lon="6.20528">
        <ele>825.2</ele>
        <time>2023-02-21T09:47:36Z</time>
      </trkpt>
      <trkpt lat="44.16097" lon="6.20529">
        <ele>826.4</ele>
        <time>2023-02-21T09:47:43Z</time>
      </trkpt>
      <trkpt lat="44.16093" lon="6.20534">
        <ele>827.2</ele>
        <time>2023-02-21T09:47:46Z</time>
      </trkpt>
      <trkpt lat="44.16091" lon="6.20535">
        <ele>827.6</ele>
        <time>2023-02-21T09:47:47Z</time>
      </trkpt>
      <trkpt lat="44.16086" lon="6.20541">
        <ele>828.6</ele>
        <time>2023-02-21T09:47:51Z</time>
      </trkpt>
      <trkpt lat="44.16078" lon="6.2055">
        <ele>829.6</ele>
        <time>2023-02-21T09:47:56Z</time>
      </trkpt>
      <trkpt lat="44.16077" lon="6.20551">
        <ele>829.8</ele>
        <time>2023-02-21T09:47:57Z</time>
      </trkpt>
      <trkpt lat="44.16071" lon="6.20554">
        <ele>831</ele>
        <time>2023-02-21T09:48:01Z</time>
      </trkpt>
      <trkpt lat="44.16063" lon="6.20554">
        <ele>832.4</ele>
        <time>2023-02-21T09:48:05Z</time>
      </trkpt>
      <trkpt lat="44.16061" lon="6.20553">
        <ele>832.8</ele>
        <time>2023-02-21T09:48:06Z</time>
      </trkpt>
      <trkpt lat="44.16058" lon="6.20551">
        <ele>833.6</ele>
        <time>2023-02-21T09:48:08Z</time>
      </trkpt>
      <trkpt lat="44.16049" lon="6.20546">
        <ele>834.6</ele>
        <time>2023-02-21T09:48:13Z</time>
      </trkpt>
      <trkpt lat="44.16045" lon="6.20543">
        <ele>835.2</ele>
        <time>2023-02-21T09:48:16Z</time>
      </trkpt>
      <trkpt lat="44.16042" lon="6.20541">
        <ele>835.8</ele>
        <time>2023-02-21T09:48:18Z</time>
      </trkpt>
      <trkpt lat="44.16035" lon="6.20539">
        <ele>837</ele>
        <time>2023-02-21T09:48:22Z</time>
      </trkpt>
      <trkpt lat="44.16029" lon="6.20535">
        <ele>838</ele>
        <time>2023-02-21T09:48:26Z</time>
      </trkpt>
      <trkpt lat="44.16027" lon="6.20533">
        <ele>838.2</ele>
        <time>2023-02-21T09:48:27Z</time>
      </trkpt>
      <trkpt lat="44.16018" lon="6.20525">
        <ele>839.4</ele>
        <time>2023-02-21T09:48:33Z</time>
      </trkpt>
      <trkpt lat="44.16015" lon="6.20522">
        <ele>840.2</ele>
        <time>2023-02-21T09:48:36Z</time>
      </trkpt>
      <trkpt lat="44.16014" lon="6.2052">
        <ele>840.4</ele>
        <time>2023-02-21T09:48:37Z</time>
      </trkpt>
      <trkpt lat="44.16008" lon="6.20512">
        <ele>841.4</ele>
        <time>2023-02-21T09:48:42Z</time>
      </trkpt>
      <trkpt lat="44.16003" lon="6.20508">
        <ele>842.4</ele>
        <time>2023-02-21T09:48:46Z</time>
      </trkpt>
      <trkpt lat="44.16002" lon="6.20507">
        <ele>842.6</ele>
        <time>2023-02-21T09:48:47Z</time>
      </trkpt>
      <trkpt lat="44.15993" lon="6.20502">
        <ele>843.6</ele>
        <time>2023-02-21T09:48:53Z</time>
      </trkpt>
      <trkpt lat="44.15989" lon="6.20498">
        <ele>844</ele>
        <time>2023-02-21T09:48:56Z</time>
      </trkpt>
      <trkpt lat="44.15985" lon="6.20495">
        <ele>844.6</ele>
        <time>2023-02-21T09:48:59Z</time>
      </trkpt>
      <trkpt lat="44.15974" lon="6.20484">
        <ele>845.4</ele>
        <time>2023-02-21T09:49:06Z</time>
      </trkpt>
      <trkpt lat="44.15968" lon="6.20479">
        <ele>845.8</ele>
        <time>2023-02-21T09:49:10Z</time>
      </trkpt>
      <trkpt lat="44.15959" lon="6.20469">
        <ele>846</ele>
        <time>2023-02-21T09:49:16Z</time>
      </trkpt>
      <trkpt lat="44.15948" lon="6.2043">
        <ele>845.6</ele>
        <time>2023-02-21T09:49:26Z</time>
      </trkpt>
      <trkpt lat="44.15944" lon="6.20411">
        <ele>845.4</ele>
        <time>2023-02-21T09:49:30Z</time>
      </trkpt>
      <trkpt lat="44.15944" lon="6.20397">
        <ele>845</ele>
        <time>2023-02-21T09:49:32Z</time>
      </trkpt>
      <trkpt lat="44.15939" lon="6.20384">
        <ele>844.6</ele>
        <time>2023-02-21T09:49:34Z</time>
      </trkpt>
      <trkpt lat="44.1593" lon="6.20373">
        <ele>842.6</ele>
        <time>2023-02-21T09:49:36Z</time>
      </trkpt>
      <trkpt lat="44.15924" lon="6.20368">
        <ele>841.4</ele>
        <time>2023-02-21T09:49:37Z</time>
      </trkpt>
      <trkpt lat="44.15913" lon="6.20358">
        <ele>840.2</ele>
        <time>2023-02-21T09:49:39Z</time>
      </trkpt>
      <trkpt lat="44.15907" lon="6.20352">
        <ele>839.6</ele>
        <time>2023-02-21T09:49:40Z</time>
      </trkpt>
      <trkpt lat="44.15903" lon="6.20344">
        <ele>838.8</ele>
        <time>2023-02-21T09:49:41Z</time>
      </trkpt>
      <trkpt lat="44.15899" lon="6.20335">
        <ele>838.2</ele>
        <time>2023-02-21T09:49:42Z</time>
      </trkpt>
      <trkpt lat="44.15896" lon="6.20325">
        <ele>837.6</ele>
        <time>2023-02-21T09:49:43Z</time>
      </trkpt>
      <trkpt lat="44.15894" lon="6.20315">
        <ele>837.2</ele>
        <time>2023-02-21T09:49:44Z</time>
      </trkpt>
      <trkpt lat="44.15884" lon="6.20302">
        <ele>836.2</ele>
        <time>2023-02-21T09:49:46Z</time>
      </trkpt>
      <trkpt lat="44.15874" lon="6.203">
        <ele>835</ele>
        <time>2023-02-21T09:49:48Z</time>
      </trkpt>
      <trkpt lat="44.15869" lon="6.20298">
        <ele>834.6</ele>
        <time>2023-02-21T09:49:49Z</time>
      </trkpt>
      <trkpt lat="44.15865" lon="6.20293">
        <ele>834</ele>
        <time>2023-02-21T09:49:50Z</time>
      </trkpt>
      <trkpt lat="44.15862" lon="6.20288">
        <ele>833.6</ele>
        <time>2023-02-21T09:49:51Z</time>
      </trkpt>
      <trkpt lat="44.15856" lon="6.20277">
        <ele>832.8</ele>
        <time>2023-02-21T09:49:53Z</time>
      </trkpt>
      <trkpt lat="44.15844" lon="6.20264">
        <ele>832.4</ele>
        <time>2023-02-21T09:49:56Z</time>
      </trkpt>
      <trkpt lat="44.1584" lon="6.20262">
        <ele>832.2</ele>
        <time>2023-02-21T09:49:57Z</time>
      </trkpt>
      <trkpt lat="44.15819" lon="6.20262">
        <ele>833</ele>
        <time>2023-02-21T09:50:03Z</time>
      </trkpt>
      <trkpt lat="44.15816" lon="6.20258">
        <ele>834</ele>
        <time>2023-02-21T09:50:05Z</time>
      </trkpt>
      <trkpt lat="44.15813" lon="6.20256">
        <ele>834.2</ele>
        <time>2023-02-21T09:50:06Z</time>
      </trkpt>
      <trkpt lat="44.15807" lon="6.20251">
        <ele>835</ele>
        <time>2023-02-21T09:50:09Z</time>
      </trkpt>
      <trkpt lat="44.15804" lon="6.20249">
        <ele>835.2</ele>
        <time>2023-02-21T09:50:10Z</time>
      </trkpt>
      <trkpt lat="44.15793" lon="6.20241">
        <ele>836.2</ele>
        <time>2023-02-21T09:50:15Z</time>
      </trkpt>
      <trkpt lat="44.15791" lon="6.20239">
        <ele>836.2</ele>
        <time>2023-02-21T09:50:16Z</time>
      </trkpt>
      <trkpt lat="44.15779" lon="6.20229">
        <ele>837.2</ele>
        <time>2023-02-21T09:50:22Z</time>
      </trkpt>
      <trkpt lat="44.15772" lon="6.20223">
        <ele>837.8</ele>
        <time>2023-02-21T09:50:26Z</time>
      </trkpt>
      <trkpt lat="44.15767" lon="6.20219">
        <ele>838.4</ele>
        <time>2023-02-21T09:50:29Z</time>
      </trkpt>
      <trkpt lat="44.15758" lon="6.20218">
        <ele>839.6</ele>
        <time>2023-02-21T09:50:35Z</time>
      </trkpt>
      <trkpt lat="44.15756" lon="6.20217">
        <ele>839.6</ele>
        <time>2023-02-21T09:50:36Z</time>
      </trkpt>
      <trkpt lat="44.15743" lon="6.20212">
        <ele>840.6</ele>
        <time>2023-02-21T09:50:43Z</time>
      </trkpt>
      <trkpt lat="44.15739" lon="6.20209">
        <ele>841.2</ele>
        <time>2023-02-21T09:50:46Z</time>
      </trkpt>
      <trkpt lat="44.15733" lon="6.20203">
        <ele>841.6</ele>
        <time>2023-02-21T09:50:50Z</time>
      </trkpt>
      <trkpt lat="44.15727" lon="6.20197">
        <ele>842</ele>
        <time>2023-02-21T09:50:54Z</time>
      </trkpt>
      <trkpt lat="44.15724" lon="6.20193">
        <ele>842.2</ele>
        <time>2023-02-21T09:50:56Z</time>
      </trkpt>
      <trkpt lat="44.15716" lon="6.20183">
        <ele>842.8</ele>
        <time>2023-02-21T09:51:01Z</time>
      </trkpt>
      <trkpt lat="44.15706" lon="6.20175">
        <ele>843.2</ele>
        <time>2023-02-21T09:51:06Z</time>
      </trkpt>
      <trkpt lat="44.157" lon="6.20171">
        <ele>843.8</ele>
        <time>2023-02-21T09:51:09Z</time>
      </trkpt>
      <trkpt lat="44.15685" lon="6.20165">
        <ele>844.6</ele>
        <time>2023-02-21T09:51:16Z</time>
      </trkpt>
      <trkpt lat="44.15682" lon="6.20163">
        <ele>844.8</ele>
        <time>2023-02-21T09:51:18Z</time>
      </trkpt>
      <trkpt lat="44.15672" lon="6.20155">
        <ele>846</ele>
        <time>2023-02-21T09:51:25Z</time>
      </trkpt>
      <trkpt lat="44.15671" lon="6.20153">
        <ele>846</ele>
        <time>2023-02-21T09:51:26Z</time>
      </trkpt>
      <trkpt lat="44.15662" lon="6.20139">
        <ele>847</ele>
        <time>2023-02-21T09:51:33Z</time>
      </trkpt>
      <trkpt lat="44.15661" lon="6.20133">
        <ele>847.8</ele>
        <time>2023-02-21T09:51:36Z</time>
      </trkpt>
      <trkpt lat="44.1566" lon="6.20131">
        <ele>848</ele>
        <time>2023-02-21T09:51:37Z</time>
      </trkpt>
      <trkpt lat="44.15659" lon="6.2013">
        <ele>848.2</ele>
        <time>2023-02-21T09:51:38Z</time>
      </trkpt>
      <trkpt lat="44.15657" lon="6.20129">
        <ele>848.2</ele>
        <time>2023-02-21T09:51:39Z</time>
      </trkpt>
      <trkpt lat="44.15655" lon="6.20128">
        <ele>848.2</ele>
        <time>2023-02-21T09:51:40Z</time>
      </trkpt>
      <trkpt lat="44.15653" lon="6.20128">
        <ele>848.2</ele>
        <time>2023-02-21T09:51:41Z</time>
      </trkpt>
      <trkpt lat="44.15652" lon="6.20127">
        <ele>848.4</ele>
        <time>2023-02-21T09:51:42Z</time>
      </trkpt>
      <trkpt lat="44.1565" lon="6.20127">
        <ele>848.4</ele>
        <time>2023-02-21T09:51:43Z</time>
      </trkpt>
      <trkpt lat="44.15649" lon="6.20127">
        <ele>848.4</ele>
        <time>2023-02-21T09:51:44Z</time>
      </trkpt>
      <trkpt lat="44.15647" lon="6.20126">
        <ele>848.6</ele>
        <time>2023-02-21T09:51:45Z</time>
      </trkpt>
      <trkpt lat="44.15646" lon="6.20126">
        <ele>848.6</ele>
        <time>2023-02-21T09:51:46Z</time>
      </trkpt>
      <trkpt lat="44.15637" lon="6.20129">
        <ele>849.2</ele>
        <time>2023-02-21T09:51:51Z</time>
      </trkpt>
      <trkpt lat="44.15629" lon="6.20131">
        <ele>850</ele>
        <time>2023-02-21T09:51:56Z</time>
      </trkpt>
      <trkpt lat="44.15624" lon="6.20134">
        <ele>850.4</ele>
        <time>2023-02-21T09:51:59Z</time>
      </trkpt>
      <trkpt lat="44.15614" lon="6.20142">
        <ele>851.2</ele>
        <time>2023-02-21T09:52:06Z</time>
      </trkpt>
      <trkpt lat="44.1561" lon="6.20145">
        <ele>851.4</ele>
        <time>2023-02-21T09:52:08Z</time>
      </trkpt>
      <trkpt lat="44.15602" lon="6.20152">
        <ele>852.4</ele>
        <time>2023-02-21T09:52:14Z</time>
      </trkpt>
      <trkpt lat="44.15599" lon="6.20153">
        <ele>852.8</ele>
        <time>2023-02-21T09:52:16Z</time>
      </trkpt>
      <trkpt lat="44.15594" lon="6.20155">
        <ele>853.6</ele>
        <time>2023-02-21T09:52:19Z</time>
      </trkpt>
      <trkpt lat="44.15593" lon="6.20156">
        <ele>853.6</ele>
        <time>2023-02-21T09:52:20Z</time>
      </trkpt>
      <trkpt lat="44.15585" lon="6.20158">
        <ele>854.6</ele>
        <time>2023-02-21T09:52:24Z</time>
      </trkpt>
      <trkpt lat="44.15582" lon="6.2016">
        <ele>855</ele>
        <time>2023-02-21T09:52:26Z</time>
      </trkpt>
      <trkpt lat="44.15576" lon="6.2016">
        <ele>855.8</ele>
        <time>2023-02-21T09:52:29Z</time>
      </trkpt>
      <trkpt lat="44.15573" lon="6.20159">
        <ele>856.2</ele>
        <time>2023-02-21T09:52:31Z</time>
      </trkpt>
      <trkpt lat="44.15569" lon="6.20155">
        <ele>856.8</ele>
        <time>2023-02-21T09:52:34Z</time>
      </trkpt>
      <trkpt lat="44.15567" lon="6.20153">
        <ele>857</ele>
        <time>2023-02-21T09:52:35Z</time>
      </trkpt>
      <trkpt lat="44.15566" lon="6.20151">
        <ele>857.2</ele>
        <time>2023-02-21T09:52:36Z</time>
      </trkpt>
      <trkpt lat="44.15565" lon="6.20149">
        <ele>857.4</ele>
        <time>2023-02-21T09:52:37Z</time>
      </trkpt>
      <trkpt lat="44.15564" lon="6.20147">
        <ele>857.6</ele>
        <time>2023-02-21T09:52:38Z</time>
      </trkpt>
      <trkpt lat="44.15562" lon="6.20145">
        <ele>857.8</ele>
        <time>2023-02-21T09:52:39Z</time>
      </trkpt>
      <trkpt lat="44.15561" lon="6.20142">
        <ele>858.2</ele>
        <time>2023-02-21T09:52:40Z</time>
      </trkpt>
      <trkpt lat="44.15555" lon="6.20138">
        <ele>858.8</ele>
        <time>2023-02-21T09:52:43Z</time>
      </trkpt>
      <trkpt lat="44.15549" lon="6.20137">
        <ele>859.2</ele>
        <time>2023-02-21T09:52:46Z</time>
      </trkpt>
      <trkpt lat="44.15541" lon="6.2015">
        <ele>860.2</ele>
        <time>2023-02-21T09:52:55Z</time>
      </trkpt>
      <trkpt lat="44.1554" lon="6.20151">
        <ele>860.4</ele>
        <time>2023-02-21T09:52:56Z</time>
      </trkpt>
      <trkpt lat="44.15533" lon="6.20156">
        <ele>861.6</ele>
        <time>2023-02-21T09:53:01Z</time>
      </trkpt>
      <trkpt lat="44.15527" lon="6.20163">
        <ele>862.2</ele>
        <time>2023-02-21T09:53:05Z</time>
      </trkpt>
      <trkpt lat="44.15525" lon="6.20164">
        <ele>862.4</ele>
        <time>2023-02-21T09:53:06Z</time>
      </trkpt>
      <trkpt lat="44.15524" lon="6.20166">
        <ele>862.6</ele>
        <time>2023-02-21T09:53:07Z</time>
      </trkpt>
      <trkpt lat="44.15517" lon="6.20171">
        <ele>863.6</ele>
        <time>2023-02-21T09:53:11Z</time>
      </trkpt>
      <trkpt lat="44.15515" lon="6.20172">
        <ele>863.8</ele>
        <time>2023-02-21T09:53:12Z</time>
      </trkpt>
      <trkpt lat="44.15513" lon="6.20173">
        <ele>864.2</ele>
        <time>2023-02-21T09:53:13Z</time>
      </trkpt>
      <trkpt lat="44.15512" lon="6.20175">
        <ele>864.4</ele>
        <time>2023-02-21T09:53:14Z</time>
      </trkpt>
      <trkpt lat="44.15508" lon="6.20178">
        <ele>865</ele>
        <time>2023-02-21T09:53:16Z</time>
      </trkpt>
      <trkpt lat="44.15503" lon="6.20184">
        <ele>865.8</ele>
        <time>2023-02-21T09:53:20Z</time>
      </trkpt>
      <trkpt lat="44.15501" lon="6.20186">
        <ele>866</ele>
        <time>2023-02-21T09:53:21Z</time>
      </trkpt>
      <trkpt lat="44.15495" lon="6.20189">
        <ele>866.8</ele>
        <time>2023-02-21T09:53:25Z</time>
      </trkpt>
      <trkpt lat="44.15494" lon="6.2019">
        <ele>867</ele>
        <time>2023-02-21T09:53:26Z</time>
      </trkpt>
      <trkpt lat="44.15491" lon="6.20193">
        <ele>867.4</ele>
        <time>2023-02-21T09:53:28Z</time>
      </trkpt>
      <trkpt lat="44.1549" lon="6.20194">
        <ele>867.6</ele>
        <time>2023-02-21T09:53:29Z</time>
      </trkpt>
      <trkpt lat="44.15489" lon="6.20196">
        <ele>867.6</ele>
        <time>2023-02-21T09:53:30Z</time>
      </trkpt>
      <trkpt lat="44.15483" lon="6.20204">
        <ele>868.2</ele>
        <time>2023-02-21T09:53:34Z</time>
      </trkpt>
      <trkpt lat="44.1548" lon="6.20207">
        <ele>868.8</ele>
        <time>2023-02-21T09:53:36Z</time>
      </trkpt>
      <trkpt lat="44.15478" lon="6.2021">
        <ele>869.4</ele>
        <time>2023-02-21T09:53:38Z</time>
      </trkpt>
      <trkpt lat="44.1547" lon="6.20219">
        <ele>870.4</ele>
        <time>2023-02-21T09:53:44Z</time>
      </trkpt>
      <trkpt lat="44.15467" lon="6.20222">
        <ele>870.8</ele>
        <time>2023-02-21T09:53:46Z</time>
      </trkpt>
      <trkpt lat="44.15464" lon="6.20228">
        <ele>871.6</ele>
        <time>2023-02-21T09:53:49Z</time>
      </trkpt>
      <trkpt lat="44.15459" lon="6.20242">
        <ele>872.8</ele>
        <time>2023-02-21T09:53:55Z</time>
      </trkpt>
      <trkpt lat="44.15457" lon="6.20244">
        <ele>873</ele>
        <time>2023-02-21T09:53:56Z</time>
      </trkpt>
      <trkpt lat="44.15451" lon="6.20251">
        <ele>873.8</ele>
        <time>2023-02-21T09:54:00Z</time>
      </trkpt>
      <trkpt lat="44.15449" lon="6.20252">
        <ele>874</ele>
        <time>2023-02-21T09:54:01Z</time>
      </trkpt>
      <trkpt lat="44.15446" lon="6.2025">
        <ele>874.4</ele>
        <time>2023-02-21T09:54:03Z</time>
      </trkpt>
      <trkpt lat="44.15445" lon="6.20247">
        <ele>874.8</ele>
        <time>2023-02-21T09:54:05Z</time>
      </trkpt>
      <trkpt lat="44.15446" lon="6.20245">
        <ele>875.2</ele>
        <time>2023-02-21T09:54:06Z</time>
      </trkpt>
      <trkpt lat="44.1545" lon="6.20236">
        <ele>876</ele>
        <time>2023-02-21T09:54:11Z</time>
      </trkpt>
      <trkpt lat="44.15456" lon="6.20226">
        <ele>877</ele>
        <time>2023-02-21T09:54:16Z</time>
      </trkpt>
      <trkpt lat="44.15461" lon="6.20215">
        <ele>878.2</ele>
        <time>2023-02-21T09:54:22Z</time>
      </trkpt>
      <trkpt lat="44.15464" lon="6.20207">
        <ele>878.8</ele>
        <time>2023-02-21T09:54:26Z</time>
      </trkpt>
      <trkpt lat="44.15466" lon="6.20202">
        <ele>879.2</ele>
        <time>2023-02-21T09:54:28Z</time>
      </trkpt>
      <trkpt lat="44.15472" lon="6.20191">
        <ele>880</ele>
        <time>2023-02-21T09:54:34Z</time>
      </trkpt>
      <trkpt lat="44.15474" lon="6.20187">
        <ele>880.2</ele>
        <time>2023-02-21T09:54:36Z</time>
      </trkpt>
      <trkpt lat="44.15476" lon="6.20184">
        <ele>880.2</ele>
        <time>2023-02-21T09:54:38Z</time>
      </trkpt>
      <trkpt lat="44.15479" lon="6.20181">
        <ele>880.6</ele>
        <time>2023-02-21T09:54:40Z</time>
      </trkpt>
      <trkpt lat="44.15486" lon="6.20171">
        <ele>881.4</ele>
        <time>2023-02-21T09:54:46Z</time>
      </trkpt>
      <trkpt lat="44.15491" lon="6.20161">
        <ele>882.4</ele>
        <time>2023-02-21T09:54:51Z</time>
      </trkpt>
      <trkpt lat="44.15495" lon="6.20152">
        <ele>883.6</ele>
        <time>2023-02-21T09:54:56Z</time>
      </trkpt>
      <trkpt lat="44.15497" lon="6.20144">
        <ele>884.6</ele>
        <time>2023-02-21T09:55:01Z</time>
      </trkpt>
      <trkpt lat="44.15495" lon="6.20139">
        <ele>885.2</ele>
        <time>2023-02-21T09:55:04Z</time>
      </trkpt>
      <trkpt lat="44.15494" lon="6.20135">
        <ele>885.6</ele>
        <time>2023-02-21T09:55:06Z</time>
      </trkpt>
      <trkpt lat="44.15488" lon="6.20121">
        <ele>886.8</ele>
        <time>2023-02-21T09:55:13Z</time>
      </trkpt>
      <trkpt lat="44.15487" lon="6.20117">
        <ele>887</ele>
        <time>2023-02-21T09:55:15Z</time>
      </trkpt>
      <trkpt lat="44.15485" lon="6.20116">
        <ele>887.2</ele>
        <time>2023-02-21T09:55:16Z</time>
      </trkpt>
      <trkpt lat="44.15483" lon="6.20112">
        <ele>887.6</ele>
        <time>2023-02-21T09:55:18Z</time>
      </trkpt>
      <trkpt lat="44.15481" lon="6.2011">
        <ele>887.8</ele>
        <time>2023-02-21T09:55:19Z</time>
      </trkpt>
      <trkpt lat="44.15477" lon="6.20102">
        <ele>888.4</ele>
        <time>2023-02-21T09:55:23Z</time>
      </trkpt>
      <trkpt lat="44.15474" lon="6.20096">
        <ele>889</ele>
        <time>2023-02-21T09:55:26Z</time>
      </trkpt>
      <trkpt lat="44.1547" lon="6.2009">
        <ele>890</ele>
        <time>2023-02-21T09:55:30Z</time>
      </trkpt>
      <trkpt lat="44.15468" lon="6.20087">
        <ele>890.6</ele>
        <time>2023-02-21T09:55:32Z</time>
      </trkpt>
      <trkpt lat="44.15465" lon="6.20082">
        <ele>891.2</ele>
        <time>2023-02-21T09:55:35Z</time>
      </trkpt>
      <trkpt lat="44.15464" lon="6.20081">
        <ele>891.4</ele>
        <time>2023-02-21T09:55:36Z</time>
      </trkpt>
      <trkpt lat="44.1546" lon="6.20078">
        <ele>892.2</ele>
        <time>2023-02-21T09:55:39Z</time>
      </trkpt>
      <trkpt lat="44.15451" lon="6.20075">
        <ele>893</ele>
        <time>2023-02-21T09:55:44Z</time>
      </trkpt>
      <trkpt lat="44.1545" lon="6.20073">
        <ele>893.4</ele>
        <time>2023-02-21T09:55:46Z</time>
      </trkpt>
      <trkpt lat="44.15446" lon="6.20071">
        <ele>893.6</ele>
        <time>2023-02-21T09:55:48Z</time>
      </trkpt>
      <trkpt lat="44.15443" lon="6.20069">
        <ele>894</ele>
        <time>2023-02-21T09:55:50Z</time>
      </trkpt>
      <trkpt lat="44.1544" lon="6.20067">
        <ele>894</ele>
        <time>2023-02-21T09:55:52Z</time>
      </trkpt>
      <trkpt lat="44.15435" lon="6.20064">
        <ele>894.6</ele>
        <time>2023-02-21T09:55:55Z</time>
      </trkpt>
      <trkpt lat="44.15434" lon="6.20062">
        <ele>894.6</ele>
        <time>2023-02-21T09:55:56Z</time>
      </trkpt>
      <trkpt lat="44.15432" lon="6.20052">
        <ele>895.6</ele>
        <time>2023-02-21T09:56:01Z</time>
      </trkpt>
      <trkpt lat="44.15432" lon="6.20046">
        <ele>896</ele>
        <time>2023-02-21T09:56:04Z</time>
      </trkpt>
      <trkpt lat="44.15433" lon="6.20041">
        <ele>896.2</ele>
        <time>2023-02-21T09:56:06Z</time>
      </trkpt>
      <trkpt lat="44.1544" lon="6.20028">
        <ele>896.4</ele>
        <time>2023-02-21T09:56:11Z</time>
      </trkpt>
      <trkpt lat="44.15443" lon="6.20026">
        <ele>896.8</ele>
        <time>2023-02-21T09:56:13Z</time>
      </trkpt>
      <trkpt lat="44.15447" lon="6.20024">
        <ele>897.6</ele>
        <time>2023-02-21T09:56:15Z</time>
      </trkpt>
      <trkpt lat="44.15448" lon="6.20023">
        <ele>897.8</ele>
        <time>2023-02-21T09:56:16Z</time>
      </trkpt>
      <trkpt lat="44.15452" lon="6.20022">
        <ele>898.4</ele>
        <time>2023-02-21T09:56:18Z</time>
      </trkpt>
      <trkpt lat="44.15455" lon="6.20024">
        <ele>899.2</ele>
        <time>2023-02-21T09:56:20Z</time>
      </trkpt>
      <trkpt lat="44.15459" lon="6.20028">
        <ele>899.8</ele>
        <time>2023-02-21T09:56:23Z</time>
      </trkpt>
      <trkpt lat="44.15462" lon="6.20029">
        <ele>900.2</ele>
        <time>2023-02-21T09:56:25Z</time>
      </trkpt>
      <trkpt lat="44.15464" lon="6.2003">
        <ele>900.4</ele>
        <time>2023-02-21T09:56:26Z</time>
      </trkpt>
      <trkpt lat="44.15469" lon="6.20029">
        <ele>901.4</ele>
        <time>2023-02-21T09:56:30Z</time>
      </trkpt>
      <trkpt lat="44.15474" lon="6.20036">
        <ele>902.4</ele>
        <time>2023-02-21T09:56:34Z</time>
      </trkpt>
      <trkpt lat="44.15477" lon="6.20038">
        <ele>902.8</ele>
        <time>2023-02-21T09:56:36Z</time>
      </trkpt>
      <trkpt lat="44.15483" lon="6.20037">
        <ele>903.4</ele>
        <time>2023-02-21T09:56:39Z</time>
      </trkpt>
      <trkpt lat="44.15492" lon="6.2004">
        <ele>904.6</ele>
        <time>2023-02-21T09:56:44Z</time>
      </trkpt>
      <trkpt lat="44.15495" lon="6.2004">
        <ele>905</ele>
        <time>2023-02-21T09:56:46Z</time>
      </trkpt>
      <trkpt lat="44.15502" lon="6.20041">
        <ele>905.6</ele>
        <time>2023-02-21T09:56:50Z</time>
      </trkpt>
      <trkpt lat="44.15514" lon="6.2004">
        <ele>906.8</ele>
        <time>2023-02-21T09:56:56Z</time>
      </trkpt>
      <trkpt lat="44.15522" lon="6.20042">
        <ele>908</ele>
        <time>2023-02-21T09:57:00Z</time>
      </trkpt>
      <trkpt lat="44.1553" lon="6.20044">
        <ele>909</ele>
        <time>2023-02-21T09:57:05Z</time>
      </trkpt>
      <trkpt lat="44.15532" lon="6.20043">
        <ele>909.2</ele>
        <time>2023-02-21T09:57:06Z</time>
      </trkpt>
      <trkpt lat="44.15537" lon="6.20043">
        <ele>910.2</ele>
        <time>2023-02-21T09:57:10Z</time>
      </trkpt>
      <trkpt lat="44.15538" lon="6.20042">
        <ele>910.6</ele>
        <time>2023-02-21T09:57:11Z</time>
      </trkpt>
      <trkpt lat="44.15543" lon="6.20036">
        <ele>911.2</ele>
        <time>2023-02-21T09:57:15Z</time>
      </trkpt>
      <trkpt lat="44.15545" lon="6.20035">
        <ele>911.4</ele>
        <time>2023-02-21T09:57:16Z</time>
      </trkpt>
      <trkpt lat="44.15549" lon="6.2003">
        <ele>912.4</ele>
        <time>2023-02-21T09:57:19Z</time>
      </trkpt>
      <trkpt lat="44.1556" lon="6.20019">
        <ele>913.4</ele>
        <time>2023-02-21T09:57:26Z</time>
      </trkpt>
      <trkpt lat="44.15563" lon="6.20016">
        <ele>914</ele>
        <time>2023-02-21T09:57:28Z</time>
      </trkpt>
      <trkpt lat="44.15566" lon="6.20009">
        <ele>914.6</ele>
        <time>2023-02-21T09:57:32Z</time>
      </trkpt>
      <trkpt lat="44.15566" lon="6.20006">
        <ele>914.8</ele>
        <time>2023-02-21T09:57:34Z</time>
      </trkpt>
      <trkpt lat="44.15567" lon="6.20002">
        <ele>915</ele>
        <time>2023-02-21T09:57:36Z</time>
      </trkpt>
      <trkpt lat="44.15568" lon="6.2">
        <ele>915</ele>
        <time>2023-02-21T09:57:37Z</time>
      </trkpt>
      <trkpt lat="44.15566" lon="6.19993">
        <ele>915.8</ele>
        <time>2023-02-21T09:57:41Z</time>
      </trkpt>
      <trkpt lat="44.15566" lon="6.1999">
        <ele>916.2</ele>
        <time>2023-02-21T09:57:42Z</time>
      </trkpt>
      <trkpt lat="44.15565" lon="6.19985">
        <ele>916.6</ele>
        <time>2023-02-21T09:57:44Z</time>
      </trkpt>
      <trkpt lat="44.15565" lon="6.19982">
        <ele>916.8</ele>
        <time>2023-02-21T09:57:45Z</time>
      </trkpt>
      <trkpt lat="44.15565" lon="6.19979">
        <ele>917</ele>
        <time>2023-02-21T09:57:46Z</time>
      </trkpt>
      <trkpt lat="44.15563" lon="6.19969">
        <ele>918</ele>
        <time>2023-02-21T09:57:50Z</time>
      </trkpt>
      <trkpt lat="44.1556" lon="6.19957">
        <ele>919.2</ele>
        <time>2023-02-21T09:57:55Z</time>
      </trkpt>
      <trkpt lat="44.1556" lon="6.19953">
        <ele>919.4</ele>
        <time>2023-02-21T09:57:56Z</time>
      </trkpt>
      <trkpt lat="44.15559" lon="6.19948">
        <ele>919.6</ele>
        <time>2023-02-21T09:57:58Z</time>
      </trkpt>
      <trkpt lat="44.15557" lon="6.19942">
        <ele>920.2</ele>
        <time>2023-02-21T09:58:01Z</time>
      </trkpt>
      <trkpt lat="44.15552" lon="6.19933">
        <ele>921.4</ele>
        <time>2023-02-21T09:58:06Z</time>
      </trkpt>
      <trkpt lat="44.15549" lon="6.19919">
        <ele>922.4</ele>
        <time>2023-02-21T09:58:12Z</time>
      </trkpt>
      <trkpt lat="44.15547" lon="6.19909">
        <ele>923.2</ele>
        <time>2023-02-21T09:58:16Z</time>
      </trkpt>
      <trkpt lat="44.15546" lon="6.19904">
        <ele>923.6</ele>
        <time>2023-02-21T09:58:18Z</time>
      </trkpt>
      <trkpt lat="44.15542" lon="6.19895">
        <ele>924.4</ele>
        <time>2023-02-21T09:58:22Z</time>
      </trkpt>
      <trkpt lat="44.15541" lon="6.19894">
        <ele>924.6</ele>
        <time>2023-02-21T09:58:23Z</time>
      </trkpt>
      <trkpt lat="44.1554" lon="6.19892">
        <ele>924.8</ele>
        <time>2023-02-21T09:58:24Z</time>
      </trkpt>
      <trkpt lat="44.15538" lon="6.19888">
        <ele>925.2</ele>
        <time>2023-02-21T09:58:26Z</time>
      </trkpt>
      <trkpt lat="44.15536" lon="6.19886">
        <ele>925.4</ele>
        <time>2023-02-21T09:58:27Z</time>
      </trkpt>
      <trkpt lat="44.15533" lon="6.19884">
        <ele>925.8</ele>
        <time>2023-02-21T09:58:29Z</time>
      </trkpt>
      <trkpt lat="44.15529" lon="6.19882">
        <ele>926.2</ele>
        <time>2023-02-21T09:58:31Z</time>
      </trkpt>
      <trkpt lat="44.15525" lon="6.19877">
        <ele>926.8</ele>
        <time>2023-02-21T09:58:34Z</time>
      </trkpt>
      <trkpt lat="44.15523" lon="6.19874">
        <ele>927.2</ele>
        <time>2023-02-21T09:58:36Z</time>
      </trkpt>
      <trkpt lat="44.1552" lon="6.19868">
        <ele>928</ele>
        <time>2023-02-21T09:58:39Z</time>
      </trkpt>
      <trkpt lat="44.15516" lon="6.19857">
        <ele>929</ele>
        <time>2023-02-21T09:58:44Z</time>
      </trkpt>
      <trkpt lat="44.15514" lon="6.19852">
        <ele>929.4</ele>
        <time>2023-02-21T09:58:46Z</time>
      </trkpt>
      <trkpt lat="44.15512" lon="6.19845">
        <ele>930</ele>
        <time>2023-02-21T09:58:49Z</time>
      </trkpt>
      <trkpt lat="44.1551" lon="6.19839">
        <ele>930.4</ele>
        <time>2023-02-21T09:58:51Z</time>
      </trkpt>
      <trkpt lat="44.15508" lon="6.19826">
        <ele>931</ele>
        <time>2023-02-21T09:58:55Z</time>
      </trkpt>
      <trkpt lat="44.15509" lon="6.19822">
        <ele>931.2</ele>
        <time>2023-02-21T09:58:56Z</time>
      </trkpt>
      <trkpt lat="44.15509" lon="6.1981">
        <ele>931.4</ele>
        <time>2023-02-21T09:58:59Z</time>
      </trkpt>
      <trkpt lat="44.1551" lon="6.19804">
        <ele>932</ele>
        <time>2023-02-21T09:59:02Z</time>
      </trkpt>
      <trkpt lat="44.1551" lon="6.19797">
        <ele>933.2</ele>
        <time>2023-02-21T09:59:06Z</time>
      </trkpt>
      <trkpt lat="44.15511" lon="6.19793">
        <ele>933.8</ele>
        <time>2023-02-21T09:59:08Z</time>
      </trkpt>
      <trkpt lat="44.15513" lon="6.19786">
        <ele>934.2</ele>
        <time>2023-02-21T09:59:11Z</time>
      </trkpt>
      <trkpt lat="44.1552" lon="6.19776">
        <ele>934.8</ele>
        <time>2023-02-21T09:59:15Z</time>
      </trkpt>
      <trkpt lat="44.15522" lon="6.19774">
        <ele>935</ele>
        <time>2023-02-21T09:59:16Z</time>
      </trkpt>
      <trkpt lat="44.15522" lon="6.1977">
        <ele>935.4</ele>
        <time>2023-02-21T09:59:18Z</time>
      </trkpt>
      <trkpt lat="44.1553" lon="6.1976">
        <ele>936.6</ele>
        <time>2023-02-21T09:59:23Z</time>
      </trkpt>
      <trkpt lat="44.15536" lon="6.19757">
        <ele>937.2</ele>
        <time>2023-02-21T09:59:26Z</time>
      </trkpt>
      <trkpt lat="44.15539" lon="6.19755">
        <ele>937.6</ele>
        <time>2023-02-21T09:59:28Z</time>
      </trkpt>
      <trkpt lat="44.15548" lon="6.1975">
        <ele>938.6</ele>
        <time>2023-02-21T09:59:33Z</time>
      </trkpt>
      <trkpt lat="44.15552" lon="6.1975">
        <ele>939.2</ele>
        <time>2023-02-21T09:59:35Z</time>
      </trkpt>
      <trkpt lat="44.15553" lon="6.19749">
        <ele>939.4</ele>
        <time>2023-02-21T09:59:36Z</time>
      </trkpt>
      <trkpt lat="44.15554" lon="6.19748">
        <ele>939.6</ele>
        <time>2023-02-21T09:59:37Z</time>
      </trkpt>
      <trkpt lat="44.15555" lon="6.19747">
        <ele>939.8</ele>
        <time>2023-02-21T09:59:38Z</time>
      </trkpt>
      <trkpt lat="44.15562" lon="6.19745">
        <ele>941</ele>
        <time>2023-02-21T09:59:43Z</time>
      </trkpt>
      <trkpt lat="44.15566" lon="6.19744">
        <ele>941.8</ele>
        <time>2023-02-21T09:59:46Z</time>
      </trkpt>
      <trkpt lat="44.15569" lon="6.19742">
        <ele>942</ele>
        <time>2023-02-21T09:59:47Z</time>
      </trkpt>
      <trkpt lat="44.15576" lon="6.19748">
        <ele>943.2</ele>
        <time>2023-02-21T09:59:53Z</time>
      </trkpt>
      <trkpt lat="44.15578" lon="6.19752">
        <ele>944.2</ele>
        <time>2023-02-21T09:59:56Z</time>
      </trkpt>
      <trkpt lat="44.15578" lon="6.19753">
        <ele>944.4</ele>
        <time>2023-02-21T09:59:57Z</time>
      </trkpt>
      <trkpt lat="44.15579" lon="6.19757">
        <ele>945</ele>
        <time>2023-02-21T09:59:59Z</time>
      </trkpt>
      <trkpt lat="44.15581" lon="6.19763">
        <ele>945.6</ele>
        <time>2023-02-21T10:00:03Z</time>
      </trkpt>
      <trkpt lat="44.15584" lon="6.19766">
        <ele>946</ele>
        <time>2023-02-21T10:00:06Z</time>
      </trkpt>
      <trkpt lat="44.15588" lon="6.1977">
        <ele>946.6</ele>
        <time>2023-02-21T10:00:10Z</time>
      </trkpt>
      <trkpt lat="44.15596" lon="6.19776">
        <ele>947.6</ele>
        <time>2023-02-21T10:00:16Z</time>
      </trkpt>
      <trkpt lat="44.15602" lon="6.19786">
        <ele>948.6</ele>
        <time>2023-02-21T10:00:23Z</time>
      </trkpt>
      <trkpt lat="44.15603" lon="6.19787">
        <ele>948.6</ele>
        <time>2023-02-21T10:00:24Z</time>
      </trkpt>
      <trkpt lat="44.15605" lon="6.1979">
        <ele>948.8</ele>
        <time>2023-02-21T10:00:26Z</time>
      </trkpt>
      <trkpt lat="44.1561" lon="6.19795">
        <ele>949.4</ele>
        <time>2023-02-21T10:00:30Z</time>
      </trkpt>
      <trkpt lat="44.15611" lon="6.19796">
        <ele>949.6</ele>
        <time>2023-02-21T10:00:31Z</time>
      </trkpt>
      <trkpt lat="44.15613" lon="6.19797">
        <ele>950</ele>
        <time>2023-02-21T10:00:33Z</time>
      </trkpt>
      <trkpt lat="44.15616" lon="6.19801">
        <ele>950.4</ele>
        <time>2023-02-21T10:00:36Z</time>
      </trkpt>
      <trkpt lat="44.15617" lon="6.19801">
        <ele>950.6</ele>
        <time>2023-02-21T10:00:37Z</time>
      </trkpt>
      <trkpt lat="44.15622" lon="6.19805">
        <ele>951.4</ele>
        <time>2023-02-21T10:00:41Z</time>
      </trkpt>
      <trkpt lat="44.15629" lon="6.19808">
        <ele>951.8</ele>
        <time>2023-02-21T10:00:45Z</time>
      </trkpt>
      <trkpt lat="44.15631" lon="6.1981">
        <ele>952</ele>
        <time>2023-02-21T10:00:46Z</time>
      </trkpt>
      <trkpt lat="44.15632" lon="6.19811">
        <ele>952</ele>
        <time>2023-02-21T10:00:47Z</time>
      </trkpt>
      <trkpt lat="44.15634" lon="6.19813">
        <ele>952.2</ele>
        <time>2023-02-21T10:00:48Z</time>
      </trkpt>
      <trkpt lat="44.15645" lon="6.19821">
        <ele>952.8</ele>
        <time>2023-02-21T10:00:55Z</time>
      </trkpt>
      <trkpt lat="44.15646" lon="6.19823">
        <ele>953</ele>
        <time>2023-02-21T10:00:56Z</time>
      </trkpt>
      <trkpt lat="44.15656" lon="6.19827">
        <ele>954</ele>
        <time>2023-02-21T10:01:03Z</time>
      </trkpt>
      <trkpt lat="44.15659" lon="6.19828">
        <ele>954.2</ele>
        <time>2023-02-21T10:01:05Z</time>
      </trkpt>
      <trkpt lat="44.1566" lon="6.19828">
        <ele>954.4</ele>
        <time>2023-02-21T10:01:06Z</time>
      </trkpt>
      <trkpt lat="44.15665" lon="6.1983">
        <ele>955.2</ele>
        <time>2023-02-21T10:01:09Z</time>
      </trkpt>
      <trkpt lat="44.15673" lon="6.19836">
        <ele>956.2</ele>
        <time>2023-02-21T10:01:14Z</time>
      </trkpt>
      <trkpt lat="44.15676" lon="6.19839">
        <ele>956.4</ele>
        <time>2023-02-21T10:01:16Z</time>
      </trkpt>
      <trkpt lat="44.15683" lon="6.19848">
        <ele>957.4</ele>
        <time>2023-02-21T10:01:22Z</time>
      </trkpt>
      <trkpt lat="44.15684" lon="6.1985">
        <ele>957.4</ele>
        <time>2023-02-21T10:01:23Z</time>
      </trkpt>
      <trkpt lat="44.15687" lon="6.19855">
        <ele>957.8</ele>
        <time>2023-02-21T10:01:26Z</time>
      </trkpt>
      <trkpt lat="44.1569" lon="6.19863">
        <ele>958.4</ele>
        <time>2023-02-21T10:01:31Z</time>
      </trkpt>
      <trkpt lat="44.15695" lon="6.1987">
        <ele>958.8</ele>
        <time>2023-02-21T10:01:36Z</time>
      </trkpt>
      <trkpt lat="44.15701" lon="6.19879">
        <ele>959.2</ele>
        <time>2023-02-21T10:01:42Z</time>
      </trkpt>
      <trkpt lat="44.15703" lon="6.1988">
        <ele>959.4</ele>
        <time>2023-02-21T10:01:44Z</time>
      </trkpt>
      <trkpt lat="44.15706" lon="6.19882">
        <ele>959.8</ele>
        <time>2023-02-21T10:01:46Z</time>
      </trkpt>
      <trkpt lat="44.15711" lon="6.19885">
        <ele>960.6</ele>
        <time>2023-02-21T10:01:50Z</time>
      </trkpt>
      <trkpt lat="44.15721" lon="6.19889">
        <ele>961.6</ele>
        <time>2023-02-21T10:01:56Z</time>
      </trkpt>
      <trkpt lat="44.15725" lon="6.19889">
        <ele>962</ele>
        <time>2023-02-21T10:01:59Z</time>
      </trkpt>
      <trkpt lat="44.1573" lon="6.19888">
        <ele>962.6</ele>
        <time>2023-02-21T10:02:02Z</time>
      </trkpt>
      <trkpt lat="44.15736" lon="6.19888">
        <ele>963</ele>
        <time>2023-02-21T10:02:06Z</time>
      </trkpt>
      <trkpt lat="44.15741" lon="6.19886">
        <ele>963.8</ele>
        <time>2023-02-21T10:02:10Z</time>
      </trkpt>
      <trkpt lat="44.15748" lon="6.19884">
        <ele>964.6</ele>
        <time>2023-02-21T10:02:15Z</time>
      </trkpt>
      <trkpt lat="44.1575" lon="6.19885">
        <ele>964.8</ele>
        <time>2023-02-21T10:02:16Z</time>
      </trkpt>
      <trkpt lat="44.15752" lon="6.19885">
        <ele>965</ele>
        <time>2023-02-21T10:02:17Z</time>
      </trkpt>
      <trkpt lat="44.15763" lon="6.19884">
        <ele>966.2</ele>
        <time>2023-02-21T10:02:24Z</time>
      </trkpt>
      <trkpt lat="44.15766" lon="6.19882">
        <ele>966.8</ele>
        <time>2023-02-21T10:02:26Z</time>
      </trkpt>
      <trkpt lat="44.15771" lon="6.19879">
        <ele>967.4</ele>
        <time>2023-02-21T10:02:29Z</time>
      </trkpt>
      <trkpt lat="44.15779" lon="6.19872">
        <ele>968.2</ele>
        <time>2023-02-21T10:02:36Z</time>
      </trkpt>
      <trkpt lat="44.15781" lon="6.19871">
        <ele>968.4</ele>
        <time>2023-02-21T10:02:37Z</time>
      </trkpt>
      <trkpt lat="44.15788" lon="6.19867">
        <ele>969.6</ele>
        <time>2023-02-21T10:02:43Z</time>
      </trkpt>
      <trkpt lat="44.15792" lon="6.19864">
        <ele>970</ele>
        <time>2023-02-21T10:02:46Z</time>
      </trkpt>
      <trkpt lat="44.15797" lon="6.19861">
        <ele>970.6</ele>
        <time>2023-02-21T10:02:49Z</time>
      </trkpt>
      <trkpt lat="44.15808" lon="6.19855">
        <ele>971.8</ele>
        <time>2023-02-21T10:02:56Z</time>
      </trkpt>
      <trkpt lat="44.15819" lon="6.19845">
        <ele>973</ele>
        <time>2023-02-21T10:03:02Z</time>
      </trkpt>
      <trkpt lat="44.15825" lon="6.19838">
        <ele>973.6</ele>
        <time>2023-02-21T10:03:06Z</time>
      </trkpt>
      <trkpt lat="44.15827" lon="6.19833">
        <ele>974</ele>
        <time>2023-02-21T10:03:08Z</time>
      </trkpt>
      <trkpt lat="44.15833" lon="6.19823">
        <ele>975</ele>
        <time>2023-02-21T10:03:13Z</time>
      </trkpt>
      <trkpt lat="44.15836" lon="6.19818">
        <ele>975.6</ele>
        <time>2023-02-21T10:03:16Z</time>
      </trkpt>
      <trkpt lat="44.15839" lon="6.19813">
        <ele>976.2</ele>
        <time>2023-02-21T10:03:19Z</time>
      </trkpt>
      <trkpt lat="44.15848" lon="6.198">
        <ele>977.2</ele>
        <time>2023-02-21T10:03:25Z</time>
      </trkpt>
      <trkpt lat="44.15849" lon="6.19798">
        <ele>977.4</ele>
        <time>2023-02-21T10:03:26Z</time>
      </trkpt>
      <trkpt lat="44.15857" lon="6.19792">
        <ele>978.4</ele>
        <time>2023-02-21T10:03:31Z</time>
      </trkpt>
      <trkpt lat="44.15868" lon="6.19789">
        <ele>979.2</ele>
        <time>2023-02-21T10:03:36Z</time>
      </trkpt>
      <trkpt lat="44.15872" lon="6.19788">
        <ele>979.6</ele>
        <time>2023-02-21T10:03:38Z</time>
      </trkpt>
      <trkpt lat="44.15886" lon="6.19778">
        <ele>980.6</ele>
        <time>2023-02-21T10:03:44Z</time>
      </trkpt>
      <trkpt lat="44.15889" lon="6.19776">
        <ele>981</ele>
        <time>2023-02-21T10:03:46Z</time>
      </trkpt>
      <trkpt lat="44.15891" lon="6.19772">
        <ele>981.6</ele>
        <time>2023-02-21T10:03:48Z</time>
      </trkpt>
      <trkpt lat="44.15897" lon="6.19767">
        <ele>982.4</ele>
        <time>2023-02-21T10:03:52Z</time>
      </trkpt>
      <trkpt lat="44.15898" lon="6.19766">
        <ele>982.6</ele>
        <time>2023-02-21T10:03:53Z</time>
      </trkpt>
      <trkpt lat="44.15902" lon="6.19764">
        <ele>983.2</ele>
        <time>2023-02-21T10:03:56Z</time>
      </trkpt>
      <trkpt lat="44.15904" lon="6.19761">
        <ele>983.6</ele>
        <time>2023-02-21T10:03:58Z</time>
      </trkpt>
      <trkpt lat="44.15905" lon="6.19758">
        <ele>984.2</ele>
        <time>2023-02-21T10:04:00Z</time>
      </trkpt>
      <trkpt lat="44.15907" lon="6.19745">
        <ele>984.8</ele>
        <time>2023-02-21T10:04:04Z</time>
      </trkpt>
      <trkpt lat="44.15905" lon="6.19742">
        <ele>985.2</ele>
        <time>2023-02-21T10:04:06Z</time>
      </trkpt>
      <trkpt lat="44.15898" lon="6.19746">
        <ele>985.8</ele>
        <time>2023-02-21T10:04:12Z</time>
      </trkpt>
      <trkpt lat="44.15894" lon="6.19753">
        <ele>986.2</ele>
        <time>2023-02-21T10:04:16Z</time>
      </trkpt>
      <trkpt lat="44.15892" lon="6.19756">
        <ele>986.4</ele>
        <time>2023-02-21T10:04:18Z</time>
      </trkpt>
      <trkpt lat="44.15882" lon="6.19764">
        <ele>987</ele>
        <time>2023-02-21T10:04:25Z</time>
      </trkpt>
      <trkpt lat="44.15881" lon="6.19765">
        <ele>987.2</ele>
        <time>2023-02-21T10:04:26Z</time>
      </trkpt>
      <trkpt lat="44.15873" lon="6.19767">
        <ele>988</ele>
        <time>2023-02-21T10:04:32Z</time>
      </trkpt>
      <trkpt lat="44.15867" lon="6.19767">
        <ele>988.6</ele>
        <time>2023-02-21T10:04:36Z</time>
      </trkpt>
      <trkpt lat="44.15863" lon="6.19765">
        <ele>989.2</ele>
        <time>2023-02-21T10:04:39Z</time>
      </trkpt>
      <trkpt lat="44.15853" lon="6.19764">
        <ele>990.2</ele>
        <time>2023-02-21T10:04:46Z</time>
      </trkpt>
      <trkpt lat="44.1585" lon="6.19765">
        <ele>990.6</ele>
        <time>2023-02-21T10:04:48Z</time>
      </trkpt>
      <trkpt lat="44.15843" lon="6.19762">
        <ele>991.4</ele>
        <time>2023-02-21T10:04:52Z</time>
      </trkpt>
      <trkpt lat="44.15839" lon="6.19762">
        <ele>992</ele>
        <time>2023-02-21T10:04:54Z</time>
      </trkpt>
      <trkpt lat="44.15836" lon="6.19761">
        <ele>992.4</ele>
        <time>2023-02-21T10:04:56Z</time>
      </trkpt>
      <trkpt lat="44.15834" lon="6.1976">
        <ele>992.6</ele>
        <time>2023-02-21T10:04:57Z</time>
      </trkpt>
      <trkpt lat="44.15828" lon="6.19758">
        <ele>993.2</ele>
        <time>2023-02-21T10:05:01Z</time>
      </trkpt>
      <trkpt lat="44.15825" lon="6.19755">
        <ele>993.6</ele>
        <time>2023-02-21T10:05:03Z</time>
      </trkpt>
      <trkpt lat="44.15822" lon="6.19751">
        <ele>994</ele>
        <time>2023-02-21T10:05:05Z</time>
      </trkpt>
      <trkpt lat="44.1582" lon="6.19749">
        <ele>994.2</ele>
        <time>2023-02-21T10:05:06Z</time>
      </trkpt>
      <trkpt lat="44.15818" lon="6.19745">
        <ele>994.6</ele>
        <time>2023-02-21T10:05:08Z</time>
      </trkpt>
      <trkpt lat="44.15809" lon="6.19737">
        <ele>995.6</ele>
        <time>2023-02-21T10:05:13Z</time>
      </trkpt>
      <trkpt lat="44.15807" lon="6.19734">
        <ele>996</ele>
        <time>2023-02-21T10:05:15Z</time>
      </trkpt>
      <trkpt lat="44.15805" lon="6.19733">
        <ele>996.2</ele>
        <time>2023-02-21T10:05:16Z</time>
      </trkpt>
      <trkpt lat="44.15801" lon="6.19729">
        <ele>996.8</ele>
        <time>2023-02-21T10:05:19Z</time>
      </trkpt>
      <trkpt lat="44.15799" lon="6.19726">
        <ele>997.2</ele>
        <time>2023-02-21T10:05:22Z</time>
      </trkpt>
      <trkpt lat="44.15795" lon="6.19725">
        <ele>997.8</ele>
        <time>2023-02-21T10:05:24Z</time>
      </trkpt>
      <trkpt lat="44.15793" lon="6.19724">
        <ele>998</ele>
        <time>2023-02-21T10:05:25Z</time>
      </trkpt>
      <trkpt lat="44.15792" lon="6.19723">
        <ele>998.2</ele>
        <time>2023-02-21T10:05:26Z</time>
      </trkpt>
      <trkpt lat="44.15784" lon="6.19717">
        <ele>999.2</ele>
        <time>2023-02-21T10:05:31Z</time>
      </trkpt>
      <trkpt lat="44.15775" lon="6.19717">
        <ele>1000.2</ele>
        <time>2023-02-21T10:05:36Z</time>
      </trkpt>
      <trkpt lat="44.15771" lon="6.19717">
        <ele>1000.8</ele>
        <time>2023-02-21T10:05:39Z</time>
      </trkpt>
      <trkpt lat="44.15766" lon="6.19716">
        <ele>1001.4</ele>
        <time>2023-02-21T10:05:42Z</time>
      </trkpt>
      <trkpt lat="44.1576" lon="6.19718">
        <ele>1002</ele>
        <time>2023-02-21T10:05:46Z</time>
      </trkpt>
      <trkpt lat="44.15756" lon="6.19721">
        <ele>1002.4</ele>
        <time>2023-02-21T10:05:48Z</time>
      </trkpt>
      <trkpt lat="44.15738" lon="6.19728">
        <ele>1003.6</ele>
        <time>2023-02-21T10:05:56Z</time>
      </trkpt>
      <trkpt lat="44.15725" lon="6.19729">
        <ele>1004.8</ele>
        <time>2023-02-21T10:06:04Z</time>
      </trkpt>
      <trkpt lat="44.15721" lon="6.19728">
        <ele>1005</ele>
        <time>2023-02-21T10:06:06Z</time>
      </trkpt>
      <trkpt lat="44.15714" lon="6.19726">
        <ele>1005.8</ele>
        <time>2023-02-21T10:06:10Z</time>
      </trkpt>
      <trkpt lat="44.15709" lon="6.19724">
        <ele>1006.2</ele>
        <time>2023-02-21T10:06:13Z</time>
      </trkpt>
      <trkpt lat="44.15703" lon="6.19721">
        <ele>1006.6</ele>
        <time>2023-02-21T10:06:16Z</time>
      </trkpt>
      <trkpt lat="44.157" lon="6.19719">
        <ele>1007</ele>
        <time>2023-02-21T10:06:18Z</time>
      </trkpt>
      <trkpt lat="44.15691" lon="6.19712">
        <ele>1008.2</ele>
        <time>2023-02-21T10:06:23Z</time>
      </trkpt>
      <trkpt lat="44.15686" lon="6.19707">
        <ele>1009</ele>
        <time>2023-02-21T10:06:26Z</time>
      </trkpt>
      <trkpt lat="44.15685" lon="6.19705">
        <ele>1009.2</ele>
        <time>2023-02-21T10:06:27Z</time>
      </trkpt>
      <trkpt lat="44.15677" lon="6.19695">
        <ele>1010.4</ele>
        <time>2023-02-21T10:06:32Z</time>
      </trkpt>
      <trkpt lat="44.15671" lon="6.19689">
        <ele>1011</ele>
        <time>2023-02-21T10:06:36Z</time>
      </trkpt>
      <trkpt lat="44.15665" lon="6.19685">
        <ele>1011.4</ele>
        <time>2023-02-21T10:06:39Z</time>
      </trkpt>
      <trkpt lat="44.15659" lon="6.19682">
        <ele>1012</ele>
        <time>2023-02-21T10:06:42Z</time>
      </trkpt>
      <trkpt lat="44.15658" lon="6.19677">
        <ele>1012.6</ele>
        <time>2023-02-21T10:06:44Z</time>
      </trkpt>
      <trkpt lat="44.15658" lon="6.19672">
        <ele>1013.4</ele>
        <time>2023-02-21T10:06:46Z</time>
      </trkpt>
      <trkpt lat="44.1566" lon="6.19668">
        <ele>1013.8</ele>
        <time>2023-02-21T10:06:48Z</time>
      </trkpt>
      <trkpt lat="44.15665" lon="6.19668">
        <ele>1014.4</ele>
        <time>2023-02-21T10:06:51Z</time>
      </trkpt>
      <trkpt lat="44.1567" lon="6.19673">
        <ele>1014.8</ele>
        <time>2023-02-21T10:06:54Z</time>
      </trkpt>
      <trkpt lat="44.15672" lon="6.19676">
        <ele>1015.2</ele>
        <time>2023-02-21T10:06:56Z</time>
      </trkpt>
      <trkpt lat="44.15673" lon="6.19677">
        <ele>1015.4</ele>
        <time>2023-02-21T10:06:57Z</time>
      </trkpt>
      <trkpt lat="44.15674" lon="6.19678">
        <ele>1015.6</ele>
        <time>2023-02-21T10:06:58Z</time>
      </trkpt>
      <trkpt lat="44.15675" lon="6.19679">
        <ele>1015.8</ele>
        <time>2023-02-21T10:06:59Z</time>
      </trkpt>
      <trkpt lat="44.15676" lon="6.1968">
        <ele>1016</ele>
        <time>2023-02-21T10:07:00Z</time>
      </trkpt>
      <trkpt lat="44.15678" lon="6.1968">
        <ele>1016</ele>
        <time>2023-02-21T10:07:01Z</time>
      </trkpt>
      <trkpt lat="44.15679" lon="6.19681">
        <ele>1016</ele>
        <time>2023-02-21T10:07:02Z</time>
      </trkpt>
      <trkpt lat="44.15681" lon="6.19681">
        <ele>1016.2</ele>
        <time>2023-02-21T10:07:03Z</time>
      </trkpt>
      <trkpt lat="44.15684" lon="6.19683">
        <ele>1016.6</ele>
        <time>2023-02-21T10:07:06Z</time>
      </trkpt>
      <trkpt lat="44.15688" lon="6.19685">
        <ele>1017</ele>
        <time>2023-02-21T10:07:10Z</time>
      </trkpt>
      <trkpt lat="44.1569" lon="6.19685">
        <ele>1017.2</ele>
        <time>2023-02-21T10:07:11Z</time>
      </trkpt>
      <trkpt lat="44.15695" lon="6.19687">
        <ele>1017.6</ele>
        <time>2023-02-21T10:07:14Z</time>
      </trkpt>
      <trkpt lat="44.15698" lon="6.19688">
        <ele>1017.8</ele>
        <time>2023-02-21T10:07:16Z</time>
      </trkpt>
      <trkpt lat="44.15705" lon="6.19687">
        <ele>1018</ele>
        <time>2023-02-21T10:07:19Z</time>
      </trkpt>
      <trkpt lat="44.15718" lon="6.19683">
        <ele>1019</ele>
        <time>2023-02-21T10:07:25Z</time>
      </trkpt>
      <trkpt lat="44.1572" lon="6.19681">
        <ele>1019.4</ele>
        <time>2023-02-21T10:07:26Z</time>
      </trkpt>
      <trkpt lat="44.15724" lon="6.19677">
        <ele>1020</ele>
        <time>2023-02-21T10:07:29Z</time>
      </trkpt>
      <trkpt lat="44.15725" lon="6.19675">
        <ele>1020.2</ele>
        <time>2023-02-21T10:07:30Z</time>
      </trkpt>
      <trkpt lat="44.15731" lon="6.19664">
        <ele>1021.4</ele>
        <time>2023-02-21T10:07:36Z</time>
      </trkpt>
      <trkpt lat="44.15734" lon="6.19658">
        <ele>1022.2</ele>
        <time>2023-02-21T10:07:39Z</time>
      </trkpt>
      <trkpt lat="44.15734" lon="6.19656">
        <ele>1022.4</ele>
        <time>2023-02-21T10:07:40Z</time>
      </trkpt>
      <trkpt lat="44.15736" lon="6.19652">
        <ele>1022.8</ele>
        <time>2023-02-21T10:07:42Z</time>
      </trkpt>
      <trkpt lat="44.1574" lon="6.19645">
        <ele>1023.2</ele>
        <time>2023-02-21T10:07:46Z</time>
      </trkpt>
      <trkpt lat="44.15741" lon="6.19644">
        <ele>1023.4</ele>
        <time>2023-02-21T10:07:47Z</time>
      </trkpt>
      <trkpt lat="44.15742" lon="6.19643">
        <ele>1023.6</ele>
        <time>2023-02-21T10:07:48Z</time>
      </trkpt>
      <trkpt lat="44.15752" lon="6.19637">
        <ele>1024.6</ele>
        <time>2023-02-21T10:07:54Z</time>
      </trkpt>
      <trkpt lat="44.15755" lon="6.19637">
        <ele>1024.8</ele>
        <time>2023-02-21T10:07:56Z</time>
      </trkpt>
      <trkpt lat="44.15764" lon="6.19637">
        <ele>1025.8</ele>
        <time>2023-02-21T10:08:00Z</time>
      </trkpt>
      <trkpt lat="44.15769" lon="6.19638">
        <ele>1026.2</ele>
        <time>2023-02-21T10:08:03Z</time>
      </trkpt>
      <trkpt lat="44.15774" lon="6.19638">
        <ele>1026.6</ele>
        <time>2023-02-21T10:08:06Z</time>
      </trkpt>
      <trkpt lat="44.15776" lon="6.19638">
        <ele>1026.8</ele>
        <time>2023-02-21T10:08:07Z</time>
      </trkpt>
      <trkpt lat="44.1579" lon="6.19637">
        <ele>1028</ele>
        <time>2023-02-21T10:08:13Z</time>
      </trkpt>
      <trkpt lat="44.15795" lon="6.19635">
        <ele>1028.6</ele>
        <time>2023-02-21T10:08:16Z</time>
      </trkpt>
      <trkpt lat="44.15796" lon="6.19635">
        <ele>1028.6</ele>
        <time>2023-02-21T10:08:17Z</time>
      </trkpt>
      <trkpt lat="44.158" lon="6.19633">
        <ele>1029</ele>
        <time>2023-02-21T10:08:19Z</time>
      </trkpt>
      <trkpt lat="44.15811" lon="6.19628">
        <ele>1030</ele>
        <time>2023-02-21T10:08:25Z</time>
      </trkpt>
      <trkpt lat="44.15813" lon="6.19627">
        <ele>1030.4</ele>
        <time>2023-02-21T10:08:26Z</time>
      </trkpt>
      <trkpt lat="44.15815" lon="6.19625">
        <ele>1030.6</ele>
        <time>2023-02-21T10:08:28Z</time>
      </trkpt>
      <trkpt lat="44.15822" lon="6.19619">
        <ele>1031.2</ele>
        <time>2023-02-21T10:08:32Z</time>
      </trkpt>
      <trkpt lat="44.15828" lon="6.19615">
        <ele>1032</ele>
        <time>2023-02-21T10:08:36Z</time>
      </trkpt>
      <trkpt lat="44.15832" lon="6.19612">
        <ele>1032.4</ele>
        <time>2023-02-21T10:08:38Z</time>
      </trkpt>
      <trkpt lat="44.15839" lon="6.19608">
        <ele>1033.4</ele>
        <time>2023-02-21T10:08:42Z</time>
      </trkpt>
      <trkpt lat="44.15843" lon="6.19606">
        <ele>1033.8</ele>
        <time>2023-02-21T10:08:44Z</time>
      </trkpt>
      <trkpt lat="44.15845" lon="6.19605">
        <ele>1033.8</ele>
        <time>2023-02-21T10:08:45Z</time>
      </trkpt>
      <trkpt lat="44.15847" lon="6.19603">
        <ele>1034</ele>
        <time>2023-02-21T10:08:46Z</time>
      </trkpt>
      <trkpt lat="44.15848" lon="6.19601">
        <ele>1034</ele>
        <time>2023-02-21T10:08:47Z</time>
      </trkpt>
      <trkpt lat="44.15849" lon="6.196">
        <ele>1034.4</ele>
        <time>2023-02-21T10:08:48Z</time>
      </trkpt>
      <trkpt lat="44.15851" lon="6.19598">
        <ele>1034.4</ele>
        <time>2023-02-21T10:08:49Z</time>
      </trkpt>
      <trkpt lat="44.15861" lon="6.19588">
        <ele>1035.2</ele>
        <time>2023-02-21T10:08:56Z</time>
      </trkpt>
      <trkpt lat="44.15863" lon="6.19584">
        <ele>1035.6</ele>
        <time>2023-02-21T10:08:58Z</time>
      </trkpt>
      <trkpt lat="44.1587" lon="6.19573">
        <ele>1036.8</ele>
        <time>2023-02-21T10:09:04Z</time>
      </trkpt>
      <trkpt lat="44.15872" lon="6.19569">
        <ele>1037.2</ele>
        <time>2023-02-21T10:09:06Z</time>
      </trkpt>
      <trkpt lat="44.15877" lon="6.19563">
        <ele>1037.8</ele>
        <time>2023-02-21T10:09:09Z</time>
      </trkpt>
      <trkpt lat="44.15882" lon="6.19554">
        <ele>1039</ele>
        <time>2023-02-21T10:09:14Z</time>
      </trkpt>
      <trkpt lat="44.15884" lon="6.19551">
        <ele>1039.4</ele>
        <time>2023-02-21T10:09:16Z</time>
      </trkpt>
      <trkpt lat="44.15887" lon="6.19546">
        <ele>1040</ele>
        <time>2023-02-21T10:09:19Z</time>
      </trkpt>
      <trkpt lat="44.15894" lon="6.19537">
        <ele>1041.2</ele>
        <time>2023-02-21T10:09:24Z</time>
      </trkpt>
      <trkpt lat="44.15897" lon="6.19533">
        <ele>1041.6</ele>
        <time>2023-02-21T10:09:26Z</time>
      </trkpt>
      <trkpt lat="44.15902" lon="6.1953">
        <ele>1042.2</ele>
        <time>2023-02-21T10:09:29Z</time>
      </trkpt>
      <trkpt lat="44.15909" lon="6.19523">
        <ele>1043</ele>
        <time>2023-02-21T10:09:33Z</time>
      </trkpt>
      <trkpt lat="44.1591" lon="6.19522">
        <ele>1043.4</ele>
        <time>2023-02-21T10:09:34Z</time>
      </trkpt>
      <trkpt lat="44.15913" lon="6.19519">
        <ele>1043.8</ele>
        <time>2023-02-21T10:09:36Z</time>
      </trkpt>
      <trkpt lat="44.15919" lon="6.19507">
        <ele>1044.4</ele>
        <time>2023-02-21T10:09:42Z</time>
      </trkpt>
      <trkpt lat="44.15923" lon="6.19501">
        <ele>1045.4</ele>
        <time>2023-02-21T10:09:46Z</time>
      </trkpt>
      <trkpt lat="44.15923" lon="6.19499">
        <ele>1045.6</ele>
        <time>2023-02-21T10:09:47Z</time>
      </trkpt>
      <trkpt lat="44.15931" lon="6.19488">
        <ele>1046.6</ele>
        <time>2023-02-21T10:09:53Z</time>
      </trkpt>
      <trkpt lat="44.15935" lon="6.19482">
        <ele>1047.2</ele>
        <time>2023-02-21T10:09:56Z</time>
      </trkpt>
      <trkpt lat="44.15938" lon="6.19478">
        <ele>1047.6</ele>
        <time>2023-02-21T10:09:58Z</time>
      </trkpt>
      <trkpt lat="44.15944" lon="6.19467">
        <ele>1048.8</ele>
        <time>2023-02-21T10:10:03Z</time>
      </trkpt>
      <trkpt lat="44.15948" lon="6.19462">
        <ele>1049</ele>
        <time>2023-02-21T10:10:06Z</time>
      </trkpt>
      <trkpt lat="44.15951" lon="6.19453">
        <ele>1049.8</ele>
        <time>2023-02-21T10:10:10Z</time>
      </trkpt>
      <trkpt lat="44.15955" lon="6.19443">
        <ele>1050.6</ele>
        <time>2023-02-21T10:10:16Z</time>
      </trkpt>
      <trkpt lat="44.15956" lon="6.19437">
        <ele>1051</ele>
        <time>2023-02-21T10:10:19Z</time>
      </trkpt>
      <trkpt lat="44.15959" lon="6.19428">
        <ele>1052.2</ele>
        <time>2023-02-21T10:10:25Z</time>
      </trkpt>
      <trkpt lat="44.15959" lon="6.19427">
        <ele>1052.2</ele>
        <time>2023-02-21T10:10:26Z</time>
      </trkpt>
      <trkpt lat="44.15959" lon="6.19425">
        <ele>1052.4</ele>
        <time>2023-02-21T10:10:27Z</time>
      </trkpt>
      <trkpt lat="44.15958" lon="6.19419">
        <ele>1053.4</ele>
        <time>2023-02-21T10:10:31Z</time>
      </trkpt>
      <trkpt lat="44.15959" lon="6.19413">
        <ele>1053.8</ele>
        <time>2023-02-21T10:10:34Z</time>
      </trkpt>
      <trkpt lat="44.1596" lon="6.19408">
        <ele>1054</ele>
        <time>2023-02-21T10:10:36Z</time>
      </trkpt>
      <trkpt lat="44.1596" lon="6.19403">
        <ele>1054.2</ele>
        <time>2023-02-21T10:10:38Z</time>
      </trkpt>
      <trkpt lat="44.1596" lon="6.19399">
        <ele>1054.4</ele>
        <time>2023-02-21T10:10:40Z</time>
      </trkpt>
      <trkpt lat="44.15961" lon="6.1939">
        <ele>1055.6</ele>
        <time>2023-02-21T10:10:44Z</time>
      </trkpt>
      <trkpt lat="44.15961" lon="6.19387">
        <ele>1056</ele>
        <time>2023-02-21T10:10:46Z</time>
      </trkpt>
      <trkpt lat="44.15962" lon="6.19384">
        <ele>1056.2</ele>
        <time>2023-02-21T10:10:47Z</time>
      </trkpt>
      <trkpt lat="44.15962" lon="6.19379">
        <ele>1056.4</ele>
        <time>2023-02-21T10:10:49Z</time>
      </trkpt>
      <trkpt lat="44.15963" lon="6.19376">
        <ele>1056.6</ele>
        <time>2023-02-21T10:10:50Z</time>
      </trkpt>
      <trkpt lat="44.15966" lon="6.19366">
        <ele>1057.6</ele>
        <time>2023-02-21T10:10:55Z</time>
      </trkpt>
      <trkpt lat="44.15967" lon="6.19364">
        <ele>1057.8</ele>
        <time>2023-02-21T10:10:56Z</time>
      </trkpt>
      <trkpt lat="44.1597" lon="6.1936">
        <ele>1058.4</ele>
        <time>2023-02-21T10:10:58Z</time>
      </trkpt>
      <trkpt lat="44.1597" lon="6.19358">
        <ele>1058.6</ele>
        <time>2023-02-21T10:10:59Z</time>
      </trkpt>
      <trkpt lat="44.15971" lon="6.19356">
        <ele>1058.8</ele>
        <time>2023-02-21T10:11:00Z</time>
      </trkpt>
      <trkpt lat="44.15975" lon="6.19348">
        <ele>1059.8</ele>
        <time>2023-02-21T10:11:04Z</time>
      </trkpt>
      <trkpt lat="44.15979" lon="6.19344">
        <ele>1060.2</ele>
        <time>2023-02-21T10:11:06Z</time>
      </trkpt>
      <trkpt lat="44.15982" lon="6.19338">
        <ele>1060.8</ele>
        <time>2023-02-21T10:11:09Z</time>
      </trkpt>
      <trkpt lat="44.15986" lon="6.19326">
        <ele>1061.8</ele>
        <time>2023-02-21T10:11:15Z</time>
      </trkpt>
      <trkpt lat="44.15987" lon="6.19324">
        <ele>1062</ele>
        <time>2023-02-21T10:11:16Z</time>
      </trkpt>
      <trkpt lat="44.15987" lon="6.19322">
        <ele>1062.2</ele>
        <time>2023-02-21T10:11:17Z</time>
      </trkpt>
      <trkpt lat="44.15989" lon="6.19319">
        <ele>1062.4</ele>
        <time>2023-02-21T10:11:19Z</time>
      </trkpt>
      <trkpt lat="44.15991" lon="6.19314">
        <ele>1063</ele>
        <time>2023-02-21T10:11:22Z</time>
      </trkpt>
      <trkpt lat="44.15996" lon="6.19306">
        <ele>1063.8</ele>
        <time>2023-02-21T10:11:26Z</time>
      </trkpt>
      <trkpt lat="44.15998" lon="6.19305">
        <ele>1064</ele>
        <time>2023-02-21T10:11:27Z</time>
      </trkpt>
      <trkpt lat="44.15999" lon="6.19303">
        <ele>1064</ele>
        <time>2023-02-21T10:11:28Z</time>
      </trkpt>
      <trkpt lat="44.16009" lon="6.19288">
        <ele>1065.2</ele>
        <time>2023-02-21T10:11:35Z</time>
      </trkpt>
      <trkpt lat="44.16011" lon="6.19286">
        <ele>1065.4</ele>
        <time>2023-02-21T10:11:36Z</time>
      </trkpt>
      <trkpt lat="44.16015" lon="6.19273">
        <ele>1066.2</ele>
        <time>2023-02-21T10:11:41Z</time>
      </trkpt>
      <trkpt lat="44.16016" lon="6.19269">
        <ele>1066.6</ele>
        <time>2023-02-21T10:11:43Z</time>
      </trkpt>
      <trkpt lat="44.16018" lon="6.19262">
        <ele>1067</ele>
        <time>2023-02-21T10:11:46Z</time>
      </trkpt>
      <trkpt lat="44.16018" lon="6.19258">
        <ele>1067.4</ele>
        <time>2023-02-21T10:11:48Z</time>
      </trkpt>
      <trkpt lat="44.16019" lon="6.19255">
        <ele>1067.8</ele>
        <time>2023-02-21T10:11:50Z</time>
      </trkpt>
      <trkpt lat="44.1602" lon="6.19244">
        <ele>1068.6</ele>
        <time>2023-02-21T10:11:55Z</time>
      </trkpt>
      <trkpt lat="44.1602" lon="6.19242">
        <ele>1068.8</ele>
        <time>2023-02-21T10:11:56Z</time>
      </trkpt>
      <trkpt lat="44.1602" lon="6.1924">
        <ele>1069</ele>
        <time>2023-02-21T10:11:57Z</time>
      </trkpt>
      <trkpt lat="44.16019" lon="6.19233">
        <ele>1069.8</ele>
        <time>2023-02-21T10:12:00Z</time>
      </trkpt>
      <trkpt lat="44.16017" lon="6.19227">
        <ele>1070.4</ele>
        <time>2023-02-21T10:12:03Z</time>
      </trkpt>
      <trkpt lat="44.16014" lon="6.19224">
        <ele>1070.8</ele>
        <time>2023-02-21T10:12:06Z</time>
      </trkpt>
      <trkpt lat="44.16004" lon="6.1922">
        <ele>1071.8</ele>
        <time>2023-02-21T10:12:13Z</time>
      </trkpt>
      <trkpt lat="44.15999" lon="6.19218">
        <ele>1072.4</ele>
        <time>2023-02-21T10:12:16Z</time>
      </trkpt>
      <trkpt lat="44.15992" lon="6.19218">
        <ele>1073</ele>
        <time>2023-02-21T10:12:20Z</time>
      </trkpt>
      <trkpt lat="44.15988" lon="6.19218">
        <ele>1073.4</ele>
        <time>2023-02-21T10:12:23Z</time>
      </trkpt>
      <trkpt lat="44.15984" lon="6.19217">
        <ele>1073.8</ele>
        <time>2023-02-21T10:12:26Z</time>
      </trkpt>
      <trkpt lat="44.15981" lon="6.19215">
        <ele>1074.2</ele>
        <time>2023-02-21T10:12:28Z</time>
      </trkpt>
      <trkpt lat="44.15973" lon="6.19212">
        <ele>1075.2</ele>
        <time>2023-02-21T10:12:33Z</time>
      </trkpt>
      <trkpt lat="44.15969" lon="6.1921">
        <ele>1075.6</ele>
        <time>2023-02-21T10:12:36Z</time>
      </trkpt>
      <trkpt lat="44.15963" lon="6.19207">
        <ele>1076.4</ele>
        <time>2023-02-21T10:12:40Z</time>
      </trkpt>
      <trkpt lat="44.15961" lon="6.19207">
        <ele>1076.4</ele>
        <time>2023-02-21T10:12:41Z</time>
      </trkpt>
      <trkpt lat="44.15953" lon="6.19203">
        <ele>1077.2</ele>
        <time>2023-02-21T10:12:46Z</time>
      </trkpt>
      <trkpt lat="44.15952" lon="6.19202">
        <ele>1077.4</ele>
        <time>2023-02-21T10:12:47Z</time>
      </trkpt>
      <trkpt lat="44.15947" lon="6.19198">
        <ele>1078.2</ele>
        <time>2023-02-21T10:12:51Z</time>
      </trkpt>
      <trkpt lat="44.15944" lon="6.19195">
        <ele>1078.6</ele>
        <time>2023-02-21T10:12:53Z</time>
      </trkpt>
      <trkpt lat="44.1594" lon="6.1919">
        <ele>1079.4</ele>
        <time>2023-02-21T10:12:56Z</time>
      </trkpt>
      <trkpt lat="44.15939" lon="6.19189">
        <ele>1079.6</ele>
        <time>2023-02-21T10:12:57Z</time>
      </trkpt>
      <trkpt lat="44.15935" lon="6.19186">
        <ele>1080.2</ele>
        <time>2023-02-21T10:13:00Z</time>
      </trkpt>
      <trkpt lat="44.15932" lon="6.19184">
        <ele>1080.6</ele>
        <time>2023-02-21T10:13:02Z</time>
      </trkpt>
      <trkpt lat="44.15926" lon="6.19178">
        <ele>1081.4</ele>
        <time>2023-02-21T10:13:06Z</time>
      </trkpt>
      <trkpt lat="44.15923" lon="6.19175">
        <ele>1081.8</ele>
        <time>2023-02-21T10:13:08Z</time>
      </trkpt>
      <trkpt lat="44.15921" lon="6.19173">
        <ele>1082.2</ele>
        <time>2023-02-21T10:13:10Z</time>
      </trkpt>
      <trkpt lat="44.15919" lon="6.19171">
        <ele>1082.8</ele>
        <time>2023-02-21T10:13:12Z</time>
      </trkpt>
      <trkpt lat="44.15918" lon="6.19171">
        <ele>1083.2</ele>
        <time>2023-02-21T10:13:13Z</time>
      </trkpt>
      <trkpt lat="44.15917" lon="6.19172">
        <ele>1083.6</ele>
        <time>2023-02-21T10:13:15Z</time>
      </trkpt>
      <trkpt lat="44.15916" lon="6.19174">
        <ele>1083.8</ele>
        <time>2023-02-21T10:13:16Z</time>
      </trkpt>
      <trkpt lat="44.15916" lon="6.19176">
        <ele>1083.8</ele>
        <time>2023-02-21T10:13:17Z</time>
      </trkpt>
      <trkpt lat="44.15916" lon="6.19178">
        <ele>1084</ele>
        <time>2023-02-21T10:13:18Z</time>
      </trkpt>
      <trkpt lat="44.15923" lon="6.1919">
        <ele>1084.4</ele>
        <time>2023-02-21T10:13:26Z</time>
      </trkpt>
      <trkpt lat="44.15927" lon="6.19198">
        <ele>1085</ele>
        <time>2023-02-21T10:13:31Z</time>
      </trkpt>
      <trkpt lat="44.15932" lon="6.19205">
        <ele>1085.6</ele>
        <time>2023-02-21T10:13:36Z</time>
      </trkpt>
      <trkpt lat="44.15937" lon="6.19213">
        <ele>1086</ele>
        <time>2023-02-21T10:13:41Z</time>
      </trkpt>
      <trkpt lat="44.15943" lon="6.19221">
        <ele>1086.6</ele>
        <time>2023-02-21T10:13:46Z</time>
      </trkpt>
      <trkpt lat="44.15953" lon="6.19231">
        <ele>1087.2</ele>
        <time>2023-02-21T10:13:53Z</time>
      </trkpt>
      <trkpt lat="44.15958" lon="6.19235">
        <ele>1087.4</ele>
        <time>2023-02-21T10:13:56Z</time>
      </trkpt>
      <trkpt lat="44.15964" lon="6.19243">
        <ele>1088</ele>
        <time>2023-02-21T10:14:01Z</time>
      </trkpt>
      <trkpt lat="44.15966" lon="6.1925">
        <ele>1088.2</ele>
        <time>2023-02-21T10:14:04Z</time>
      </trkpt>
      <trkpt lat="44.15967" lon="6.19254">
        <ele>1088.4</ele>
        <time>2023-02-21T10:14:06Z</time>
      </trkpt>
      <trkpt lat="44.15966" lon="6.19275">
        <ele>1089</ele>
        <time>2023-02-21T10:14:16Z</time>
      </trkpt>
      <trkpt lat="44.15961" lon="6.19287">
        <ele>1089.4</ele>
        <time>2023-02-21T10:14:23Z</time>
      </trkpt>
      <trkpt lat="44.15958" lon="6.19291">
        <ele>1089.4</ele>
        <time>2023-02-21T10:14:26Z</time>
      </trkpt>
      <trkpt lat="44.15952" lon="6.19302">
        <ele>1089.8</ele>
        <time>2023-02-21T10:14:34Z</time>
      </trkpt>
      <trkpt lat="44.1595" lon="6.19304">
        <ele>1090</ele>
        <time>2023-02-21T10:14:36Z</time>
      </trkpt>
      <trkpt lat="44.15944" lon="6.19316">
        <ele>1090.4</ele>
        <time>2023-02-21T10:14:42Z</time>
      </trkpt>
      <trkpt lat="44.1594" lon="6.19324">
        <ele>1090.4</ele>
        <time>2023-02-21T10:14:46Z</time>
      </trkpt>
      <trkpt lat="44.15929" lon="6.19342">
        <ele>1091</ele>
        <time>2023-02-21T10:14:56Z</time>
      </trkpt>
      <trkpt lat="44.15925" lon="6.1935">
        <ele>1091.4</ele>
        <time>2023-02-21T10:15:00Z</time>
      </trkpt>
      <trkpt lat="44.15919" lon="6.19363">
        <ele>1092.2</ele>
        <time>2023-02-21T10:15:06Z</time>
      </trkpt>
      <trkpt lat="44.15918" lon="6.1937">
        <ele>1092.4</ele>
        <time>2023-02-21T10:15:10Z</time>
      </trkpt>
      <trkpt lat="44.15913" lon="6.19376">
        <ele>1093</ele>
        <time>2023-02-21T10:15:15Z</time>
      </trkpt>
      <trkpt lat="44.15912" lon="6.19378">
        <ele>1093.2</ele>
        <time>2023-02-21T10:15:16Z</time>
      </trkpt>
      <trkpt lat="44.15908" lon="6.19387">
        <ele>1093.4</ele>
        <time>2023-02-21T10:15:21Z</time>
      </trkpt>
      <trkpt lat="44.15907" lon="6.1939">
        <ele>1093.4</ele>
        <time>2023-02-21T10:15:22Z</time>
      </trkpt>
      <trkpt lat="44.15903" lon="6.19395">
        <ele>1093.8</ele>
        <time>2023-02-21T10:15:26Z</time>
      </trkpt>
      <trkpt lat="44.159" lon="6.19399">
        <ele>1094.2</ele>
        <time>2023-02-21T10:15:29Z</time>
      </trkpt>
      <trkpt lat="44.15898" lon="6.194">
        <ele>1094.2</ele>
        <time>2023-02-21T10:15:30Z</time>
      </trkpt>
      <trkpt lat="44.15894" lon="6.19402">
        <ele>1094.6</ele>
        <time>2023-02-21T10:15:33Z</time>
      </trkpt>
      <trkpt lat="44.1589" lon="6.19402">
        <ele>1094.8</ele>
        <time>2023-02-21T10:15:36Z</time>
      </trkpt>
      <trkpt lat="44.15881" lon="6.19404">
        <ele>1095.6</ele>
        <time>2023-02-21T10:15:42Z</time>
      </trkpt>
      <trkpt lat="44.15876" lon="6.19407">
        <ele>1095.8</ele>
        <time>2023-02-21T10:15:46Z</time>
      </trkpt>
      <trkpt lat="44.15864" lon="6.19414">
        <ele>1096.6</ele>
        <time>2023-02-21T10:15:53Z</time>
      </trkpt>
      <trkpt lat="44.15858" lon="6.19416">
        <ele>1097</ele>
        <time>2023-02-21T10:15:56Z</time>
      </trkpt>
      <trkpt lat="44.15846" lon="6.19421">
        <ele>1097.8</ele>
        <time>2023-02-21T10:16:02Z</time>
      </trkpt>
      <trkpt lat="44.15837" lon="6.19423">
        <ele>1098.2</ele>
        <time>2023-02-21T10:16:06Z</time>
      </trkpt>
      <trkpt lat="44.15825" lon="6.19421">
        <ele>1098.8</ele>
        <time>2023-02-21T10:16:11Z</time>
      </trkpt>
      <trkpt lat="44.15816" lon="6.19418">
        <ele>1099.4</ele>
        <time>2023-02-21T10:16:16Z</time>
      </trkpt>
      <trkpt lat="44.1581" lon="6.19414">
        <ele>1099.8</ele>
        <time>2023-02-21T10:16:19Z</time>
      </trkpt>
      <trkpt lat="44.158" lon="6.1941">
        <ele>1100.2</ele>
        <time>2023-02-21T10:16:23Z</time>
      </trkpt>
      <trkpt lat="44.15794" lon="6.19403">
        <ele>1100.4</ele>
        <time>2023-02-21T10:16:26Z</time>
      </trkpt>
      <trkpt lat="44.15788" lon="6.19388">
        <ele>1100.8</ele>
        <time>2023-02-21T10:16:31Z</time>
      </trkpt>
      <trkpt lat="44.15788" lon="6.19369">
        <ele>1100.6</ele>
        <time>2023-02-21T10:16:36Z</time>
      </trkpt>
      <trkpt lat="44.1579" lon="6.19321">
        <ele>1100.4</ele>
        <time>2023-02-21T10:16:46Z</time>
      </trkpt>
      <trkpt lat="44.1579" lon="6.19308">
        <ele>1099.8</ele>
        <time>2023-02-21T10:16:48Z</time>
      </trkpt>
      <trkpt lat="44.15787" lon="6.19294">
        <ele>1098.8</ele>
        <time>2023-02-21T10:16:50Z</time>
      </trkpt>
      <trkpt lat="44.1578" lon="6.19284">
        <ele>1097.6</ele>
        <time>2023-02-21T10:16:52Z</time>
      </trkpt>
      <trkpt lat="44.15768" lon="6.19279">
        <ele>1096.4</ele>
        <time>2023-02-21T10:16:54Z</time>
      </trkpt>
      <trkpt lat="44.15763" lon="6.19275">
        <ele>1096</ele>
        <time>2023-02-21T10:16:55Z</time>
      </trkpt>
      <trkpt lat="44.15758" lon="6.1927">
        <ele>1095.6</ele>
        <time>2023-02-21T10:16:56Z</time>
      </trkpt>
      <trkpt lat="44.15752" lon="6.19266">
        <ele>1095.2</ele>
        <time>2023-02-21T10:16:57Z</time>
      </trkpt>
      <trkpt lat="44.15741" lon="6.19258">
        <ele>1094.6</ele>
        <time>2023-02-21T10:16:59Z</time>
      </trkpt>
      <trkpt lat="44.15729" lon="6.19255">
        <ele>1094</ele>
        <time>2023-02-21T10:17:01Z</time>
      </trkpt>
      <trkpt lat="44.15715" lon="6.19253">
        <ele>1092.8</ele>
        <time>2023-02-21T10:17:03Z</time>
      </trkpt>
      <trkpt lat="44.15701" lon="6.19252">
        <ele>1091.2</ele>
        <time>2023-02-21T10:17:05Z</time>
      </trkpt>
      <trkpt lat="44.15695" lon="6.1925">
        <ele>1091</ele>
        <time>2023-02-21T10:17:06Z</time>
      </trkpt>
      <trkpt lat="44.15684" lon="6.19243">
        <ele>1090.4</ele>
        <time>2023-02-21T10:17:08Z</time>
      </trkpt>
      <trkpt lat="44.15677" lon="6.19239">
        <ele>1090</ele>
        <time>2023-02-21T10:17:09Z</time>
      </trkpt>
      <trkpt lat="44.15653" lon="6.19221">
        <ele>1088.6</ele>
        <time>2023-02-21T10:17:13Z</time>
      </trkpt>
      <trkpt lat="44.15635" lon="6.19207">
        <ele>1087.8</ele>
        <time>2023-02-21T10:17:16Z</time>
      </trkpt>
      <trkpt lat="44.15631" lon="6.19202">
        <ele>1087.4</ele>
        <time>2023-02-21T10:17:17Z</time>
      </trkpt>
      <trkpt lat="44.15626" lon="6.19195">
        <ele>1086.8</ele>
        <time>2023-02-21T10:17:18Z</time>
      </trkpt>
      <trkpt lat="44.15622" lon="6.19188">
        <ele>1086.2</ele>
        <time>2023-02-21T10:17:19Z</time>
      </trkpt>
      <trkpt lat="44.15619" lon="6.1918">
        <ele>1085.8</ele>
        <time>2023-02-21T10:17:20Z</time>
      </trkpt>
      <trkpt lat="44.15615" lon="6.19163">
        <ele>1085.2</ele>
        <time>2023-02-21T10:17:22Z</time>
      </trkpt>
      <trkpt lat="44.15607" lon="6.19137">
        <ele>1084.2</ele>
        <time>2023-02-21T10:17:25Z</time>
      </trkpt>
      <trkpt lat="44.15603" lon="6.1913">
        <ele>1083.8</ele>
        <time>2023-02-21T10:17:26Z</time>
      </trkpt>
      <trkpt lat="44.15597" lon="6.19126">
        <ele>1083.6</ele>
        <time>2023-02-21T10:17:27Z</time>
      </trkpt>
      <trkpt lat="44.1559" lon="6.19123">
        <ele>1083</ele>
        <time>2023-02-21T10:17:28Z</time>
      </trkpt>
      <trkpt lat="44.15583" lon="6.19126">
        <ele>1082.6</ele>
        <time>2023-02-21T10:17:29Z</time>
      </trkpt>
      <trkpt lat="44.15572" lon="6.19134">
        <ele>1081.8</ele>
        <time>2023-02-21T10:17:31Z</time>
      </trkpt>
      <trkpt lat="44.15561" lon="6.19143">
        <ele>1081</ele>
        <time>2023-02-21T10:17:33Z</time>
      </trkpt>
      <trkpt lat="44.15556" lon="6.19144">
        <ele>1080.4</ele>
        <time>2023-02-21T10:17:34Z</time>
      </trkpt>
      <trkpt lat="44.1555" lon="6.19145">
        <ele>1080.2</ele>
        <time>2023-02-21T10:17:35Z</time>
      </trkpt>
      <trkpt lat="44.15545" lon="6.19144">
        <ele>1079.8</ele>
        <time>2023-02-21T10:17:36Z</time>
      </trkpt>
      <trkpt lat="44.15539" lon="6.19141">
        <ele>1079.2</ele>
        <time>2023-02-21T10:17:37Z</time>
      </trkpt>
      <trkpt lat="44.15522" lon="6.19128">
        <ele>1078</ele>
        <time>2023-02-21T10:17:40Z</time>
      </trkpt>
      <trkpt lat="44.15512" lon="6.19118">
        <ele>1077.2</ele>
        <time>2023-02-21T10:17:42Z</time>
      </trkpt>
      <trkpt lat="44.15505" lon="6.19114">
        <ele>1076.4</ele>
        <time>2023-02-21T10:17:43Z</time>
      </trkpt>
      <trkpt lat="44.15498" lon="6.19114">
        <ele>1075.4</ele>
        <time>2023-02-21T10:17:44Z</time>
      </trkpt>
      <trkpt lat="44.15487" lon="6.19121">
        <ele>1073.8</ele>
        <time>2023-02-21T10:17:46Z</time>
      </trkpt>
      <trkpt lat="44.15476" lon="6.19128">
        <ele>1072.4</ele>
        <time>2023-02-21T10:17:48Z</time>
      </trkpt>
      <trkpt lat="44.15473" lon="6.19131">
        <ele>1072</ele>
        <time>2023-02-21T10:17:49Z</time>
      </trkpt>
      <trkpt lat="44.15465" lon="6.19147">
        <ele>1071</ele>
        <time>2023-02-21T10:17:51Z</time>
      </trkpt>
      <trkpt lat="44.15458" lon="6.19169">
        <ele>1070</ele>
        <time>2023-02-21T10:17:54Z</time>
      </trkpt>
      <trkpt lat="44.15456" lon="6.19175">
        <ele>1070</ele>
        <time>2023-02-21T10:17:55Z</time>
      </trkpt>
      <trkpt lat="44.15454" lon="6.19181">
        <ele>1069.8</ele>
        <time>2023-02-21T10:17:56Z</time>
      </trkpt>
      <trkpt lat="44.15452" lon="6.19219">
        <ele>1068.8</ele>
        <time>2023-02-21T10:18:03Z</time>
      </trkpt>
      <trkpt lat="44.15456" lon="6.19233">
        <ele>1068.4</ele>
        <time>2023-02-21T10:18:05Z</time>
      </trkpt>
      <trkpt lat="44.15459" lon="6.1924">
        <ele>1068.2</ele>
        <time>2023-02-21T10:18:06Z</time>
      </trkpt>
      <trkpt lat="44.15464" lon="6.19254">
        <ele>1067.6</ele>
        <time>2023-02-21T10:18:08Z</time>
      </trkpt>
      <trkpt lat="44.15471" lon="6.19277">
        <ele>1066.6</ele>
        <time>2023-02-21T10:18:11Z</time>
      </trkpt>
      <trkpt lat="44.15474" lon="6.19294">
        <ele>1065.4</ele>
        <time>2023-02-21T10:18:13Z</time>
      </trkpt>
      <trkpt lat="44.15476" lon="6.19311">
        <ele>1064.2</ele>
        <time>2023-02-21T10:18:15Z</time>
      </trkpt>
      <trkpt lat="44.1548" lon="6.19318">
        <ele>1063.6</ele>
        <time>2023-02-21T10:18:16Z</time>
      </trkpt>
      <trkpt lat="44.15482" lon="6.19327">
        <ele>1063.2</ele>
        <time>2023-02-21T10:18:17Z</time>
      </trkpt>
      <trkpt lat="44.15485" lon="6.19345">
        <ele>1062</ele>
        <time>2023-02-21T10:18:19Z</time>
      </trkpt>
      <trkpt lat="44.15488" lon="6.19363">
        <ele>1061</ele>
        <time>2023-02-21T10:18:21Z</time>
      </trkpt>
      <trkpt lat="44.1549" lon="6.19372">
        <ele>1060.2</ele>
        <time>2023-02-21T10:18:22Z</time>
      </trkpt>
      <trkpt lat="44.1549" lon="6.19382">
        <ele>1059.6</ele>
        <time>2023-02-21T10:18:23Z</time>
      </trkpt>
      <trkpt lat="44.15488" lon="6.19391">
        <ele>1059</ele>
        <time>2023-02-21T10:18:24Z</time>
      </trkpt>
      <trkpt lat="44.15486" lon="6.194">
        <ele>1058.4</ele>
        <time>2023-02-21T10:18:25Z</time>
      </trkpt>
      <trkpt lat="44.15482" lon="6.19409">
        <ele>1057.8</ele>
        <time>2023-02-21T10:18:26Z</time>
      </trkpt>
      <trkpt lat="44.15478" lon="6.19418">
        <ele>1057</ele>
        <time>2023-02-21T10:18:27Z</time>
      </trkpt>
      <trkpt lat="44.15472" lon="6.19425">
        <ele>1056.4</ele>
        <time>2023-02-21T10:18:28Z</time>
      </trkpt>
      <trkpt lat="44.15467" lon="6.19432">
        <ele>1056</ele>
        <time>2023-02-21T10:18:29Z</time>
      </trkpt>
      <trkpt lat="44.15454" lon="6.19443">
        <ele>1054.6</ele>
        <time>2023-02-21T10:18:31Z</time>
      </trkpt>
      <trkpt lat="44.15435" lon="6.19459">
        <ele>1053.6</ele>
        <time>2023-02-21T10:18:34Z</time>
      </trkpt>
      <trkpt lat="44.15425" lon="6.1947">
        <ele>1053.2</ele>
        <time>2023-02-21T10:18:36Z</time>
      </trkpt>
      <trkpt lat="44.15415" lon="6.19482">
        <ele>1052.4</ele>
        <time>2023-02-21T10:18:38Z</time>
      </trkpt>
      <trkpt lat="44.15397" lon="6.1951">
        <ele>1051.4</ele>
        <time>2023-02-21T10:18:42Z</time>
      </trkpt>
      <trkpt lat="44.1539" lon="6.19525">
        <ele>1050.8</ele>
        <time>2023-02-21T10:18:44Z</time>
      </trkpt>
      <trkpt lat="44.15388" lon="6.1954">
        <ele>1050.8</ele>
        <time>2023-02-21T10:18:46Z</time>
      </trkpt>
      <trkpt lat="44.15393" lon="6.19568">
        <ele>1052.8</ele>
        <time>2023-02-21T10:18:51Z</time>
      </trkpt>
      <trkpt lat="44.15392" lon="6.19583">
        <ele>1054</ele>
        <time>2023-02-21T10:18:54Z</time>
      </trkpt>
      <trkpt lat="44.1539" lon="6.19591">
        <ele>1054.2</ele>
        <time>2023-02-21T10:18:56Z</time>
      </trkpt>
      <trkpt lat="44.15387" lon="6.19593">
        <ele>1054.4</ele>
        <time>2023-02-21T10:18:57Z</time>
      </trkpt>
      <trkpt lat="44.15376" lon="6.19591">
        <ele>1055</ele>
        <time>2023-02-21T10:19:02Z</time>
      </trkpt>
      <trkpt lat="44.15368" lon="6.19583">
        <ele>1055.4</ele>
        <time>2023-02-21T10:19:06Z</time>
      </trkpt>
      <trkpt lat="44.15359" lon="6.19572">
        <ele>1056</ele>
        <time>2023-02-21T10:19:11Z</time>
      </trkpt>
      <trkpt lat="44.15351" lon="6.1956">
        <ele>1056.6</ele>
        <time>2023-02-21T10:19:16Z</time>
      </trkpt>
      <trkpt lat="44.15346" lon="6.19553">
        <ele>1057</ele>
        <time>2023-02-21T10:19:19Z</time>
      </trkpt>
      <trkpt lat="44.15335" lon="6.19533">
        <ele>1057.8</ele>
        <time>2023-02-21T10:19:26Z</time>
      </trkpt>
      <trkpt lat="44.15329" lon="6.19523">
        <ele>1058.2</ele>
        <time>2023-02-21T10:19:30Z</time>
      </trkpt>
      <trkpt lat="44.1532" lon="6.19508">
        <ele>1058.8</ele>
        <time>2023-02-21T10:19:36Z</time>
      </trkpt>
      <trkpt lat="44.15305" lon="6.19502">
        <ele>1059.4</ele>
        <time>2023-02-21T10:19:44Z</time>
      </trkpt>
      <trkpt lat="44.15301" lon="6.19502">
        <ele>1060</ele>
        <time>2023-02-21T10:19:46Z</time>
      </trkpt>
      <trkpt lat="44.15292" lon="6.19505">
        <ele>1060.4</ele>
        <time>2023-02-21T10:19:50Z</time>
      </trkpt>
      <trkpt lat="44.15283" lon="6.19505">
        <ele>1060.8</ele>
        <time>2023-02-21T10:19:56Z</time>
      </trkpt>
      <trkpt lat="44.15281" lon="6.19505">
        <ele>1060.8</ele>
        <time>2023-02-21T10:19:58Z</time>
      </trkpt>
      <trkpt lat="44.15279" lon="6.19504">
        <ele>1061</ele>
        <time>2023-02-21T10:20:00Z</time>
      </trkpt>
      <trkpt lat="44.15272" lon="6.19509">
        <ele>1061.4</ele>
        <time>2023-02-21T10:20:04Z</time>
      </trkpt>
      <trkpt lat="44.1527" lon="6.19514">
        <ele>1061.6</ele>
        <time>2023-02-21T10:20:06Z</time>
      </trkpt>
      <trkpt lat="44.15268" lon="6.19521">
        <ele>1062.4</ele>
        <time>2023-02-21T10:20:09Z</time>
      </trkpt>
      <trkpt lat="44.15267" lon="6.19538">
        <ele>1063.4</ele>
        <time>2023-02-21T10:20:15Z</time>
      </trkpt>
      <trkpt lat="44.15266" lon="6.19541">
        <ele>1063.6</ele>
        <time>2023-02-21T10:20:16Z</time>
      </trkpt>
      <trkpt lat="44.15262" lon="6.19566">
        <ele>1064.6</ele>
        <time>2023-02-21T10:20:24Z</time>
      </trkpt>
      <trkpt lat="44.15262" lon="6.19572">
        <ele>1064.8</ele>
        <time>2023-02-21T10:20:26Z</time>
      </trkpt>
      <trkpt lat="44.15259" lon="6.19591">
        <ele>1065.4</ele>
        <time>2023-02-21T10:20:33Z</time>
      </trkpt>
      <trkpt lat="44.15258" lon="6.19596">
        <ele>1065.8</ele>
        <time>2023-02-21T10:20:35Z</time>
      </trkpt>
      <trkpt lat="44.15258" lon="6.19599">
        <ele>1065.8</ele>
        <time>2023-02-21T10:20:36Z</time>
      </trkpt>
      <trkpt lat="44.15251" lon="6.19624">
        <ele>1066.6</ele>
        <time>2023-02-21T10:20:46Z</time>
      </trkpt>
      <trkpt lat="44.15246" lon="6.19626">
        <ele>1066.8</ele>
        <time>2023-02-21T10:20:49Z</time>
      </trkpt>
      <trkpt lat="44.15235" lon="6.19625">
        <ele>1067.8</ele>
        <time>2023-02-21T10:20:54Z</time>
      </trkpt>
      <trkpt lat="44.15231" lon="6.19623">
        <ele>1068</ele>
        <time>2023-02-21T10:20:56Z</time>
      </trkpt>
      <trkpt lat="44.15217" lon="6.19618">
        <ele>1068.8</ele>
        <time>2023-02-21T10:21:03Z</time>
      </trkpt>
      <trkpt lat="44.15211" lon="6.19614">
        <ele>1069.4</ele>
        <time>2023-02-21T10:21:06Z</time>
      </trkpt>
      <trkpt lat="44.15204" lon="6.19611">
        <ele>1070</ele>
        <time>2023-02-21T10:21:09Z</time>
      </trkpt>
      <trkpt lat="44.15191" lon="6.19606">
        <ele>1071</ele>
        <time>2023-02-21T10:21:16Z</time>
      </trkpt>
      <trkpt lat="44.15179" lon="6.1961">
        <ele>1071.8</ele>
        <time>2023-02-21T10:21:24Z</time>
      </trkpt>
      <trkpt lat="44.15176" lon="6.19614">
        <ele>1072</ele>
        <time>2023-02-21T10:21:26Z</time>
      </trkpt>
      <trkpt lat="44.15175" lon="6.19617">
        <ele>1072</ele>
        <time>2023-02-21T10:21:27Z</time>
      </trkpt>
      <trkpt lat="44.15172" lon="6.19624">
        <ele>1072.2</ele>
        <time>2023-02-21T10:21:29Z</time>
      </trkpt>
      <trkpt lat="44.15165" lon="6.19651">
        <ele>1072.6</ele>
        <time>2023-02-21T10:21:36Z</time>
      </trkpt>
      <trkpt lat="44.15163" lon="6.19661">
        <ele>1073.4</ele>
        <time>2023-02-21T10:21:40Z</time>
      </trkpt>
      <trkpt lat="44.1515" lon="6.19668">
        <ele>1074</ele>
        <time>2023-02-21T10:21:46Z</time>
      </trkpt>
      <trkpt lat="44.15146" lon="6.19667">
        <ele>1074.4</ele>
        <time>2023-02-21T10:21:48Z</time>
      </trkpt>
      <trkpt lat="44.15143" lon="6.19665">
        <ele>1074.8</ele>
        <time>2023-02-21T10:21:50Z</time>
      </trkpt>
      <trkpt lat="44.15137" lon="6.19658">
        <ele>1075.4</ele>
        <time>2023-02-21T10:21:54Z</time>
      </trkpt>
      <trkpt lat="44.15134" lon="6.19655">
        <ele>1076</ele>
        <time>2023-02-21T10:21:56Z</time>
      </trkpt>
      <trkpt lat="44.15131" lon="6.19651">
        <ele>1076.4</ele>
        <time>2023-02-21T10:21:59Z</time>
      </trkpt>
      <trkpt lat="44.15124" lon="6.19647">
        <ele>1077</ele>
        <time>2023-02-21T10:22:04Z</time>
      </trkpt>
      <trkpt lat="44.15121" lon="6.19648">
        <ele>1077.2</ele>
        <time>2023-02-21T10:22:06Z</time>
      </trkpt>
      <trkpt lat="44.15115" lon="6.19648">
        <ele>1077.6</ele>
        <time>2023-02-21T10:22:09Z</time>
      </trkpt>
      <trkpt lat="44.15105" lon="6.19658">
        <ele>1078.4</ele>
        <time>2023-02-21T10:22:16Z</time>
      </trkpt>
      <trkpt lat="44.15101" lon="6.19665">
        <ele>1078.6</ele>
        <time>2023-02-21T10:22:20Z</time>
      </trkpt>
      <trkpt lat="44.15094" lon="6.19678">
        <ele>1079</ele>
        <time>2023-02-21T10:22:26Z</time>
      </trkpt>
      <trkpt lat="44.15087" lon="6.19691">
        <ele>1079.6</ele>
        <time>2023-02-21T10:22:32Z</time>
      </trkpt>
      <trkpt lat="44.15081" lon="6.19698">
        <ele>1080.2</ele>
        <time>2023-02-21T10:22:36Z</time>
      </trkpt>
      <trkpt lat="44.15074" lon="6.19702">
        <ele>1080.6</ele>
        <time>2023-02-21T10:22:41Z</time>
      </trkpt>
      <trkpt lat="44.15066" lon="6.19705">
        <ele>1081.2</ele>
        <time>2023-02-21T10:22:46Z</time>
      </trkpt>
      <trkpt lat="44.1506" lon="6.19704">
        <ele>1081.8</ele>
        <time>2023-02-21T10:22:50Z</time>
      </trkpt>
      <trkpt lat="44.15052" lon="6.19702">
        <ele>1082.6</ele>
        <time>2023-02-21T10:22:56Z</time>
      </trkpt>
      <trkpt lat="44.15051" lon="6.19702">
        <ele>1082.8</ele>
        <time>2023-02-21T10:22:57Z</time>
      </trkpt>
      <trkpt lat="44.15047" lon="6.19703">
        <ele>1083</ele>
        <time>2023-02-21T10:23:00Z</time>
      </trkpt>
      <trkpt lat="44.15039" lon="6.19708">
        <ele>1083.2</ele>
        <time>2023-02-21T10:23:05Z</time>
      </trkpt>
      <trkpt lat="44.15038" lon="6.19709">
        <ele>1083.2</ele>
        <time>2023-02-21T10:23:06Z</time>
      </trkpt>
      <trkpt lat="44.1503" lon="6.19717">
        <ele>1083.8</ele>
        <time>2023-02-21T10:23:11Z</time>
      </trkpt>
      <trkpt lat="44.15029" lon="6.19718">
        <ele>1084</ele>
        <time>2023-02-21T10:23:12Z</time>
      </trkpt>
      <trkpt lat="44.15023" lon="6.19719">
        <ele>1084.4</ele>
        <time>2023-02-21T10:23:16Z</time>
      </trkpt>
      <trkpt lat="44.1502" lon="6.19718">
        <ele>1084.8</ele>
        <time>2023-02-21T10:23:18Z</time>
      </trkpt>
      <trkpt lat="44.15008" lon="6.19718">
        <ele>1085.8</ele>
        <time>2023-02-21T10:23:26Z</time>
      </trkpt>
      <trkpt lat="44.15006" lon="6.19719">
        <ele>1086</ele>
        <time>2023-02-21T10:23:27Z</time>
      </trkpt>
      <trkpt lat="44.14992" lon="6.19722">
        <ele>1086.6</ele>
        <time>2023-02-21T10:23:33Z</time>
      </trkpt>
      <trkpt lat="44.14989" lon="6.19726">
        <ele>1086.8</ele>
        <time>2023-02-21T10:23:35Z</time>
      </trkpt>
      <trkpt lat="44.14988" lon="6.19729">
        <ele>1087</ele>
        <time>2023-02-21T10:23:36Z</time>
      </trkpt>
      <trkpt lat="44.14988" lon="6.19732">
        <ele>1087</ele>
        <time>2023-02-21T10:23:37Z</time>
      </trkpt>
      <trkpt lat="44.14982" lon="6.19756">
        <ele>1088</ele>
        <time>2023-02-21T10:23:44Z</time>
      </trkpt>
      <trkpt lat="44.14978" lon="6.1976">
        <ele>1088.2</ele>
        <time>2023-02-21T10:23:46Z</time>
      </trkpt>
      <trkpt lat="44.14962" lon="6.1977">
        <ele>1089</ele>
        <time>2023-02-21T10:23:54Z</time>
      </trkpt>
      <trkpt lat="44.14959" lon="6.19772">
        <ele>1089.4</ele>
        <time>2023-02-21T10:23:56Z</time>
      </trkpt>
      <trkpt lat="44.14947" lon="6.19776">
        <ele>1090.2</ele>
        <time>2023-02-21T10:24:03Z</time>
      </trkpt>
      <trkpt lat="44.14942" lon="6.19777">
        <ele>1090.8</ele>
        <time>2023-02-21T10:24:06Z</time>
      </trkpt>
      <trkpt lat="44.14933" lon="6.19777">
        <ele>1091.2</ele>
        <time>2023-02-21T10:24:10Z</time>
      </trkpt>
      <trkpt lat="44.1492" lon="6.19771">
        <ele>1091.8</ele>
        <time>2023-02-21T10:24:16Z</time>
      </trkpt>
      <trkpt lat="44.14913" lon="6.1977">
        <ele>1092.2</ele>
        <time>2023-02-21T10:24:20Z</time>
      </trkpt>
      <trkpt lat="44.14906" lon="6.19771">
        <ele>1093.4</ele>
        <time>2023-02-21T10:24:25Z</time>
      </trkpt>
      <trkpt lat="44.14905" lon="6.19772">
        <ele>1093.4</ele>
        <time>2023-02-21T10:24:26Z</time>
      </trkpt>
      <trkpt lat="44.14902" lon="6.19772">
        <ele>1093.6</ele>
        <time>2023-02-21T10:24:28Z</time>
      </trkpt>
      <trkpt lat="44.14899" lon="6.19774">
        <ele>1093.8</ele>
        <time>2023-02-21T10:24:30Z</time>
      </trkpt>
      <trkpt lat="44.14889" lon="6.19779">
        <ele>1094.4</ele>
        <time>2023-02-21T10:24:35Z</time>
      </trkpt>
      <trkpt lat="44.14887" lon="6.1978">
        <ele>1094.4</ele>
        <time>2023-02-21T10:24:36Z</time>
      </trkpt>
      <trkpt lat="44.14875" lon="6.19793">
        <ele>1095.4</ele>
        <time>2023-02-21T10:24:42Z</time>
      </trkpt>
      <trkpt lat="44.14867" lon="6.19802">
        <ele>1095.8</ele>
        <time>2023-02-21T10:24:46Z</time>
      </trkpt>
      <trkpt lat="44.14858" lon="6.19815">
        <ele>1096.6</ele>
        <time>2023-02-21T10:24:51Z</time>
      </trkpt>
      <trkpt lat="44.14849" lon="6.19827">
        <ele>1097.6</ele>
        <time>2023-02-21T10:24:56Z</time>
      </trkpt>
      <trkpt lat="44.14831" lon="6.19848">
        <ele>1098.6</ele>
        <time>2023-02-21T10:25:06Z</time>
      </trkpt>
      <trkpt lat="44.14829" lon="6.1985">
        <ele>1098.6</ele>
        <time>2023-02-21T10:25:07Z</time>
      </trkpt>
      <trkpt lat="44.1483" lon="6.19875">
        <ele>1099.4</ele>
        <time>2023-02-21T10:25:16Z</time>
      </trkpt>
      <trkpt lat="44.14831" lon="6.19877">
        <ele>1099.4</ele>
        <time>2023-02-21T10:25:17Z</time>
      </trkpt>
      <trkpt lat="44.14834" lon="6.19884">
        <ele>1099.8</ele>
        <time>2023-02-21T10:25:20Z</time>
      </trkpt>
      <trkpt lat="44.14844" lon="6.19894">
        <ele>1100.6</ele>
        <time>2023-02-21T10:25:26Z</time>
      </trkpt>
      <trkpt lat="44.14848" lon="6.19898">
        <ele>1101</ele>
        <time>2023-02-21T10:25:29Z</time>
      </trkpt>
      <trkpt lat="44.1486" lon="6.19908">
        <ele>1101.6</ele>
        <time>2023-02-21T10:25:36Z</time>
      </trkpt>
      <trkpt lat="44.14865" lon="6.19917">
        <ele>1102</ele>
        <time>2023-02-21T10:25:40Z</time>
      </trkpt>
      <trkpt lat="44.1487" lon="6.19932">
        <ele>1102.8</ele>
        <time>2023-02-21T10:25:46Z</time>
      </trkpt>
      <trkpt lat="44.1487" lon="6.19942">
        <ele>1103.2</ele>
        <time>2023-02-21T10:25:50Z</time>
      </trkpt>
      <trkpt lat="44.14867" lon="6.19957">
        <ele>1104</ele>
        <time>2023-02-21T10:25:56Z</time>
      </trkpt>
      <trkpt lat="44.14861" lon="6.19966">
        <ele>1104.2</ele>
        <time>2023-02-21T10:26:00Z</time>
      </trkpt>
      <trkpt lat="44.14855" lon="6.19971">
        <ele>1104.8</ele>
        <time>2023-02-21T10:26:04Z</time>
      </trkpt>
      <trkpt lat="44.14852" lon="6.19973">
        <ele>1105</ele>
        <time>2023-02-21T10:26:06Z</time>
      </trkpt>
      <trkpt lat="44.14851" lon="6.19974">
        <ele>1105</ele>
        <time>2023-02-21T10:26:07Z</time>
      </trkpt>
      <trkpt lat="44.14849" lon="6.19976">
        <ele>1105.2</ele>
        <time>2023-02-21T10:26:08Z</time>
      </trkpt>
      <trkpt lat="44.14847" lon="6.19978">
        <ele>1105.2</ele>
        <time>2023-02-21T10:26:09Z</time>
      </trkpt>
      <trkpt lat="44.14843" lon="6.19981">
        <ele>1105.6</ele>
        <time>2023-02-21T10:26:12Z</time>
      </trkpt>
      <trkpt lat="44.14836" lon="6.19985">
        <ele>1105.8</ele>
        <time>2023-02-21T10:26:16Z</time>
      </trkpt>
      <trkpt lat="44.1483" lon="6.19989">
        <ele>1106.4</ele>
        <time>2023-02-21T10:26:20Z</time>
      </trkpt>
      <trkpt lat="44.14821" lon="6.19996">
        <ele>1107.2</ele>
        <time>2023-02-21T10:26:26Z</time>
      </trkpt>
      <trkpt lat="44.14818" lon="6.19999">
        <ele>1107.4</ele>
        <time>2023-02-21T10:26:28Z</time>
      </trkpt>
      <trkpt lat="44.14807" lon="6.20006">
        <ele>1108.2</ele>
        <time>2023-02-21T10:26:35Z</time>
      </trkpt>
      <trkpt lat="44.14805" lon="6.20006">
        <ele>1108.4</ele>
        <time>2023-02-21T10:26:36Z</time>
      </trkpt>
      <trkpt lat="44.14803" lon="6.20008">
        <ele>1108.4</ele>
        <time>2023-02-21T10:26:37Z</time>
      </trkpt>
      <trkpt lat="44.14798" lon="6.20011">
        <ele>1109</ele>
        <time>2023-02-21T10:26:40Z</time>
      </trkpt>
      <trkpt lat="44.14791" lon="6.20018">
        <ele>1109.6</ele>
        <time>2023-02-21T10:26:44Z</time>
      </trkpt>
      <trkpt lat="44.14788" lon="6.20022">
        <ele>1109.8</ele>
        <time>2023-02-21T10:26:46Z</time>
      </trkpt>
      <trkpt lat="44.14783" lon="6.20035">
        <ele>1110.6</ele>
        <time>2023-02-21T10:26:51Z</time>
      </trkpt>
      <trkpt lat="44.14779" lon="6.20048">
        <ele>1111.4</ele>
        <time>2023-02-21T10:26:56Z</time>
      </trkpt>
      <trkpt lat="44.14775" lon="6.20055">
        <ele>1111.6</ele>
        <time>2023-02-21T10:26:59Z</time>
      </trkpt>
      <trkpt lat="44.14774" lon="6.20061">
        <ele>1111.6</ele>
        <time>2023-02-21T10:27:01Z</time>
      </trkpt>
      <trkpt lat="44.14772" lon="6.20063">
        <ele>1111.8</ele>
        <time>2023-02-21T10:27:02Z</time>
      </trkpt>
      <trkpt lat="44.14771" lon="6.20069">
        <ele>1112.2</ele>
        <time>2023-02-21T10:27:04Z</time>
      </trkpt>
      <trkpt lat="44.14769" lon="6.20075">
        <ele>1112.6</ele>
        <time>2023-02-21T10:27:06Z</time>
      </trkpt>
      <trkpt lat="44.14768" lon="6.20077">
        <ele>1112.8</ele>
        <time>2023-02-21T10:27:07Z</time>
      </trkpt>
      <trkpt lat="44.14766" lon="6.20091">
        <ele>1113.8</ele>
        <time>2023-02-21T10:27:13Z</time>
      </trkpt>
      <trkpt lat="44.14762" lon="6.20098">
        <ele>1114.2</ele>
        <time>2023-02-21T10:27:16Z</time>
      </trkpt>
      <trkpt lat="44.14758" lon="6.20106">
        <ele>1114.8</ele>
        <time>2023-02-21T10:27:21Z</time>
      </trkpt>
      <trkpt lat="44.14754" lon="6.20115">
        <ele>1115.4</ele>
        <time>2023-02-21T10:27:26Z</time>
      </trkpt>
      <trkpt lat="44.1475" lon="6.20126">
        <ele>1116</ele>
        <time>2023-02-21T10:27:31Z</time>
      </trkpt>
      <trkpt lat="44.14749" lon="6.20137">
        <ele>1116.4</ele>
        <time>2023-02-21T10:27:35Z</time>
      </trkpt>
      <trkpt lat="44.14749" lon="6.20139">
        <ele>1116.8</ele>
        <time>2023-02-21T10:27:36Z</time>
      </trkpt>
      <trkpt lat="44.14749" lon="6.20142">
        <ele>1116.8</ele>
        <time>2023-02-21T10:27:37Z</time>
      </trkpt>
      <trkpt lat="44.14748" lon="6.20145">
        <ele>1117</ele>
        <time>2023-02-21T10:27:38Z</time>
      </trkpt>
      <trkpt lat="44.14747" lon="6.20165">
        <ele>1118.2</ele>
        <time>2023-02-21T10:27:46Z</time>
      </trkpt>
      <trkpt lat="44.14747" lon="6.20185">
        <ele>1119.2</ele>
        <time>2023-02-21T10:27:54Z</time>
      </trkpt>
      <trkpt lat="44.14745" lon="6.2019">
        <ele>1119.6</ele>
        <time>2023-02-21T10:27:56Z</time>
      </trkpt>
      <trkpt lat="44.14745" lon="6.20195">
        <ele>1119.8</ele>
        <time>2023-02-21T10:27:58Z</time>
      </trkpt>
      <trkpt lat="44.14745" lon="6.20208">
        <ele>1120.2</ele>
        <time>2023-02-21T10:28:03Z</time>
      </trkpt>
      <trkpt lat="44.14744" lon="6.20216">
        <ele>1120.6</ele>
        <time>2023-02-21T10:28:06Z</time>
      </trkpt>
      <trkpt lat="44.14745" lon="6.20232">
        <ele>1121.4</ele>
        <time>2023-02-21T10:28:11Z</time>
      </trkpt>
      <trkpt lat="44.14747" lon="6.20245">
        <ele>1121.6</ele>
        <time>2023-02-21T10:28:16Z</time>
      </trkpt>
      <trkpt lat="44.14746" lon="6.20261">
        <ele>1122.4</ele>
        <time>2023-02-21T10:28:22Z</time>
      </trkpt>
      <trkpt lat="44.14742" lon="6.20271">
        <ele>1123.2</ele>
        <time>2023-02-21T10:28:26Z</time>
      </trkpt>
      <trkpt lat="44.14739" lon="6.20275">
        <ele>1123.4</ele>
        <time>2023-02-21T10:28:28Z</time>
      </trkpt>
      <trkpt lat="44.14728" lon="6.20282">
        <ele>1124.4</ele>
        <time>2023-02-21T10:28:35Z</time>
      </trkpt>
      <trkpt lat="44.14726" lon="6.20283">
        <ele>1124.6</ele>
        <time>2023-02-21T10:28:36Z</time>
      </trkpt>
      <trkpt lat="44.14716" lon="6.20284">
        <ele>1125.4</ele>
        <time>2023-02-21T10:28:44Z</time>
      </trkpt>
      <trkpt lat="44.14712" lon="6.20283">
        <ele>1125.6</ele>
        <time>2023-02-21T10:28:46Z</time>
      </trkpt>
      <trkpt lat="44.14711" lon="6.20282">
        <ele>1125.6</ele>
        <time>2023-02-21T10:28:47Z</time>
      </trkpt>
      <trkpt lat="44.14705" lon="6.20284">
        <ele>1126.4</ele>
        <time>2023-02-21T10:28:52Z</time>
      </trkpt>
      <trkpt lat="44.14701" lon="6.20285">
        <ele>1126.8</ele>
        <time>2023-02-21T10:28:54Z</time>
      </trkpt>
      <trkpt lat="44.14697" lon="6.20286">
        <ele>1126.8</ele>
        <time>2023-02-21T10:28:56Z</time>
      </trkpt>
      <trkpt lat="44.14693" lon="6.20288">
        <ele>1127</ele>
        <time>2023-02-21T10:29:00Z</time>
      </trkpt>
      <trkpt lat="44.14691" lon="6.20288">
        <ele>1127.2</ele>
        <time>2023-02-21T10:29:01Z</time>
      </trkpt>
      <trkpt lat="44.14686" lon="6.2029">
        <ele>1127.4</ele>
        <time>2023-02-21T10:29:04Z</time>
      </trkpt>
      <trkpt lat="44.14682" lon="6.20293">
        <ele>1127.8</ele>
        <time>2023-02-21T10:29:06Z</time>
      </trkpt>
      <trkpt lat="44.1468" lon="6.20297">
        <ele>1127.8</ele>
        <time>2023-02-21T10:29:07Z</time>
      </trkpt>
      <trkpt lat="44.14674" lon="6.20308">
        <ele>1128.2</ele>
        <time>2023-02-21T10:29:11Z</time>
      </trkpt>
      <trkpt lat="44.14673" lon="6.20313">
        <ele>1128.4</ele>
        <time>2023-02-21T10:29:13Z</time>
      </trkpt>
      <trkpt lat="44.14671" lon="6.20324">
        <ele>1128.8</ele>
        <time>2023-02-21T10:29:16Z</time>
      </trkpt>
      <trkpt lat="44.14671" lon="6.20326">
        <ele>1129</ele>
        <time>2023-02-21T10:29:17Z</time>
      </trkpt>
      <trkpt lat="44.14672" lon="6.20335">
        <ele>1129.4</ele>
        <time>2023-02-21T10:29:21Z</time>
      </trkpt>
      <trkpt lat="44.14674" lon="6.2035">
        <ele>1129.8</ele>
        <time>2023-02-21T10:29:26Z</time>
      </trkpt>
      <trkpt lat="44.14676" lon="6.20357">
        <ele>1130.2</ele>
        <time>2023-02-21T10:29:29Z</time>
      </trkpt>
      <trkpt lat="44.14676" lon="6.20361">
        <ele>1130.4</ele>
        <time>2023-02-21T10:29:31Z</time>
      </trkpt>
      <trkpt lat="44.14675" lon="6.20368">
        <ele>1130.6</ele>
        <time>2023-02-21T10:29:34Z</time>
      </trkpt>
      <trkpt lat="44.14674" lon="6.20373">
        <ele>1131</ele>
        <time>2023-02-21T10:29:36Z</time>
      </trkpt>
      <trkpt lat="44.14672" lon="6.20378">
        <ele>1131.2</ele>
        <time>2023-02-21T10:29:38Z</time>
      </trkpt>
      <trkpt lat="44.14664" lon="6.20393">
        <ele>1132.4</ele>
        <time>2023-02-21T10:29:46Z</time>
      </trkpt>
      <trkpt lat="44.14649" lon="6.20406">
        <ele>1133.4</ele>
        <time>2023-02-21T10:29:56Z</time>
      </trkpt>
      <trkpt lat="44.14643" lon="6.2041">
        <ele>1134.2</ele>
        <time>2023-02-21T10:30:02Z</time>
      </trkpt>
      <trkpt lat="44.1464" lon="6.20411">
        <ele>1134.4</ele>
        <time>2023-02-21T10:30:04Z</time>
      </trkpt>
      <trkpt lat="44.14637" lon="6.20413">
        <ele>1134.8</ele>
        <time>2023-02-21T10:30:06Z</time>
      </trkpt>
      <trkpt lat="44.1463" lon="6.20418">
        <ele>1135.6</ele>
        <time>2023-02-21T10:30:13Z</time>
      </trkpt>
      <trkpt lat="44.14624" lon="6.2042">
        <ele>1136</ele>
        <time>2023-02-21T10:30:16Z</time>
      </trkpt>
      <trkpt lat="44.1461" lon="6.20432">
        <ele>1136.6</ele>
        <time>2023-02-21T10:30:26Z</time>
      </trkpt>
      <trkpt lat="44.14608" lon="6.20445">
        <ele>1137.2</ele>
        <time>2023-02-21T10:30:30Z</time>
      </trkpt>
      <trkpt lat="44.14607" lon="6.20463">
        <ele>1137.6</ele>
        <time>2023-02-21T10:30:36Z</time>
      </trkpt>
      <trkpt lat="44.14607" lon="6.20465">
        <ele>1137.8</ele>
        <time>2023-02-21T10:30:37Z</time>
      </trkpt>
      <trkpt lat="44.14609" lon="6.20472">
        <ele>1138</ele>
        <time>2023-02-21T10:30:40Z</time>
      </trkpt>
      <trkpt lat="44.14607" lon="6.20484">
        <ele>1138.6</ele>
        <time>2023-02-21T10:30:46Z</time>
      </trkpt>
      <trkpt lat="44.14606" lon="6.20486">
        <ele>1138.8</ele>
        <time>2023-02-21T10:30:47Z</time>
      </trkpt>
      <trkpt lat="44.14602" lon="6.20491">
        <ele>1139.2</ele>
        <time>2023-02-21T10:30:51Z</time>
      </trkpt>
      <trkpt lat="44.14596" lon="6.20495">
        <ele>1139.6</ele>
        <time>2023-02-21T10:30:56Z</time>
      </trkpt>
      <trkpt lat="44.1459" lon="6.20501">
        <ele>1140</ele>
        <time>2023-02-21T10:31:01Z</time>
      </trkpt>
      <trkpt lat="44.14585" lon="6.20507">
        <ele>1140.2</ele>
        <time>2023-02-21T10:31:06Z</time>
      </trkpt>
      <trkpt lat="44.1458" lon="6.20517">
        <ele>1141</ele>
        <time>2023-02-21T10:31:11Z</time>
      </trkpt>
      <trkpt lat="44.14574" lon="6.20526">
        <ele>1141.2</ele>
        <time>2023-02-21T10:31:16Z</time>
      </trkpt>
      <trkpt lat="44.14558" lon="6.20546">
        <ele>1141.4</ele>
        <time>2023-02-21T10:31:26Z</time>
      </trkpt>
      <trkpt lat="44.14557" lon="6.20558">
        <ele>1142</ele>
        <time>2023-02-21T10:31:31Z</time>
      </trkpt>
      <trkpt lat="44.14557" lon="6.2056">
        <ele>1142</ele>
        <time>2023-02-21T10:31:32Z</time>
      </trkpt>
      <trkpt lat="44.14555" lon="6.20569">
        <ele>1142.4</ele>
        <time>2023-02-21T10:31:36Z</time>
      </trkpt>
      <trkpt lat="44.14554" lon="6.20578">
        <ele>1143</ele>
        <time>2023-02-21T10:31:40Z</time>
      </trkpt>
      <trkpt lat="44.14553" lon="6.20581">
        <ele>1143.2</ele>
        <time>2023-02-21T10:31:41Z</time>
      </trkpt>
      <trkpt lat="44.14546" lon="6.20593">
        <ele>1143.6</ele>
        <time>2023-02-21T10:31:46Z</time>
      </trkpt>
      <trkpt lat="44.14541" lon="6.20602">
        <ele>1144.2</ele>
        <time>2023-02-21T10:31:50Z</time>
      </trkpt>
      <trkpt lat="44.14537" lon="6.20613">
        <ele>1144.6</ele>
        <time>2023-02-21T10:31:56Z</time>
      </trkpt>
      <trkpt lat="44.14533" lon="6.20631">
        <ele>1145</ele>
        <time>2023-02-21T10:32:02Z</time>
      </trkpt>
      <trkpt lat="44.14538" lon="6.20641">
        <ele>1145.2</ele>
        <time>2023-02-21T10:32:06Z</time>
      </trkpt>
      <trkpt lat="44.1454" lon="6.20643">
        <ele>1145.2</ele>
        <time>2023-02-21T10:32:07Z</time>
      </trkpt>
      <trkpt lat="44.14547" lon="6.20658">
        <ele>1145.8</ele>
        <time>2023-02-21T10:32:13Z</time>
      </trkpt>
      <trkpt lat="44.14546" lon="6.20667">
        <ele>1145.8</ele>
        <time>2023-02-21T10:32:16Z</time>
      </trkpt>
      <trkpt lat="44.14546" lon="6.20669">
        <ele>1146</ele>
        <time>2023-02-21T10:32:17Z</time>
      </trkpt>
      <trkpt lat="44.14546" lon="6.20679">
        <ele>1146</ele>
        <time>2023-02-21T10:32:21Z</time>
      </trkpt>
      <trkpt lat="44.14545" lon="6.20687">
        <ele>1146.2</ele>
        <time>2023-02-21T10:32:24Z</time>
      </trkpt>
      <trkpt lat="44.14544" lon="6.20692">
        <ele>1146.6</ele>
        <time>2023-02-21T10:32:26Z</time>
      </trkpt>
      <trkpt lat="44.14543" lon="6.20703">
        <ele>1147</ele>
        <time>2023-02-21T10:32:30Z</time>
      </trkpt>
      <trkpt lat="44.14542" lon="6.20706">
        <ele>1147</ele>
        <time>2023-02-21T10:32:31Z</time>
      </trkpt>
      <trkpt lat="44.14543" lon="6.20708">
        <ele>1147.2</ele>
        <time>2023-02-21T10:32:32Z</time>
      </trkpt>
      <trkpt lat="44.14543" lon="6.2071">
        <ele>1147.4</ele>
        <time>2023-02-21T10:32:33Z</time>
      </trkpt>
      <trkpt lat="44.14544" lon="6.20712">
        <ele>1147.4</ele>
        <time>2023-02-21T10:32:34Z</time>
      </trkpt>
      <trkpt lat="44.14544" lon="6.20714">
        <ele>1147.6</ele>
        <time>2023-02-21T10:32:35Z</time>
      </trkpt>
      <trkpt lat="44.14545" lon="6.20716">
        <ele>1147.8</ele>
        <time>2023-02-21T10:32:36Z</time>
      </trkpt>
      <trkpt lat="44.14544" lon="6.20719">
        <ele>1147.8</ele>
        <time>2023-02-21T10:32:37Z</time>
      </trkpt>
      <trkpt lat="44.14544" lon="6.20721">
        <ele>1147.8</ele>
        <time>2023-02-21T10:32:38Z</time>
      </trkpt>
      <trkpt lat="44.14543" lon="6.20724">
        <ele>1148</ele>
        <time>2023-02-21T10:32:39Z</time>
      </trkpt>
      <trkpt lat="44.14543" lon="6.20727">
        <ele>1148.2</ele>
        <time>2023-02-21T10:32:40Z</time>
      </trkpt>
      <trkpt lat="44.14542" lon="6.20729">
        <ele>1148.2</ele>
        <time>2023-02-21T10:32:41Z</time>
      </trkpt>
      <trkpt lat="44.14541" lon="6.20732">
        <ele>1148.2</ele>
        <time>2023-02-21T10:32:42Z</time>
      </trkpt>
      <trkpt lat="44.14539" lon="6.20737">
        <ele>1148.4</ele>
        <time>2023-02-21T10:32:44Z</time>
      </trkpt>
      <trkpt lat="44.14538" lon="6.2074">
        <ele>1148.4</ele>
        <time>2023-02-21T10:32:45Z</time>
      </trkpt>
      <trkpt lat="44.14537" lon="6.20743">
        <ele>1148.4</ele>
        <time>2023-02-21T10:32:46Z</time>
      </trkpt>
      <trkpt lat="44.14533" lon="6.20762">
        <ele>1149.4</ele>
        <time>2023-02-21T10:32:53Z</time>
      </trkpt>
      <trkpt lat="44.1453" lon="6.20768">
        <ele>1149.8</ele>
        <time>2023-02-21T10:32:56Z</time>
      </trkpt>
      <trkpt lat="44.14527" lon="6.20779">
        <ele>1150.4</ele>
        <time>2023-02-21T10:33:00Z</time>
      </trkpt>
      <trkpt lat="44.14525" lon="6.20796">
        <ele>1151.2</ele>
        <time>2023-02-21T10:33:06Z</time>
      </trkpt>
      <trkpt lat="44.14525" lon="6.20798">
        <ele>1151.2</ele>
        <time>2023-02-21T10:33:07Z</time>
      </trkpt>
      <trkpt lat="44.14529" lon="6.20806">
        <ele>1151.4</ele>
        <time>2023-02-21T10:33:10Z</time>
      </trkpt>
      <trkpt lat="44.14532" lon="6.20812">
        <ele>1151.6</ele>
        <time>2023-02-21T10:33:13Z</time>
      </trkpt>
      <trkpt lat="44.14533" lon="6.20821">
        <ele>1152</ele>
        <time>2023-02-21T10:33:16Z</time>
      </trkpt>
      <trkpt lat="44.14533" lon="6.20831">
        <ele>1152.4</ele>
        <time>2023-02-21T10:33:20Z</time>
      </trkpt>
      <trkpt lat="44.14534" lon="6.20833">
        <ele>1152.4</ele>
        <time>2023-02-21T10:33:21Z</time>
      </trkpt>
      <trkpt lat="44.1453" lon="6.20847">
        <ele>1153</ele>
        <time>2023-02-21T10:33:25Z</time>
      </trkpt>
      <trkpt lat="44.14529" lon="6.20849">
        <ele>1153.2</ele>
        <time>2023-02-21T10:33:26Z</time>
      </trkpt>
      <trkpt lat="44.14528" lon="6.20858">
        <ele>1153.4</ele>
        <time>2023-02-21T10:33:29Z</time>
      </trkpt>
      <trkpt lat="44.14526" lon="6.20877">
        <ele>1154.2</ele>
        <time>2023-02-21T10:33:35Z</time>
      </trkpt>
      <trkpt lat="44.14525" lon="6.2088">
        <ele>1154.4</ele>
        <time>2023-02-21T10:33:36Z</time>
      </trkpt>
      <trkpt lat="44.14526" lon="6.20886">
        <ele>1154.6</ele>
        <time>2023-02-21T10:33:38Z</time>
      </trkpt>
      <trkpt lat="44.14528" lon="6.20906">
        <ele>1155.2</ele>
        <time>2023-02-21T10:33:44Z</time>
      </trkpt>
      <trkpt lat="44.14529" lon="6.20912">
        <ele>1155.6</ele>
        <time>2023-02-21T10:33:46Z</time>
      </trkpt>
      <trkpt lat="44.1453" lon="6.20915">
        <ele>1155.8</ele>
        <time>2023-02-21T10:33:47Z</time>
      </trkpt>
      <trkpt lat="44.14532" lon="6.20933">
        <ele>1157</ele>
        <time>2023-02-21T10:33:53Z</time>
      </trkpt>
      <trkpt lat="44.14532" lon="6.20942">
        <ele>1157.2</ele>
        <time>2023-02-21T10:33:56Z</time>
      </trkpt>
      <trkpt lat="44.14533" lon="6.20956">
        <ele>1158</ele>
        <time>2023-02-21T10:34:00Z</time>
      </trkpt>
      <trkpt lat="44.14533" lon="6.20971">
        <ele>1158.8</ele>
        <time>2023-02-21T10:34:06Z</time>
      </trkpt>
      <trkpt lat="44.14533" lon="6.20975">
        <ele>1159</ele>
        <time>2023-02-21T10:34:08Z</time>
      </trkpt>
      <trkpt lat="44.14531" lon="6.20993">
        <ele>1160.2</ele>
        <time>2023-02-21T10:34:15Z</time>
      </trkpt>
      <trkpt lat="44.1453" lon="6.20996">
        <ele>1160.2</ele>
        <time>2023-02-21T10:34:16Z</time>
      </trkpt>
      <trkpt lat="44.14524" lon="6.21015">
        <ele>1161.2</ele>
        <time>2023-02-21T10:34:22Z</time>
      </trkpt>
      <trkpt lat="44.14521" lon="6.21028">
        <ele>1161.4</ele>
        <time>2023-02-21T10:34:26Z</time>
      </trkpt>
      <trkpt lat="44.14519" lon="6.21039">
        <ele>1161.6</ele>
        <time>2023-02-21T10:34:29Z</time>
      </trkpt>
      <trkpt lat="44.14515" lon="6.2106">
        <ele>1162</ele>
        <time>2023-02-21T10:34:36Z</time>
      </trkpt>
      <trkpt lat="44.14513" lon="6.21069">
        <ele>1162.2</ele>
        <time>2023-02-21T10:34:39Z</time>
      </trkpt>
      <trkpt lat="44.14514" lon="6.21093">
        <ele>1162.8</ele>
        <time>2023-02-21T10:34:46Z</time>
      </trkpt>
      <trkpt lat="44.14519" lon="6.21103">
        <ele>1163.4</ele>
        <time>2023-02-21T10:34:49Z</time>
      </trkpt>
      <trkpt lat="44.14524" lon="6.21108">
        <ele>1163.8</ele>
        <time>2023-02-21T10:34:51Z</time>
      </trkpt>
      <trkpt lat="44.1453" lon="6.2112">
        <ele>1164.4</ele>
        <time>2023-02-21T10:34:56Z</time>
      </trkpt>
      <trkpt lat="44.14529" lon="6.21124">
        <ele>1164.4</ele>
        <time>2023-02-21T10:34:57Z</time>
      </trkpt>
      <trkpt lat="44.14534" lon="6.21142">
        <ele>1165.2</ele>
        <time>2023-02-21T10:35:04Z</time>
      </trkpt>
      <trkpt lat="44.14534" lon="6.21148">
        <ele>1165.4</ele>
        <time>2023-02-21T10:35:06Z</time>
      </trkpt>
      <trkpt lat="44.14535" lon="6.21151">
        <ele>1165.4</ele>
        <time>2023-02-21T10:35:07Z</time>
      </trkpt>
      <trkpt lat="44.14537" lon="6.21168">
        <ele>1166.6</ele>
        <time>2023-02-21T10:35:14Z</time>
      </trkpt>
      <trkpt lat="44.14538" lon="6.21174">
        <ele>1166.8</ele>
        <time>2023-02-21T10:35:16Z</time>
      </trkpt>
      <trkpt lat="44.14542" lon="6.21192">
        <ele>1167.4</ele>
        <time>2023-02-21T10:35:23Z</time>
      </trkpt>
      <trkpt lat="44.14542" lon="6.21197">
        <ele>1167.6</ele>
        <time>2023-02-21T10:35:25Z</time>
      </trkpt>
      <trkpt lat="44.14542" lon="6.212">
        <ele>1167.6</ele>
        <time>2023-02-21T10:35:26Z</time>
      </trkpt>
      <trkpt lat="44.14544" lon="6.21223">
        <ele>1168.4</ele>
        <time>2023-02-21T10:35:36Z</time>
      </trkpt>
      <trkpt lat="44.14544" lon="6.21226">
        <ele>1168.4</ele>
        <time>2023-02-21T10:35:37Z</time>
      </trkpt>
      <trkpt lat="44.14545" lon="6.2123">
        <ele>1168.6</ele>
        <time>2023-02-21T10:35:39Z</time>
      </trkpt>
      <trkpt lat="44.14546" lon="6.21236">
        <ele>1168.8</ele>
        <time>2023-02-21T10:35:41Z</time>
      </trkpt>
      <trkpt lat="44.14547" lon="6.21244">
        <ele>1169</ele>
        <time>2023-02-21T10:35:44Z</time>
      </trkpt>
      <trkpt lat="44.14548" lon="6.21249">
        <ele>1169.2</ele>
        <time>2023-02-21T10:35:46Z</time>
      </trkpt>
      <trkpt lat="44.1455" lon="6.21257">
        <ele>1169.4</ele>
        <time>2023-02-21T10:35:49Z</time>
      </trkpt>
      <trkpt lat="44.14551" lon="6.21261">
        <ele>1169.8</ele>
        <time>2023-02-21T10:35:51Z</time>
      </trkpt>
      <trkpt lat="44.14549" lon="6.21274">
        <ele>1170</ele>
        <time>2023-02-21T10:35:56Z</time>
      </trkpt>
      <trkpt lat="44.14544" lon="6.2129">
        <ele>1170.8</ele>
        <time>2023-02-21T10:36:02Z</time>
      </trkpt>
      <trkpt lat="44.14542" lon="6.21297">
        <ele>1171</ele>
        <time>2023-02-21T10:36:05Z</time>
      </trkpt>
      <trkpt lat="44.14541" lon="6.213">
        <ele>1171.2</ele>
        <time>2023-02-21T10:36:06Z</time>
      </trkpt>
      <trkpt lat="44.14538" lon="6.21307">
        <ele>1171.8</ele>
        <time>2023-02-21T10:36:10Z</time>
      </trkpt>
      <trkpt lat="44.14534" lon="6.21316">
        <ele>1172.8</ele>
        <time>2023-02-21T10:36:16Z</time>
      </trkpt>
      <trkpt lat="44.14532" lon="6.21317">
        <ele>1173</ele>
        <time>2023-02-21T10:36:17Z</time>
      </trkpt>
      <trkpt lat="44.14527" lon="6.21322">
        <ele>1173.2</ele>
        <time>2023-02-21T10:36:20Z</time>
      </trkpt>
      <trkpt lat="44.14519" lon="6.21335">
        <ele>1173.6</ele>
        <time>2023-02-21T10:36:26Z</time>
      </trkpt>
      <trkpt lat="44.14516" lon="6.21339">
        <ele>1173.8</ele>
        <time>2023-02-21T10:36:28Z</time>
      </trkpt>
      <trkpt lat="44.14514" lon="6.21349">
        <ele>1174</ele>
        <time>2023-02-21T10:36:33Z</time>
      </trkpt>
      <trkpt lat="44.14514" lon="6.21354">
        <ele>1174</ele>
        <time>2023-02-21T10:36:35Z</time>
      </trkpt>
      <trkpt lat="44.14514" lon="6.21356">
        <ele>1174</ele>
        <time>2023-02-21T10:36:36Z</time>
      </trkpt>
      <trkpt lat="44.14515" lon="6.21359">
        <ele>1174</ele>
        <time>2023-02-21T10:36:38Z</time>
      </trkpt>
      <trkpt lat="44.14521" lon="6.21368">
        <ele>1174.6</ele>
        <time>2023-02-21T10:36:44Z</time>
      </trkpt>
      <trkpt lat="44.14523" lon="6.21372">
        <ele>1174.8</ele>
        <time>2023-02-21T10:36:46Z</time>
      </trkpt>
      <trkpt lat="44.14526" lon="6.21374">
        <ele>1175.2</ele>
        <time>2023-02-21T10:36:48Z</time>
      </trkpt>
      <trkpt lat="44.14535" lon="6.21386">
        <ele>1175.6</ele>
        <time>2023-02-21T10:36:56Z</time>
      </trkpt>
      <trkpt lat="44.14539" lon="6.21392">
        <ele>1176</ele>
        <time>2023-02-21T10:37:00Z</time>
      </trkpt>
      <trkpt lat="44.14539" lon="6.21397">
        <ele>1176.2</ele>
        <time>2023-02-21T10:37:03Z</time>
      </trkpt>
      <trkpt lat="44.14538" lon="6.21403">
        <ele>1176.2</ele>
        <time>2023-02-21T10:37:06Z</time>
      </trkpt>
      <trkpt lat="44.14532" lon="6.21413">
        <ele>1177</ele>
        <time>2023-02-21T10:37:12Z</time>
      </trkpt>
      <trkpt lat="44.14527" lon="6.21416">
        <ele>1177.2</ele>
        <time>2023-02-21T10:37:15Z</time>
      </trkpt>
      <trkpt lat="44.14526" lon="6.21417">
        <ele>1177.4</ele>
        <time>2023-02-21T10:37:16Z</time>
      </trkpt>
      <trkpt lat="44.1452" lon="6.21422">
        <ele>1178.2</ele>
        <time>2023-02-21T10:37:20Z</time>
      </trkpt>
      <trkpt lat="44.14513" lon="6.21426">
        <ele>1179</ele>
        <time>2023-02-21T10:37:24Z</time>
      </trkpt>
      <trkpt lat="44.1451" lon="6.21428">
        <ele>1179.4</ele>
        <time>2023-02-21T10:37:26Z</time>
      </trkpt>
      <trkpt lat="44.14508" lon="6.2143">
        <ele>1180</ele>
        <time>2023-02-21T10:37:30Z</time>
      </trkpt>
      <trkpt lat="44.14505" lon="6.21432">
        <ele>1180.2</ele>
        <time>2023-02-21T10:37:32Z</time>
      </trkpt>
      <trkpt lat="44.145" lon="6.21436">
        <ele>1180.6</ele>
        <time>2023-02-21T10:37:35Z</time>
      </trkpt>
      <trkpt lat="44.14499" lon="6.21439">
        <ele>1180.8</ele>
        <time>2023-02-21T10:37:36Z</time>
      </trkpt>
      <trkpt lat="44.14496" lon="6.21443">
        <ele>1181.2</ele>
        <time>2023-02-21T10:37:38Z</time>
      </trkpt>
      <trkpt lat="44.14493" lon="6.21449">
        <ele>1181.8</ele>
        <time>2023-02-21T10:37:42Z</time>
      </trkpt>
      <trkpt lat="44.14491" lon="6.21454">
        <ele>1182.2</ele>
        <time>2023-02-21T10:37:45Z</time>
      </trkpt>
      <trkpt lat="44.1449" lon="6.21456">
        <ele>1182.4</ele>
        <time>2023-02-21T10:37:46Z</time>
      </trkpt>
      <trkpt lat="44.14487" lon="6.21464">
        <ele>1182.8</ele>
        <time>2023-02-21T10:37:50Z</time>
      </trkpt>
      <trkpt lat="44.14486" lon="6.21466">
        <ele>1183</ele>
        <time>2023-02-21T10:37:51Z</time>
      </trkpt>
      <trkpt lat="44.14485" lon="6.21468">
        <ele>1183</ele>
        <time>2023-02-21T10:37:52Z</time>
      </trkpt>
      <trkpt lat="44.14484" lon="6.21469">
        <ele>1183.2</ele>
        <time>2023-02-21T10:37:53Z</time>
      </trkpt>
      <trkpt lat="44.14483" lon="6.21471">
        <ele>1183.4</ele>
        <time>2023-02-21T10:37:54Z</time>
      </trkpt>
      <trkpt lat="44.1448" lon="6.21474">
        <ele>1183.8</ele>
        <time>2023-02-21T10:37:56Z</time>
      </trkpt>
      <trkpt lat="44.14479" lon="6.21476">
        <ele>1184</ele>
        <time>2023-02-21T10:37:57Z</time>
      </trkpt>
      <trkpt lat="44.14476" lon="6.21484">
        <ele>1185</ele>
        <time>2023-02-21T10:38:01Z</time>
      </trkpt>
      <trkpt lat="44.1447" lon="6.21492">
        <ele>1185.4</ele>
        <time>2023-02-21T10:38:06Z</time>
      </trkpt>
      <trkpt lat="44.14469" lon="6.21494">
        <ele>1185.6</ele>
        <time>2023-02-21T10:38:07Z</time>
      </trkpt>
      <trkpt lat="44.14467" lon="6.21496">
        <ele>1185.8</ele>
        <time>2023-02-21T10:38:09Z</time>
      </trkpt>
      <trkpt lat="44.14465" lon="6.21499">
        <ele>1186</ele>
        <time>2023-02-21T10:38:10Z</time>
      </trkpt>
      <trkpt lat="44.14463" lon="6.21503">
        <ele>1187.2</ele>
        <time>2023-02-21T10:38:14Z</time>
      </trkpt>
      <trkpt lat="44.14462" lon="6.21507">
        <ele>1187.4</ele>
        <time>2023-02-21T10:38:16Z</time>
      </trkpt>
      <trkpt lat="44.14465" lon="6.21516">
        <ele>1188.2</ele>
        <time>2023-02-21T10:38:20Z</time>
      </trkpt>
      <trkpt lat="44.14467" lon="6.21524">
        <ele>1189</ele>
        <time>2023-02-21T10:38:23Z</time>
      </trkpt>
      <trkpt lat="44.14468" lon="6.21528">
        <ele>1189.4</ele>
        <time>2023-02-21T10:38:25Z</time>
      </trkpt>
      <trkpt lat="44.14469" lon="6.2153">
        <ele>1189.6</ele>
        <time>2023-02-21T10:38:26Z</time>
      </trkpt>
      <trkpt lat="44.14469" lon="6.21532">
        <ele>1189.8</ele>
        <time>2023-02-21T10:38:27Z</time>
      </trkpt>
      <trkpt lat="44.1447" lon="6.21537">
        <ele>1190.2</ele>
        <time>2023-02-21T10:38:29Z</time>
      </trkpt>
      <trkpt lat="44.14471" lon="6.21538">
        <ele>1190.4</ele>
        <time>2023-02-21T10:38:30Z</time>
      </trkpt>
      <trkpt lat="44.14477" lon="6.21548">
        <ele>1191.6</ele>
        <time>2023-02-21T10:38:35Z</time>
      </trkpt>
      <trkpt lat="44.14478" lon="6.2155">
        <ele>1191.8</ele>
        <time>2023-02-21T10:38:36Z</time>
      </trkpt>
      <trkpt lat="44.1448" lon="6.21555">
        <ele>1192.2</ele>
        <time>2023-02-21T10:38:39Z</time>
      </trkpt>
      <trkpt lat="44.1448" lon="6.21562">
        <ele>1192.6</ele>
        <time>2023-02-21T10:38:42Z</time>
      </trkpt>
      <trkpt lat="44.1448" lon="6.21564">
        <ele>1192.8</ele>
        <time>2023-02-21T10:38:43Z</time>
      </trkpt>
      <trkpt lat="44.14481" lon="6.2157">
        <ele>1193.4</ele>
        <time>2023-02-21T10:38:46Z</time>
      </trkpt>
      <trkpt lat="44.14481" lon="6.21574">
        <ele>1193.6</ele>
        <time>2023-02-21T10:38:48Z</time>
      </trkpt>
      <trkpt lat="44.14479" lon="6.21588">
        <ele>1194.8</ele>
        <time>2023-02-21T10:38:54Z</time>
      </trkpt>
      <trkpt lat="44.14479" lon="6.2159">
        <ele>1195</ele>
        <time>2023-02-21T10:38:55Z</time>
      </trkpt>
      <trkpt lat="44.14479" lon="6.21592">
        <ele>1195.2</ele>
        <time>2023-02-21T10:38:56Z</time>
      </trkpt>
      <trkpt lat="44.14479" lon="6.21602">
        <ele>1195.8</ele>
        <time>2023-02-21T10:39:01Z</time>
      </trkpt>
      <trkpt lat="44.14479" lon="6.21604">
        <ele>1196</ele>
        <time>2023-02-21T10:39:02Z</time>
      </trkpt>
      <trkpt lat="44.1448" lon="6.21611">
        <ele>1196.8</ele>
        <time>2023-02-21T10:39:06Z</time>
      </trkpt>
      <trkpt lat="44.1448" lon="6.21613">
        <ele>1197</ele>
        <time>2023-02-21T10:39:07Z</time>
      </trkpt>
      <trkpt lat="44.14479" lon="6.21618">
        <ele>1197.4</ele>
        <time>2023-02-21T10:39:09Z</time>
      </trkpt>
      <trkpt lat="44.14483" lon="6.21627">
        <ele>1198</ele>
        <time>2023-02-21T10:39:14Z</time>
      </trkpt>
      <trkpt lat="44.14484" lon="6.21632">
        <ele>1198.2</ele>
        <time>2023-02-21T10:39:16Z</time>
      </trkpt>
      <trkpt lat="44.14486" lon="6.2164">
        <ele>1198.4</ele>
        <time>2023-02-21T10:39:20Z</time>
      </trkpt>
      <trkpt lat="44.14489" lon="6.21655">
        <ele>1198.8</ele>
        <time>2023-02-21T10:39:26Z</time>
      </trkpt>
      <trkpt lat="44.14492" lon="6.21669">
        <ele>1198.6</ele>
        <time>2023-02-21T10:39:30Z</time>
      </trkpt>
      <trkpt lat="44.14505" lon="6.2169">
        <ele>1197.4</ele>
        <time>2023-02-21T10:39:36Z</time>
      </trkpt>
      <trkpt lat="44.14508" lon="6.21694">
        <ele>1197</ele>
        <time>2023-02-21T10:39:37Z</time>
      </trkpt>
      <trkpt lat="44.14512" lon="6.21699">
        <ele>1196.2</ele>
        <time>2023-02-21T10:39:38Z</time>
      </trkpt>
      <trkpt lat="44.14516" lon="6.21703">
        <ele>1195.6</ele>
        <time>2023-02-21T10:39:39Z</time>
      </trkpt>
      <trkpt lat="44.14525" lon="6.21712">
        <ele>1193.8</ele>
        <time>2023-02-21T10:39:41Z</time>
      </trkpt>
      <trkpt lat="44.14531" lon="6.21717">
        <ele>1192.6</ele>
        <time>2023-02-21T10:39:42Z</time>
      </trkpt>
      <trkpt lat="44.14536" lon="6.21722">
        <ele>1191.6</ele>
        <time>2023-02-21T10:39:43Z</time>
      </trkpt>
      <trkpt lat="44.14548" lon="6.21731">
        <ele>1189.8</ele>
        <time>2023-02-21T10:39:45Z</time>
      </trkpt>
      <trkpt lat="44.14554" lon="6.21736">
        <ele>1189</ele>
        <time>2023-02-21T10:39:46Z</time>
      </trkpt>
      <trkpt lat="44.1456" lon="6.21741">
        <ele>1188</ele>
        <time>2023-02-21T10:39:47Z</time>
      </trkpt>
      <trkpt lat="44.14569" lon="6.21746">
        <ele>1186.8</ele>
        <time>2023-02-21T10:39:48Z</time>
      </trkpt>
      <trkpt lat="44.14583" lon="6.21754">
        <ele>1185</ele>
        <time>2023-02-21T10:39:50Z</time>
      </trkpt>
      <trkpt lat="44.14589" lon="6.21759">
        <ele>1184.4</ele>
        <time>2023-02-21T10:39:51Z</time>
      </trkpt>
      <trkpt lat="44.14592" lon="6.21771">
        <ele>1183.6</ele>
        <time>2023-02-21T10:39:53Z</time>
      </trkpt>
      <trkpt lat="44.14587" lon="6.21781">
        <ele>1183.4</ele>
        <time>2023-02-21T10:39:55Z</time>
      </trkpt>
      <trkpt lat="44.14582" lon="6.21783">
        <ele>1182.8</ele>
        <time>2023-02-21T10:39:56Z</time>
      </trkpt>
      <trkpt lat="44.14576" lon="6.21785">
        <ele>1182</ele>
        <time>2023-02-21T10:39:57Z</time>
      </trkpt>
      <trkpt lat="44.14564" lon="6.2179">
        <ele>1180.2</ele>
        <time>2023-02-21T10:39:59Z</time>
      </trkpt>
      <trkpt lat="44.14558" lon="6.21792">
        <ele>1179.2</ele>
        <time>2023-02-21T10:40:00Z</time>
      </trkpt>
      <trkpt lat="44.14552" lon="6.21795">
        <ele>1178.4</ele>
        <time>2023-02-21T10:40:01Z</time>
      </trkpt>
      <trkpt lat="44.14542" lon="6.218">
        <ele>1177.2</ele>
        <time>2023-02-21T10:40:04Z</time>
      </trkpt>
      <trkpt lat="44.14535" lon="6.21809">
        <ele>1177</ele>
        <time>2023-02-21T10:40:06Z</time>
      </trkpt>
      <trkpt lat="44.14531" lon="6.21819">
        <ele>1176.2</ele>
        <time>2023-02-21T10:40:08Z</time>
      </trkpt>
      <trkpt lat="44.14527" lon="6.21827">
        <ele>1175</ele>
        <time>2023-02-21T10:40:10Z</time>
      </trkpt>
      <trkpt lat="44.14523" lon="6.21846">
        <ele>1173.8</ele>
        <time>2023-02-21T10:40:14Z</time>
      </trkpt>
      <trkpt lat="44.14521" lon="6.21858">
        <ele>1173.2</ele>
        <time>2023-02-21T10:40:16Z</time>
      </trkpt>
      <trkpt lat="44.1452" lon="6.21863">
        <ele>1172.8</ele>
        <time>2023-02-21T10:40:17Z</time>
      </trkpt>
      <trkpt lat="44.14516" lon="6.21881">
        <ele>1171.8</ele>
        <time>2023-02-21T10:40:20Z</time>
      </trkpt>
      <trkpt lat="44.14514" lon="6.21904">
        <ele>1170.4</ele>
        <time>2023-02-21T10:40:23Z</time>
      </trkpt>
      <trkpt lat="44.14515" lon="6.21923">
        <ele>1169</ele>
        <time>2023-02-21T10:40:25Z</time>
      </trkpt>
      <trkpt lat="44.14516" lon="6.21933">
        <ele>1168.2</ele>
        <time>2023-02-21T10:40:26Z</time>
      </trkpt>
      <trkpt lat="44.14516" lon="6.21942">
        <ele>1167.6</ele>
        <time>2023-02-21T10:40:27Z</time>
      </trkpt>
      <trkpt lat="44.14518" lon="6.21949">
        <ele>1167.2</ele>
        <time>2023-02-21T10:40:28Z</time>
      </trkpt>
      <trkpt lat="44.14521" lon="6.2196">
        <ele>1166.4</ele>
        <time>2023-02-21T10:40:30Z</time>
      </trkpt>
      <trkpt lat="44.14526" lon="6.2198">
        <ele>1165</ele>
        <time>2023-02-21T10:40:34Z</time>
      </trkpt>
      <trkpt lat="44.14527" lon="6.21983">
        <ele>1164.8</ele>
        <time>2023-02-21T10:40:36Z</time>
      </trkpt>
      <trkpt lat="44.14531" lon="6.21992">
        <ele>1165</ele>
        <time>2023-02-21T10:40:43Z</time>
      </trkpt>
      <trkpt lat="44.14532" lon="6.21996">
        <ele>1165.2</ele>
        <time>2023-02-21T10:40:46Z</time>
      </trkpt>
      <trkpt lat="44.14534" lon="6.22008">
        <ele>1166</ele>
        <time>2023-02-21T10:40:52Z</time>
      </trkpt>
      <trkpt lat="44.14535" lon="6.2201">
        <ele>1166.2</ele>
        <time>2023-02-21T10:40:53Z</time>
      </trkpt>
      <trkpt lat="44.14535" lon="6.22012">
        <ele>1166.4</ele>
        <time>2023-02-21T10:40:54Z</time>
      </trkpt>
      <trkpt lat="44.14536" lon="6.22013">
        <ele>1166.6</ele>
        <time>2023-02-21T10:40:55Z</time>
      </trkpt>
      <trkpt lat="44.14536" lon="6.22016">
        <ele>1166.6</ele>
        <time>2023-02-21T10:40:56Z</time>
      </trkpt>
      <trkpt lat="44.14537" lon="6.22027">
        <ele>1167.2</ele>
        <time>2023-02-21T10:41:00Z</time>
      </trkpt>
      <trkpt lat="44.14541" lon="6.22038">
        <ele>1168.4</ele>
        <time>2023-02-21T10:41:05Z</time>
      </trkpt>
      <trkpt lat="44.14542" lon="6.22041">
        <ele>1168.6</ele>
        <time>2023-02-21T10:41:06Z</time>
      </trkpt>
      <trkpt lat="44.14544" lon="6.22049">
        <ele>1169.4</ele>
        <time>2023-02-21T10:41:10Z</time>
      </trkpt>
      <trkpt lat="44.14546" lon="6.22059">
        <ele>1170.4</ele>
        <time>2023-02-21T10:41:14Z</time>
      </trkpt>
      <trkpt lat="44.14548" lon="6.22064">
        <ele>1171</ele>
        <time>2023-02-21T10:41:16Z</time>
      </trkpt>
      <trkpt lat="44.1455" lon="6.22072">
        <ele>1171.4</ele>
        <time>2023-02-21T10:41:20Z</time>
      </trkpt>
      <trkpt lat="44.14552" lon="6.22079">
        <ele>1171.4</ele>
        <time>2023-02-21T10:41:23Z</time>
      </trkpt>
      <trkpt lat="44.14554" lon="6.22086">
        <ele>1171.8</ele>
        <time>2023-02-21T10:41:26Z</time>
      </trkpt>
      <trkpt lat="44.14557" lon="6.22101">
        <ele>1172.6</ele>
        <time>2023-02-21T10:41:32Z</time>
      </trkpt>
      <trkpt lat="44.14558" lon="6.22112">
        <ele>1173.6</ele>
        <time>2023-02-21T10:41:35Z</time>
      </trkpt>
      <trkpt lat="44.14558" lon="6.22115">
        <ele>1173.8</ele>
        <time>2023-02-21T10:41:36Z</time>
      </trkpt>
      <trkpt lat="44.14557" lon="6.22119">
        <ele>1174</ele>
        <time>2023-02-21T10:41:40Z</time>
      </trkpt>
      <trkpt lat="44.1456" lon="6.22126">
        <ele>1174.6</ele>
        <time>2023-02-21T10:44:07Z</time>
      </trkpt>
      <trkpt lat="44.14567" lon="6.22129">
        <ele>1173.8</ele>
        <time>2023-02-21T10:44:11Z</time>
      </trkpt>
      <trkpt lat="44.1457" lon="6.22135">
        <ele>1174</ele>
        <time>2023-02-21T10:44:14Z</time>
      </trkpt>
      <trkpt lat="44.14571" lon="6.2214">
        <ele>1173.8</ele>
        <time>2023-02-21T10:44:16Z</time>
      </trkpt>
      <trkpt lat="44.14573" lon="6.22142">
        <ele>1173.8</ele>
        <time>2023-02-21T10:44:17Z</time>
      </trkpt>
      <trkpt lat="44.1458" lon="6.22147">
        <ele>1172.8</ele>
        <time>2023-02-21T10:44:19Z</time>
      </trkpt>
      <trkpt lat="44.14585" lon="6.2215">
        <ele>1172</ele>
        <time>2023-02-21T10:44:20Z</time>
      </trkpt>
      <trkpt lat="44.1459" lon="6.22152">
        <ele>1171.2</ele>
        <time>2023-02-21T10:44:21Z</time>
      </trkpt>
      <trkpt lat="44.14594" lon="6.22155">
        <ele>1170.4</ele>
        <time>2023-02-21T10:44:22Z</time>
      </trkpt>
      <trkpt lat="44.14597" lon="6.22157">
        <ele>1169.6</ele>
        <time>2023-02-21T10:44:23Z</time>
      </trkpt>
      <trkpt lat="44.146" lon="6.2216">
        <ele>1168.6</ele>
        <time>2023-02-21T10:44:24Z</time>
      </trkpt>
      <trkpt lat="44.14604" lon="6.22161">
        <ele>1167.4</ele>
        <time>2023-02-21T10:44:25Z</time>
      </trkpt>
      <trkpt lat="44.14606" lon="6.22163">
        <ele>1166.2</ele>
        <time>2023-02-21T10:44:26Z</time>
      </trkpt>
      <trkpt lat="44.14608" lon="6.22165">
        <ele>1165</ele>
        <time>2023-02-21T10:44:27Z</time>
      </trkpt>
      <trkpt lat="44.14611" lon="6.22169">
        <ele>1163.2</ele>
        <time>2023-02-21T10:44:29Z</time>
      </trkpt>
      <trkpt lat="44.14616" lon="6.22171">
        <ele>1161.4</ele>
        <time>2023-02-21T10:44:31Z</time>
      </trkpt>
      <trkpt lat="44.14623" lon="6.22169">
        <ele>1159.8</ele>
        <time>2023-02-21T10:44:33Z</time>
      </trkpt>
      <trkpt lat="44.14626" lon="6.22169">
        <ele>1159</ele>
        <time>2023-02-21T10:44:34Z</time>
      </trkpt>
      <trkpt lat="44.1463" lon="6.2217">
        <ele>1158.2</ele>
        <time>2023-02-21T10:44:35Z</time>
      </trkpt>
      <trkpt lat="44.14633" lon="6.22172">
        <ele>1157.4</ele>
        <time>2023-02-21T10:44:36Z</time>
      </trkpt>
      <trkpt lat="44.14637" lon="6.22172">
        <ele>1156.4</ele>
        <time>2023-02-21T10:44:37Z</time>
      </trkpt>
      <trkpt lat="44.1464" lon="6.22173">
        <ele>1155.4</ele>
        <time>2023-02-21T10:44:38Z</time>
      </trkpt>
      <trkpt lat="44.14643" lon="6.22174">
        <ele>1154.6</ele>
        <time>2023-02-21T10:44:39Z</time>
      </trkpt>
      <trkpt lat="44.14647" lon="6.22176">
        <ele>1152.4</ele>
        <time>2023-02-21T10:44:41Z</time>
      </trkpt>
      <trkpt lat="44.1465" lon="6.22177">
        <ele>1151.6</ele>
        <time>2023-02-21T10:44:42Z</time>
      </trkpt>
      <trkpt lat="44.14653" lon="6.22178">
        <ele>1150.6</ele>
        <time>2023-02-21T10:44:43Z</time>
      </trkpt>
      <trkpt lat="44.14655" lon="6.2218">
        <ele>1149.2</ele>
        <time>2023-02-21T10:44:44Z</time>
      </trkpt>
      <trkpt lat="44.14658" lon="6.22182">
        <ele>1148.2</ele>
        <time>2023-02-21T10:44:45Z</time>
      </trkpt>
      <trkpt lat="44.14659" lon="6.22183">
        <ele>1147</ele>
        <time>2023-02-21T10:44:46Z</time>
      </trkpt>
      <trkpt lat="44.14662" lon="6.22188">
        <ele>1145.2</ele>
        <time>2023-02-21T10:44:48Z</time>
      </trkpt>
      <trkpt lat="44.14664" lon="6.22191">
        <ele>1144.6</ele>
        <time>2023-02-21T10:44:49Z</time>
      </trkpt>
      <trkpt lat="44.14666" lon="6.22194">
        <ele>1144.2</ele>
        <time>2023-02-21T10:44:50Z</time>
      </trkpt>
      <trkpt lat="44.1467" lon="6.22199">
        <ele>1142.8</ele>
        <time>2023-02-21T10:44:52Z</time>
      </trkpt>
      <trkpt lat="44.14672" lon="6.22199">
        <ele>1142.2</ele>
        <time>2023-02-21T10:44:53Z</time>
      </trkpt>
      <trkpt lat="44.14674" lon="6.22199">
        <ele>1141.4</ele>
        <time>2023-02-21T10:44:54Z</time>
      </trkpt>
      <trkpt lat="44.14676" lon="6.22198">
        <ele>1140.2</ele>
        <time>2023-02-21T10:44:55Z</time>
      </trkpt>
      <trkpt lat="44.14678" lon="6.22196">
        <ele>1139.2</ele>
        <time>2023-02-21T10:44:56Z</time>
      </trkpt>
      <trkpt lat="44.1468" lon="6.22195">
        <ele>1138.4</ele>
        <time>2023-02-21T10:44:57Z</time>
      </trkpt>
      <trkpt lat="44.14683" lon="6.22195">
        <ele>1137.8</ele>
        <time>2023-02-21T10:44:58Z</time>
      </trkpt>
      <trkpt lat="44.14685" lon="6.22196">
        <ele>1137</ele>
        <time>2023-02-21T10:44:59Z</time>
      </trkpt>
      <trkpt lat="44.14687" lon="6.22197">
        <ele>1136.2</ele>
        <time>2023-02-21T10:45:00Z</time>
      </trkpt>
      <trkpt lat="44.14692" lon="6.22202">
        <ele>1134.6</ele>
        <time>2023-02-21T10:45:02Z</time>
      </trkpt>
      <trkpt lat="44.14698" lon="6.22207">
        <ele>1132.8</ele>
        <time>2023-02-21T10:45:04Z</time>
      </trkpt>
      <trkpt lat="44.147" lon="6.22209">
        <ele>1131.8</ele>
        <time>2023-02-21T10:45:05Z</time>
      </trkpt>
      <trkpt lat="44.14702" lon="6.22212">
        <ele>1130.8</ele>
        <time>2023-02-21T10:45:06Z</time>
      </trkpt>
      <trkpt lat="44.14704" lon="6.22215">
        <ele>1130</ele>
        <time>2023-02-21T10:45:07Z</time>
      </trkpt>
      <trkpt lat="44.14706" lon="6.22218">
        <ele>1129</ele>
        <time>2023-02-21T10:45:08Z</time>
      </trkpt>
      <trkpt lat="44.14709" lon="6.2222">
        <ele>1128</ele>
        <time>2023-02-21T10:45:09Z</time>
      </trkpt>
      <trkpt lat="44.14711" lon="6.22222">
        <ele>1126.4</ele>
        <time>2023-02-21T10:45:10Z</time>
      </trkpt>
      <trkpt lat="44.14713" lon="6.22225">
        <ele>1125.2</ele>
        <time>2023-02-21T10:45:11Z</time>
      </trkpt>
      <trkpt lat="44.14714" lon="6.22229">
        <ele>1123.6</ele>
        <time>2023-02-21T10:45:12Z</time>
      </trkpt>
      <trkpt lat="44.14715" lon="6.22232">
        <ele>1122.4</ele>
        <time>2023-02-21T10:45:13Z</time>
      </trkpt>
      <trkpt lat="44.14717" lon="6.22236">
        <ele>1121.2</ele>
        <time>2023-02-21T10:45:14Z</time>
      </trkpt>
      <trkpt lat="44.14719" lon="6.22243">
        <ele>1119.6</ele>
        <time>2023-02-21T10:45:16Z</time>
      </trkpt>
      <trkpt lat="44.14721" lon="6.22244">
        <ele>1119</ele>
        <time>2023-02-21T10:45:17Z</time>
      </trkpt>
      <trkpt lat="44.14723" lon="6.22243">
        <ele>1118</ele>
        <time>2023-02-21T10:45:18Z</time>
      </trkpt>
      <trkpt lat="44.14724" lon="6.22242">
        <ele>1117</ele>
        <time>2023-02-21T10:45:19Z</time>
      </trkpt>
      <trkpt lat="44.14726" lon="6.22241">
        <ele>1115.8</ele>
        <time>2023-02-21T10:45:20Z</time>
      </trkpt>
      <trkpt lat="44.14729" lon="6.22244">
        <ele>1114</ele>
        <time>2023-02-21T10:45:22Z</time>
      </trkpt>
      <trkpt lat="44.1473" lon="6.22248">
        <ele>1113</ele>
        <time>2023-02-21T10:45:23Z</time>
      </trkpt>
      <trkpt lat="44.14731" lon="6.22252">
        <ele>1111.6</ele>
        <time>2023-02-21T10:45:24Z</time>
      </trkpt>
      <trkpt lat="44.14732" lon="6.22256">
        <ele>1110.4</ele>
        <time>2023-02-21T10:45:25Z</time>
      </trkpt>
      <trkpt lat="44.14733" lon="6.22259">
        <ele>1109.6</ele>
        <time>2023-02-21T10:45:26Z</time>
      </trkpt>
      <trkpt lat="44.14736" lon="6.22262">
        <ele>1108.6</ele>
        <time>2023-02-21T10:45:27Z</time>
      </trkpt>
      <trkpt lat="44.14739" lon="6.22264">
        <ele>1107.8</ele>
        <time>2023-02-21T10:45:28Z</time>
      </trkpt>
      <trkpt lat="44.14742" lon="6.22266">
        <ele>1106.6</ele>
        <time>2023-02-21T10:45:29Z</time>
      </trkpt>
      <trkpt lat="44.14745" lon="6.22268">
        <ele>1105.2</ele>
        <time>2023-02-21T10:45:30Z</time>
      </trkpt>
      <trkpt lat="44.14747" lon="6.22271">
        <ele>1103.4</ele>
        <time>2023-02-21T10:45:31Z</time>
      </trkpt>
      <trkpt lat="44.14749" lon="6.22274">
        <ele>1101.8</ele>
        <time>2023-02-21T10:45:32Z</time>
      </trkpt>
      <trkpt lat="44.14751" lon="6.22276">
        <ele>1100.4</ele>
        <time>2023-02-21T10:45:33Z</time>
      </trkpt>
      <trkpt lat="44.14753" lon="6.22277">
        <ele>1099.2</ele>
        <time>2023-02-21T10:45:34Z</time>
      </trkpt>
      <trkpt lat="44.14756" lon="6.22278">
        <ele>1098</ele>
        <time>2023-02-21T10:45:35Z</time>
      </trkpt>
      <trkpt lat="44.1476" lon="6.22279">
        <ele>1096.8</ele>
        <time>2023-02-21T10:45:36Z</time>
      </trkpt>
      <trkpt lat="44.14767" lon="6.22287">
        <ele>1094.8</ele>
        <time>2023-02-21T10:45:38Z</time>
      </trkpt>
      <trkpt lat="44.14768" lon="6.22292">
        <ele>1093.8</ele>
        <time>2023-02-21T10:45:39Z</time>
      </trkpt>
      <trkpt lat="44.14769" lon="6.22302">
        <ele>1091.8</ele>
        <time>2023-02-21T10:45:41Z</time>
      </trkpt>
      <trkpt lat="44.14769" lon="6.22308">
        <ele>1090.8</ele>
        <time>2023-02-21T10:45:42Z</time>
      </trkpt>
      <trkpt lat="44.14769" lon="6.22314">
        <ele>1089.8</ele>
        <time>2023-02-21T10:45:43Z</time>
      </trkpt>
      <trkpt lat="44.14769" lon="6.22321">
        <ele>1089</ele>
        <time>2023-02-21T10:45:44Z</time>
      </trkpt>
      <trkpt lat="44.14768" lon="6.22327">
        <ele>1088.6</ele>
        <time>2023-02-21T10:45:45Z</time>
      </trkpt>
      <trkpt lat="44.14767" lon="6.22333">
        <ele>1087.8</ele>
        <time>2023-02-21T10:45:46Z</time>
      </trkpt>
      <trkpt lat="44.14765" lon="6.22337">
        <ele>1087.4</ele>
        <time>2023-02-21T10:45:47Z</time>
      </trkpt>
      <trkpt lat="44.14761" lon="6.22344">
        <ele>1086.2</ele>
        <time>2023-02-21T10:45:50Z</time>
      </trkpt>
      <trkpt lat="44.14761" lon="6.22347">
        <ele>1086</ele>
        <time>2023-02-21T10:45:51Z</time>
      </trkpt>
      <trkpt lat="44.14769" lon="6.22357">
        <ele>1085</ele>
        <time>2023-02-21T10:45:55Z</time>
      </trkpt>
      <trkpt lat="44.1477" lon="6.2236">
        <ele>1084.4</ele>
        <time>2023-02-21T10:45:56Z</time>
      </trkpt>
      <trkpt lat="44.14773" lon="6.22367">
        <ele>1083.4</ele>
        <time>2023-02-21T10:45:58Z</time>
      </trkpt>
      <trkpt lat="44.14776" lon="6.22368">
        <ele>1082.8</ele>
        <time>2023-02-21T10:45:59Z</time>
      </trkpt>
      <trkpt lat="44.14779" lon="6.22367">
        <ele>1082</ele>
        <time>2023-02-21T10:46:00Z</time>
      </trkpt>
      <trkpt lat="44.14783" lon="6.22367">
        <ele>1081.4</ele>
        <time>2023-02-21T10:46:01Z</time>
      </trkpt>
      <trkpt lat="44.14787" lon="6.22367">
        <ele>1080.6</ele>
        <time>2023-02-21T10:46:02Z</time>
      </trkpt>
      <trkpt lat="44.14795" lon="6.22368">
        <ele>1079.4</ele>
        <time>2023-02-21T10:46:04Z</time>
      </trkpt>
      <trkpt lat="44.14799" lon="6.22369">
        <ele>1078.6</ele>
        <time>2023-02-21T10:46:05Z</time>
      </trkpt>
      <trkpt lat="44.14802" lon="6.22372">
        <ele>1077.6</ele>
        <time>2023-02-21T10:46:06Z</time>
      </trkpt>
      <trkpt lat="44.14808" lon="6.22376">
        <ele>1075.8</ele>
        <time>2023-02-21T10:46:08Z</time>
      </trkpt>
      <trkpt lat="44.14813" lon="6.22378">
        <ele>1074</ele>
        <time>2023-02-21T10:46:10Z</time>
      </trkpt>
      <trkpt lat="44.14818" lon="6.22382">
        <ele>1072.2</ele>
        <time>2023-02-21T10:46:12Z</time>
      </trkpt>
      <trkpt lat="44.14823" lon="6.22391">
        <ele>1070.8</ele>
        <time>2023-02-21T10:46:14Z</time>
      </trkpt>
      <trkpt lat="44.14827" lon="6.22399">
        <ele>1070</ele>
        <time>2023-02-21T10:46:16Z</time>
      </trkpt>
      <trkpt lat="44.14829" lon="6.22402">
        <ele>1069</ele>
        <time>2023-02-21T10:46:17Z</time>
      </trkpt>
      <trkpt lat="44.14831" lon="6.22404">
        <ele>1068</ele>
        <time>2023-02-21T10:46:18Z</time>
      </trkpt>
      <trkpt lat="44.14832" lon="6.22407">
        <ele>1066.6</ele>
        <time>2023-02-21T10:46:19Z</time>
      </trkpt>
      <trkpt lat="44.14834" lon="6.22413">
        <ele>1065.2</ele>
        <time>2023-02-21T10:46:21Z</time>
      </trkpt>
      <trkpt lat="44.14839" lon="6.22417">
        <ele>1064</ele>
        <time>2023-02-21T10:46:23Z</time>
      </trkpt>
      <trkpt lat="44.14847" lon="6.22421">
        <ele>1062.2</ele>
        <time>2023-02-21T10:46:25Z</time>
      </trkpt>
      <trkpt lat="44.14852" lon="6.22423">
        <ele>1061.2</ele>
        <time>2023-02-21T10:46:26Z</time>
      </trkpt>
      <trkpt lat="44.14861" lon="6.22428">
        <ele>1059.6</ele>
        <time>2023-02-21T10:46:28Z</time>
      </trkpt>
      <trkpt lat="44.14867" lon="6.2243">
        <ele>1057.4</ele>
        <time>2023-02-21T10:46:30Z</time>
      </trkpt>
      <trkpt lat="44.14874" lon="6.22433">
        <ele>1055.8</ele>
        <time>2023-02-21T10:46:32Z</time>
      </trkpt>
      <trkpt lat="44.14883" lon="6.22438">
        <ele>1054.6</ele>
        <time>2023-02-21T10:46:34Z</time>
      </trkpt>
      <trkpt lat="44.14888" lon="6.22446">
        <ele>1053.8</ele>
        <time>2023-02-21T10:46:36Z</time>
      </trkpt>
      <trkpt lat="44.14889" lon="6.2245">
        <ele>1053.2</ele>
        <time>2023-02-21T10:46:37Z</time>
      </trkpt>
      <trkpt lat="44.14894" lon="6.22459">
        <ele>1052.4</ele>
        <time>2023-02-21T10:46:39Z</time>
      </trkpt>
      <trkpt lat="44.14897" lon="6.22464">
        <ele>1052</ele>
        <time>2023-02-21T10:46:40Z</time>
      </trkpt>
      <trkpt lat="44.14899" lon="6.22469">
        <ele>1051.4</ele>
        <time>2023-02-21T10:46:41Z</time>
      </trkpt>
      <trkpt lat="44.14901" lon="6.22474">
        <ele>1050.8</ele>
        <time>2023-02-21T10:46:42Z</time>
      </trkpt>
      <trkpt lat="44.14905" lon="6.22478">
        <ele>1049.6</ele>
        <time>2023-02-21T10:46:43Z</time>
      </trkpt>
      <trkpt lat="44.14907" lon="6.22482">
        <ele>1048.4</ele>
        <time>2023-02-21T10:46:44Z</time>
      </trkpt>
      <trkpt lat="44.1491" lon="6.22487">
        <ele>1047.4</ele>
        <time>2023-02-21T10:46:45Z</time>
      </trkpt>
      <trkpt lat="44.14911" lon="6.22492">
        <ele>1046.8</ele>
        <time>2023-02-21T10:46:46Z</time>
      </trkpt>
      <trkpt lat="44.14913" lon="6.22498">
        <ele>1045.8</ele>
        <time>2023-02-21T10:46:47Z</time>
      </trkpt>
      <trkpt lat="44.14914" lon="6.22502">
        <ele>1044.8</ele>
        <time>2023-02-21T10:46:48Z</time>
      </trkpt>
      <trkpt lat="44.14916" lon="6.22505">
        <ele>1043.2</ele>
        <time>2023-02-21T10:46:49Z</time>
      </trkpt>
      <trkpt lat="44.14918" lon="6.22508">
        <ele>1041.8</ele>
        <time>2023-02-21T10:46:50Z</time>
      </trkpt>
      <trkpt lat="44.1492" lon="6.2251">
        <ele>1040</ele>
        <time>2023-02-21T10:46:51Z</time>
      </trkpt>
      <trkpt lat="44.14921" lon="6.22513">
        <ele>1038</ele>
        <time>2023-02-21T10:46:52Z</time>
      </trkpt>
      <trkpt lat="44.14921" lon="6.22516">
        <ele>1036.4</ele>
        <time>2023-02-21T10:46:53Z</time>
      </trkpt>
      <trkpt lat="44.14922" lon="6.22519">
        <ele>1035.2</ele>
        <time>2023-02-21T10:46:54Z</time>
      </trkpt>
      <trkpt lat="44.14922" lon="6.22523">
        <ele>1034</ele>
        <time>2023-02-21T10:46:55Z</time>
      </trkpt>
      <trkpt lat="44.14922" lon="6.22527">
        <ele>1032.8</ele>
        <time>2023-02-21T10:46:56Z</time>
      </trkpt>
      <trkpt lat="44.14922" lon="6.2253">
        <ele>1031.8</ele>
        <time>2023-02-21T10:46:57Z</time>
      </trkpt>
      <trkpt lat="44.14923" lon="6.22534">
        <ele>1030.4</ele>
        <time>2023-02-21T10:46:58Z</time>
      </trkpt>
      <trkpt lat="44.14923" lon="6.22538">
        <ele>1029</ele>
        <time>2023-02-21T10:46:59Z</time>
      </trkpt>
      <trkpt lat="44.14923" lon="6.22542">
        <ele>1027.2</ele>
        <time>2023-02-21T10:47:00Z</time>
      </trkpt>
      <trkpt lat="44.14924" lon="6.22545">
        <ele>1025.8</ele>
        <time>2023-02-21T10:47:01Z</time>
      </trkpt>
      <trkpt lat="44.14925" lon="6.22548">
        <ele>1024.6</ele>
        <time>2023-02-21T10:47:02Z</time>
      </trkpt>
      <trkpt lat="44.14925" lon="6.22552">
        <ele>1023.2</ele>
        <time>2023-02-21T10:47:03Z</time>
      </trkpt>
      <trkpt lat="44.14925" lon="6.22555">
        <ele>1021.8</ele>
        <time>2023-02-21T10:47:04Z</time>
      </trkpt>
      <trkpt lat="44.14925" lon="6.22559">
        <ele>1020.4</ele>
        <time>2023-02-21T10:47:05Z</time>
      </trkpt>
      <trkpt lat="44.14926" lon="6.22562">
        <ele>1019.2</ele>
        <time>2023-02-21T10:47:06Z</time>
      </trkpt>
      <trkpt lat="44.14927" lon="6.22566">
        <ele>1018.2</ele>
        <time>2023-02-21T10:47:07Z</time>
      </trkpt>
      <trkpt lat="44.14928" lon="6.22568">
        <ele>1017</ele>
        <time>2023-02-21T10:47:08Z</time>
      </trkpt>
      <trkpt lat="44.1493" lon="6.22572">
        <ele>1015.8</ele>
        <time>2023-02-21T10:47:09Z</time>
      </trkpt>
      <trkpt lat="44.14932" lon="6.22579">
        <ele>1014</ele>
        <time>2023-02-21T10:47:11Z</time>
      </trkpt>
      <trkpt lat="44.14934" lon="6.22587">
        <ele>1012.2</ele>
        <time>2023-02-21T10:47:13Z</time>
      </trkpt>
      <trkpt lat="44.14938" lon="6.22594">
        <ele>1010.4</ele>
        <time>2023-02-21T10:47:15Z</time>
      </trkpt>
      <trkpt lat="44.14939" lon="6.22598">
        <ele>1009.6</ele>
        <time>2023-02-21T10:47:16Z</time>
      </trkpt>
      <trkpt lat="44.1494" lon="6.22602">
        <ele>1008.6</ele>
        <time>2023-02-21T10:47:17Z</time>
      </trkpt>
      <trkpt lat="44.14941" lon="6.22607">
        <ele>1007</ele>
        <time>2023-02-21T10:47:18Z</time>
      </trkpt>
      <trkpt lat="44.14942" lon="6.22612">
        <ele>1005.4</ele>
        <time>2023-02-21T10:47:19Z</time>
      </trkpt>
      <trkpt lat="44.14943" lon="6.22616">
        <ele>1004</ele>
        <time>2023-02-21T10:47:20Z</time>
      </trkpt>
      <trkpt lat="44.14944" lon="6.22624">
        <ele>1002.2</ele>
        <time>2023-02-21T10:47:22Z</time>
      </trkpt>
      <trkpt lat="44.14946" lon="6.22632">
        <ele>1000.6</ele>
        <time>2023-02-21T10:47:24Z</time>
      </trkpt>
      <trkpt lat="44.14948" lon="6.2264">
        <ele>998.8</ele>
        <time>2023-02-21T10:47:26Z</time>
      </trkpt>
      <trkpt lat="44.1495" lon="6.22649">
        <ele>997</ele>
        <time>2023-02-21T10:47:28Z</time>
      </trkpt>
      <trkpt lat="44.14949" lon="6.22656">
        <ele>995.4</ele>
        <time>2023-02-21T10:47:30Z</time>
      </trkpt>
      <trkpt lat="44.1495" lon="6.22669">
        <ele>993.6</ele>
        <time>2023-02-21T10:47:32Z</time>
      </trkpt>
      <trkpt lat="44.1495" lon="6.22683">
        <ele>991.6</ele>
        <time>2023-02-21T10:47:34Z</time>
      </trkpt>
      <trkpt lat="44.1495" lon="6.22689">
        <ele>990.2</ele>
        <time>2023-02-21T10:47:35Z</time>
      </trkpt>
      <trkpt lat="44.1495" lon="6.22694">
        <ele>989</ele>
        <time>2023-02-21T10:47:36Z</time>
      </trkpt>
      <trkpt lat="44.1495" lon="6.22703">
        <ele>987.6</ele>
        <time>2023-02-21T10:47:38Z</time>
      </trkpt>
      <trkpt lat="44.14949" lon="6.22712">
        <ele>986.2</ele>
        <time>2023-02-21T10:47:40Z</time>
      </trkpt>
      <trkpt lat="44.14949" lon="6.22716">
        <ele>985</ele>
        <time>2023-02-21T10:47:41Z</time>
      </trkpt>
      <trkpt lat="44.14949" lon="6.22722">
        <ele>983.6</ele>
        <time>2023-02-21T10:47:42Z</time>
      </trkpt>
      <trkpt lat="44.14949" lon="6.22733">
        <ele>982.2</ele>
        <time>2023-02-21T10:47:44Z</time>
      </trkpt>
      <trkpt lat="44.14948" lon="6.22742">
        <ele>980.2</ele>
        <time>2023-02-21T10:47:46Z</time>
      </trkpt>
      <trkpt lat="44.14951" lon="6.22748">
        <ele>978.2</ele>
        <time>2023-02-21T10:47:48Z</time>
      </trkpt>
      <trkpt lat="44.14954" lon="6.2275">
        <ele>977</ele>
        <time>2023-02-21T10:47:49Z</time>
      </trkpt>
      <trkpt lat="44.14957" lon="6.22752">
        <ele>975.8</ele>
        <time>2023-02-21T10:47:50Z</time>
      </trkpt>
      <trkpt lat="44.14961" lon="6.22752">
        <ele>974.8</ele>
        <time>2023-02-21T10:47:51Z</time>
      </trkpt>
      <trkpt lat="44.1497" lon="6.22751">
        <ele>973.2</ele>
        <time>2023-02-21T10:47:53Z</time>
      </trkpt>
      <trkpt lat="44.14981" lon="6.22754">
        <ele>971.4</ele>
        <time>2023-02-21T10:47:55Z</time>
      </trkpt>
      <trkpt lat="44.14987" lon="6.22756">
        <ele>970.2</ele>
        <time>2023-02-21T10:47:56Z</time>
      </trkpt>
      <trkpt lat="44.14993" lon="6.22758">
        <ele>969</ele>
        <time>2023-02-21T10:47:57Z</time>
      </trkpt>
      <trkpt lat="44.14999" lon="6.22759">
        <ele>968</ele>
        <time>2023-02-21T10:47:58Z</time>
      </trkpt>
      <trkpt lat="44.15004" lon="6.22762">
        <ele>967</ele>
        <time>2023-02-21T10:47:59Z</time>
      </trkpt>
      <trkpt lat="44.15008" lon="6.22765">
        <ele>966.2</ele>
        <time>2023-02-21T10:48:00Z</time>
      </trkpt>
      <trkpt lat="44.15013" lon="6.22774">
        <ele>964.8</ele>
        <time>2023-02-21T10:48:02Z</time>
      </trkpt>
      <trkpt lat="44.15019" lon="6.22783">
        <ele>963.8</ele>
        <time>2023-02-21T10:48:04Z</time>
      </trkpt>
      <trkpt lat="44.15021" lon="6.22792">
        <ele>962.4</ele>
        <time>2023-02-21T10:48:06Z</time>
      </trkpt>
      <trkpt lat="44.15021" lon="6.22795">
        <ele>961.6</ele>
        <time>2023-02-21T10:48:07Z</time>
      </trkpt>
      <trkpt lat="44.1502" lon="6.22797">
        <ele>960.6</ele>
        <time>2023-02-21T10:48:08Z</time>
      </trkpt>
      <trkpt lat="44.15017" lon="6.22798">
        <ele>959.6</ele>
        <time>2023-02-21T10:48:09Z</time>
      </trkpt>
      <trkpt lat="44.15015" lon="6.22799">
        <ele>958.2</ele>
        <time>2023-02-21T10:48:10Z</time>
      </trkpt>
      <trkpt lat="44.15014" lon="6.22802">
        <ele>957.2</ele>
        <time>2023-02-21T10:48:11Z</time>
      </trkpt>
      <trkpt lat="44.15012" lon="6.22804">
        <ele>956</ele>
        <time>2023-02-21T10:48:12Z</time>
      </trkpt>
      <trkpt lat="44.15007" lon="6.22808">
        <ele>954</ele>
        <time>2023-02-21T10:48:14Z</time>
      </trkpt>
      <trkpt lat="44.15005" lon="6.2281">
        <ele>952.8</ele>
        <time>2023-02-21T10:48:15Z</time>
      </trkpt>
      <trkpt lat="44.15004" lon="6.22811">
        <ele>951.6</ele>
        <time>2023-02-21T10:48:16Z</time>
      </trkpt>
      <trkpt lat="44.15" lon="6.22813">
        <ele>949.8</ele>
        <time>2023-02-21T10:48:18Z</time>
      </trkpt>
      <trkpt lat="44.14993" lon="6.22814">
        <ele>947.8</ele>
        <time>2023-02-21T10:48:20Z</time>
      </trkpt>
      <trkpt lat="44.14991" lon="6.22815">
        <ele>946.6</ele>
        <time>2023-02-21T10:48:21Z</time>
      </trkpt>
      <trkpt lat="44.1499" lon="6.22817">
        <ele>945.4</ele>
        <time>2023-02-21T10:48:22Z</time>
      </trkpt>
      <trkpt lat="44.14989" lon="6.22819">
        <ele>944</ele>
        <time>2023-02-21T10:48:23Z</time>
      </trkpt>
      <trkpt lat="44.14988" lon="6.22821">
        <ele>943</ele>
        <time>2023-02-21T10:48:24Z</time>
      </trkpt>
      <trkpt lat="44.14987" lon="6.22823">
        <ele>942</ele>
        <time>2023-02-21T10:48:25Z</time>
      </trkpt>
      <trkpt lat="44.14986" lon="6.22825">
        <ele>941</ele>
        <time>2023-02-21T10:48:26Z</time>
      </trkpt>
      <trkpt lat="44.14987" lon="6.22832">
        <ele>939.6</ele>
        <time>2023-02-21T10:48:28Z</time>
      </trkpt>
      <trkpt lat="44.1499" lon="6.22847">
        <ele>938.2</ele>
        <time>2023-02-21T10:48:31Z</time>
      </trkpt>
      <trkpt lat="44.14994" lon="6.22859">
        <ele>936.4</ele>
        <time>2023-02-21T10:48:33Z</time>
      </trkpt>
      <trkpt lat="44.14991" lon="6.22866">
        <ele>935.4</ele>
        <time>2023-02-21T10:48:35Z</time>
      </trkpt>
      <trkpt lat="44.14989" lon="6.2287">
        <ele>934.8</ele>
        <time>2023-02-21T10:48:36Z</time>
      </trkpt>
      <trkpt lat="44.14987" lon="6.22877">
        <ele>934.2</ele>
        <time>2023-02-21T10:48:37Z</time>
      </trkpt>
      <trkpt lat="44.14984" lon="6.22898">
        <ele>933</ele>
        <time>2023-02-21T10:48:40Z</time>
      </trkpt>
      <trkpt lat="44.14982" lon="6.22903">
        <ele>933</ele>
        <time>2023-02-21T10:48:41Z</time>
      </trkpt>
      <trkpt lat="44.14976" lon="6.22909">
        <ele>932.6</ele>
        <time>2023-02-21T10:48:43Z</time>
      </trkpt>
      <trkpt lat="44.14971" lon="6.22922">
        <ele>932</ele>
        <time>2023-02-21T10:48:45Z</time>
      </trkpt>
      <trkpt lat="44.14969" lon="6.22929">
        <ele>931.6</ele>
        <time>2023-02-21T10:48:46Z</time>
      </trkpt>
      <trkpt lat="44.14966" lon="6.22942">
        <ele>931</ele>
        <time>2023-02-21T10:48:49Z</time>
      </trkpt>
      <trkpt lat="44.14971" lon="6.22961">
        <ele>930.8</ele>
        <time>2023-02-21T10:48:54Z</time>
      </trkpt>
      <trkpt lat="44.14975" lon="6.22967">
        <ele>929.8</ele>
        <time>2023-02-21T10:48:56Z</time>
      </trkpt>
      <trkpt lat="44.14975" lon="6.22975">
        <ele>928.4</ele>
        <time>2023-02-21T10:48:58Z</time>
      </trkpt>
      <trkpt lat="44.14975" lon="6.22983">
        <ele>927.2</ele>
        <time>2023-02-21T10:49:00Z</time>
      </trkpt>
      <trkpt lat="44.14975" lon="6.22988">
        <ele>926</ele>
        <time>2023-02-21T10:49:01Z</time>
      </trkpt>
      <trkpt lat="44.14975" lon="6.22993">
        <ele>925</ele>
        <time>2023-02-21T10:49:02Z</time>
      </trkpt>
      <trkpt lat="44.14973" lon="6.23002">
        <ele>923.4</ele>
        <time>2023-02-21T10:49:04Z</time>
      </trkpt>
      <trkpt lat="44.14971" lon="6.23012">
        <ele>922.8</ele>
        <time>2023-02-21T10:49:06Z</time>
      </trkpt>
      <trkpt lat="44.14965" lon="6.23029">
        <ele>922.2</ele>
        <time>2023-02-21T10:49:09Z</time>
      </trkpt>
      <trkpt lat="44.14957" lon="6.23036">
        <ele>921.4</ele>
        <time>2023-02-21T10:49:11Z</time>
      </trkpt>
      <trkpt lat="44.14953" lon="6.23037">
        <ele>920.8</ele>
        <time>2023-02-21T10:49:12Z</time>
      </trkpt>
      <trkpt lat="44.14946" lon="6.23039">
        <ele>918.8</ele>
        <time>2023-02-21T10:49:14Z</time>
      </trkpt>
      <trkpt lat="44.14944" lon="6.23042">
        <ele>917.8</ele>
        <time>2023-02-21T10:49:15Z</time>
      </trkpt>
      <trkpt lat="44.14941" lon="6.23046">
        <ele>916.6</ele>
        <time>2023-02-21T10:49:16Z</time>
      </trkpt>
      <trkpt lat="44.14939" lon="6.23049">
        <ele>915.4</ele>
        <time>2023-02-21T10:49:17Z</time>
      </trkpt>
      <trkpt lat="44.14935" lon="6.23054">
        <ele>913.4</ele>
        <time>2023-02-21T10:49:19Z</time>
      </trkpt>
      <trkpt lat="44.14934" lon="6.23055">
        <ele>912.4</ele>
        <time>2023-02-21T10:49:20Z</time>
      </trkpt>
      <trkpt lat="44.14934" lon="6.23057">
        <ele>911</ele>
        <time>2023-02-21T10:49:21Z</time>
      </trkpt>
      <trkpt lat="44.14936" lon="6.2306">
        <ele>909.2</ele>
        <time>2023-02-21T10:49:23Z</time>
      </trkpt>
      <trkpt lat="44.1494" lon="6.23061">
        <ele>908.6</ele>
        <time>2023-02-21T10:49:24Z</time>
      </trkpt>
      <trkpt lat="44.14944" lon="6.23063">
        <ele>907.8</ele>
        <time>2023-02-21T10:49:25Z</time>
      </trkpt>
      <trkpt lat="44.14948" lon="6.23066">
        <ele>907</ele>
        <time>2023-02-21T10:49:26Z</time>
      </trkpt>
      <trkpt lat="44.14952" lon="6.23069">
        <ele>906.2</ele>
        <time>2023-02-21T10:49:27Z</time>
      </trkpt>
      <trkpt lat="44.14952" lon="6.23072">
        <ele>905.4</ele>
        <time>2023-02-21T10:49:28Z</time>
      </trkpt>
      <trkpt lat="44.14952" lon="6.23075">
        <ele>904.8</ele>
        <time>2023-02-21T10:49:29Z</time>
      </trkpt>
      <trkpt lat="44.14951" lon="6.23081">
        <ele>903.6</ele>
        <time>2023-02-21T10:49:31Z</time>
      </trkpt>
      <trkpt lat="44.1495" lon="6.23088">
        <ele>901.8</ele>
        <time>2023-02-21T10:49:33Z</time>
      </trkpt>
      <trkpt lat="44.14949" lon="6.23095">
        <ele>900.4</ele>
        <time>2023-02-21T10:49:35Z</time>
      </trkpt>
      <trkpt lat="44.14948" lon="6.23098">
        <ele>899.6</ele>
        <time>2023-02-21T10:49:36Z</time>
      </trkpt>
      <trkpt lat="44.14948" lon="6.23103">
        <ele>898.8</ele>
        <time>2023-02-21T10:49:37Z</time>
      </trkpt>
      <trkpt lat="44.14948" lon="6.23113">
        <ele>897.6</ele>
        <time>2023-02-21T10:49:39Z</time>
      </trkpt>
      <trkpt lat="44.14948" lon="6.2313">
        <ele>896.4</ele>
        <time>2023-02-21T10:49:43Z</time>
      </trkpt>
      <trkpt lat="44.14945" lon="6.23144">
        <ele>896.2</ele>
        <time>2023-02-21T10:49:46Z</time>
      </trkpt>
      <trkpt lat="44.14925" lon="6.23164">
        <ele>896.6</ele>
        <time>2023-02-21T10:49:56Z</time>
      </trkpt>
      <trkpt lat="44.14919" lon="6.23171">
        <ele>897.8</ele>
        <time>2023-02-21T10:49:59Z</time>
      </trkpt>
      <trkpt lat="44.14912" lon="6.23177">
        <ele>898</ele>
        <time>2023-02-21T10:50:02Z</time>
      </trkpt>
      <trkpt lat="44.14901" lon="6.23179">
        <ele>896.2</ele>
        <time>2023-02-21T10:50:05Z</time>
      </trkpt>
      <trkpt lat="44.14897" lon="6.23182">
        <ele>895.4</ele>
        <time>2023-02-21T10:50:06Z</time>
      </trkpt>
      <trkpt lat="44.14893" lon="6.23186">
        <ele>894.6</ele>
        <time>2023-02-21T10:50:07Z</time>
      </trkpt>
      <trkpt lat="44.14888" lon="6.23191">
        <ele>893.6</ele>
        <time>2023-02-21T10:50:08Z</time>
      </trkpt>
      <trkpt lat="44.14884" lon="6.23196">
        <ele>892.2</ele>
        <time>2023-02-21T10:50:09Z</time>
      </trkpt>
      <trkpt lat="44.14881" lon="6.23202">
        <ele>890.8</ele>
        <time>2023-02-21T10:50:10Z</time>
      </trkpt>
      <trkpt lat="44.14878" lon="6.23208">
        <ele>889.2</ele>
        <time>2023-02-21T10:50:11Z</time>
      </trkpt>
      <trkpt lat="44.14876" lon="6.23215">
        <ele>888.2</ele>
        <time>2023-02-21T10:50:12Z</time>
      </trkpt>
      <trkpt lat="44.14872" lon="6.23226">
        <ele>886.6</ele>
        <time>2023-02-21T10:50:14Z</time>
      </trkpt>
      <trkpt lat="44.14869" lon="6.23237">
        <ele>885.4</ele>
        <time>2023-02-21T10:50:16Z</time>
      </trkpt>
      <trkpt lat="44.14868" lon="6.23242">
        <ele>884.2</ele>
        <time>2023-02-21T10:50:17Z</time>
      </trkpt>
      <trkpt lat="44.14866" lon="6.23248">
        <ele>883</ele>
        <time>2023-02-21T10:50:18Z</time>
      </trkpt>
      <trkpt lat="44.14863" lon="6.23254">
        <ele>881.6</ele>
        <time>2023-02-21T10:50:19Z</time>
      </trkpt>
      <trkpt lat="44.14859" lon="6.23265">
        <ele>880</ele>
        <time>2023-02-21T10:50:21Z</time>
      </trkpt>
      <trkpt lat="44.14855" lon="6.23274">
        <ele>877.8</ele>
        <time>2023-02-21T10:50:23Z</time>
      </trkpt>
      <trkpt lat="44.14853" lon="6.23279">
        <ele>876.6</ele>
        <time>2023-02-21T10:50:24Z</time>
      </trkpt>
      <trkpt lat="44.14851" lon="6.23282">
        <ele>875.4</ele>
        <time>2023-02-21T10:50:25Z</time>
      </trkpt>
      <trkpt lat="44.1485" lon="6.23286">
        <ele>873.8</ele>
        <time>2023-02-21T10:50:26Z</time>
      </trkpt>
      <trkpt lat="44.14849" lon="6.2329">
        <ele>872.4</ele>
        <time>2023-02-21T10:50:27Z</time>
      </trkpt>
      <trkpt lat="44.14849" lon="6.23293">
        <ele>871.2</ele>
        <time>2023-02-21T10:50:28Z</time>
      </trkpt>
      <trkpt lat="44.14849" lon="6.23295">
        <ele>870.4</ele>
        <time>2023-02-21T10:50:29Z</time>
      </trkpt>
      <trkpt lat="44.1485" lon="6.23297">
        <ele>869.8</ele>
        <time>2023-02-21T10:50:30Z</time>
      </trkpt>
      <trkpt lat="44.1485" lon="6.23299">
        <ele>869.4</ele>
        <time>2023-02-21T10:50:31Z</time>
      </trkpt>
      <trkpt lat="44.1485" lon="6.23303">
        <ele>868</ele>
        <time>2023-02-21T10:50:33Z</time>
      </trkpt>
      <trkpt lat="44.14848" lon="6.23305">
        <ele>867</ele>
        <time>2023-02-21T10:50:34Z</time>
      </trkpt>
      <trkpt lat="44.14846" lon="6.23308">
        <ele>865.4</ele>
        <time>2023-02-21T10:50:36Z</time>
      </trkpt>
      <trkpt lat="44.14845" lon="6.23309">
        <ele>864.8</ele>
        <time>2023-02-21T10:50:37Z</time>
      </trkpt>
      <trkpt lat="44.14843" lon="6.23309">
        <ele>864.2</ele>
        <time>2023-02-21T10:50:38Z</time>
      </trkpt>
      <trkpt lat="44.14841" lon="6.2331">
        <ele>863.6</ele>
        <time>2023-02-21T10:50:39Z</time>
      </trkpt>
      <trkpt lat="44.14839" lon="6.23313">
        <ele>863.2</ele>
        <time>2023-02-21T10:50:40Z</time>
      </trkpt>
      <trkpt lat="44.14833" lon="6.2332">
        <ele>860.8</ele>
        <time>2023-02-21T10:50:42Z</time>
      </trkpt>
      <trkpt lat="44.1483" lon="6.23325">
        <ele>859</ele>
        <time>2023-02-21T10:50:43Z</time>
      </trkpt>
      <trkpt lat="44.14828" lon="6.23331">
        <ele>857.4</ele>
        <time>2023-02-21T10:50:44Z</time>
      </trkpt>
      <trkpt lat="44.14825" lon="6.23337">
        <ele>856.4</ele>
        <time>2023-02-21T10:50:45Z</time>
      </trkpt>
      <trkpt lat="44.14824" lon="6.23342">
        <ele>855.8</ele>
        <time>2023-02-21T10:50:46Z</time>
      </trkpt>
      <trkpt lat="44.14822" lon="6.23348">
        <ele>855</ele>
        <time>2023-02-21T10:50:47Z</time>
      </trkpt>
      <trkpt lat="44.14817" lon="6.23362">
        <ele>853.4</ele>
        <time>2023-02-21T10:50:49Z</time>
      </trkpt>
      <trkpt lat="44.14813" lon="6.23374">
        <ele>852</ele>
        <time>2023-02-21T10:50:51Z</time>
      </trkpt>
      <trkpt lat="44.1481" lon="6.23386">
        <ele>851.2</ele>
        <time>2023-02-21T10:50:53Z</time>
      </trkpt>
      <trkpt lat="44.14808" lon="6.23391">
        <ele>850.4</ele>
        <time>2023-02-21T10:50:54Z</time>
      </trkpt>
      <trkpt lat="44.14804" lon="6.23402">
        <ele>848.8</ele>
        <time>2023-02-21T10:50:56Z</time>
      </trkpt>
      <trkpt lat="44.14799" lon="6.23415">
        <ele>846.8</ele>
        <time>2023-02-21T10:50:58Z</time>
      </trkpt>
      <trkpt lat="44.14795" lon="6.23429">
        <ele>845.2</ele>
        <time>2023-02-21T10:51:00Z</time>
      </trkpt>
      <trkpt lat="44.14789" lon="6.23445">
        <ele>844</ele>
        <time>2023-02-21T10:51:02Z</time>
      </trkpt>
      <trkpt lat="44.14784" lon="6.23459">
        <ele>842.2</ele>
        <time>2023-02-21T10:51:04Z</time>
      </trkpt>
      <trkpt lat="44.14779" lon="6.23471">
        <ele>840.8</ele>
        <time>2023-02-21T10:51:06Z</time>
      </trkpt>
      <trkpt lat="44.14777" lon="6.23478">
        <ele>840.6</ele>
        <time>2023-02-21T10:51:07Z</time>
      </trkpt>
      <trkpt lat="44.14773" lon="6.23492">
        <ele>839</ele>
        <time>2023-02-21T10:51:09Z</time>
      </trkpt>
      <trkpt lat="44.1477" lon="6.23499">
        <ele>838</ele>
        <time>2023-02-21T10:51:10Z</time>
      </trkpt>
      <trkpt lat="44.14764" lon="6.23512">
        <ele>836.6</ele>
        <time>2023-02-21T10:51:12Z</time>
      </trkpt>
      <trkpt lat="44.1476" lon="6.23521">
        <ele>835.4</ele>
        <time>2023-02-21T10:51:14Z</time>
      </trkpt>
      <trkpt lat="44.14758" lon="6.2353">
        <ele>834.2</ele>
        <time>2023-02-21T10:51:16Z</time>
      </trkpt>
      <trkpt lat="44.14755" lon="6.23535">
        <ele>832.6</ele>
        <time>2023-02-21T10:51:18Z</time>
      </trkpt>
      <trkpt lat="44.14752" lon="6.2354">
        <ele>831.2</ele>
        <time>2023-02-21T10:51:20Z</time>
      </trkpt>
      <trkpt lat="44.14751" lon="6.23542">
        <ele>830.6</ele>
        <time>2023-02-21T10:51:21Z</time>
      </trkpt>
      <trkpt lat="44.14751" lon="6.23546">
        <ele>829.8</ele>
        <time>2023-02-21T10:51:22Z</time>
      </trkpt>
      <trkpt lat="44.14753" lon="6.23549">
        <ele>829</ele>
        <time>2023-02-21T10:51:23Z</time>
      </trkpt>
      <trkpt lat="44.14756" lon="6.23552">
        <ele>828</ele>
        <time>2023-02-21T10:51:24Z</time>
      </trkpt>
      <trkpt lat="44.1476" lon="6.23555">
        <ele>827</ele>
        <time>2023-02-21T10:51:25Z</time>
      </trkpt>
      <trkpt lat="44.14764" lon="6.23557">
        <ele>826</ele>
        <time>2023-02-21T10:51:26Z</time>
      </trkpt>
      <trkpt lat="44.14767" lon="6.23558">
        <ele>825</ele>
        <time>2023-02-21T10:51:27Z</time>
      </trkpt>
      <trkpt lat="44.1477" lon="6.2356">
        <ele>824.2</ele>
        <time>2023-02-21T10:51:28Z</time>
      </trkpt>
      <trkpt lat="44.14773" lon="6.2356">
        <ele>823.4</ele>
        <time>2023-02-21T10:51:29Z</time>
      </trkpt>
      <trkpt lat="44.14778" lon="6.23559">
        <ele>821.6</ele>
        <time>2023-02-21T10:51:31Z</time>
      </trkpt>
      <trkpt lat="44.14781" lon="6.23559">
        <ele>820.6</ele>
        <time>2023-02-21T10:51:32Z</time>
      </trkpt>
      <trkpt lat="44.14781" lon="6.23561">
        <ele>819.4</ele>
        <time>2023-02-21T10:51:33Z</time>
      </trkpt>
      <trkpt lat="44.14779" lon="6.23565">
        <ele>818.4</ele>
        <time>2023-02-21T10:51:34Z</time>
      </trkpt>
      <trkpt lat="44.14777" lon="6.23573">
        <ele>816.6</ele>
        <time>2023-02-21T10:51:36Z</time>
      </trkpt>
      <trkpt lat="44.14775" lon="6.23582">
        <ele>815.2</ele>
        <time>2023-02-21T10:51:38Z</time>
      </trkpt>
      <trkpt lat="44.14773" lon="6.2359">
        <ele>813.6</ele>
        <time>2023-02-21T10:51:40Z</time>
      </trkpt>
      <trkpt lat="44.14772" lon="6.23594">
        <ele>812.8</ele>
        <time>2023-02-21T10:51:41Z</time>
      </trkpt>
      <trkpt lat="44.1477" lon="6.23596">
        <ele>812.2</ele>
        <time>2023-02-21T10:51:42Z</time>
      </trkpt>
      <trkpt lat="44.14766" lon="6.236">
        <ele>810.8</ele>
        <time>2023-02-21T10:51:44Z</time>
      </trkpt>
      <trkpt lat="44.14764" lon="6.23603">
        <ele>809.6</ele>
        <time>2023-02-21T10:51:46Z</time>
      </trkpt>
      <trkpt lat="44.14765" lon="6.23608">
        <ele>808.2</ele>
        <time>2023-02-21T10:51:48Z</time>
      </trkpt>
      <trkpt lat="44.1477" lon="6.23615">
        <ele>806.2</ele>
        <time>2023-02-21T10:51:50Z</time>
      </trkpt>
      <trkpt lat="44.14775" lon="6.23621">
        <ele>804.4</ele>
        <time>2023-02-21T10:51:52Z</time>
      </trkpt>
      <trkpt lat="44.1478" lon="6.23626">
        <ele>802.8</ele>
        <time>2023-02-21T10:51:54Z</time>
      </trkpt>
      <trkpt lat="44.14787" lon="6.23629">
        <ele>800.8</ele>
        <time>2023-02-21T10:51:56Z</time>
      </trkpt>
      <trkpt lat="44.14793" lon="6.23632">
        <ele>798.8</ele>
        <time>2023-02-21T10:51:58Z</time>
      </trkpt>
      <trkpt lat="44.14795" lon="6.23634">
        <ele>798</ele>
        <time>2023-02-21T10:51:59Z</time>
      </trkpt>
      <trkpt lat="44.14795" lon="6.23638">
        <ele>797.4</ele>
        <time>2023-02-21T10:52:00Z</time>
      </trkpt>
      <trkpt lat="44.14791" lon="6.23648">
        <ele>795.6</ele>
        <time>2023-02-21T10:52:02Z</time>
      </trkpt>
      <trkpt lat="44.14785" lon="6.23658">
        <ele>793.8</ele>
        <time>2023-02-21T10:52:04Z</time>
      </trkpt>
      <trkpt lat="44.14779" lon="6.23663">
        <ele>792.4</ele>
        <time>2023-02-21T10:52:06Z</time>
      </trkpt>
      <trkpt lat="44.14774" lon="6.23665">
        <ele>791</ele>
        <time>2023-02-21T10:52:08Z</time>
      </trkpt>
      <trkpt lat="44.14771" lon="6.23667">
        <ele>789.6</ele>
        <time>2023-02-21T10:52:10Z</time>
      </trkpt>
      <trkpt lat="44.14771" lon="6.23669">
        <ele>788.2</ele>
        <time>2023-02-21T10:52:12Z</time>
      </trkpt>
      <trkpt lat="44.14774" lon="6.23674">
        <ele>786.6</ele>
        <time>2023-02-21T10:52:14Z</time>
      </trkpt>
      <trkpt lat="44.14776" lon="6.23679">
        <ele>785.4</ele>
        <time>2023-02-21T10:52:16Z</time>
      </trkpt>
      <trkpt lat="44.14776" lon="6.23682">
        <ele>785</ele>
        <time>2023-02-21T10:52:17Z</time>
      </trkpt>
      <trkpt lat="44.14777" lon="6.23688">
        <ele>784</ele>
        <time>2023-02-21T10:52:19Z</time>
      </trkpt>
      <trkpt lat="44.14779" lon="6.23694">
        <ele>782</ele>
        <time>2023-02-21T10:52:21Z</time>
      </trkpt>
      <trkpt lat="44.1478" lon="6.23697">
        <ele>780.8</ele>
        <time>2023-02-21T10:52:22Z</time>
      </trkpt>
      <trkpt lat="44.14782" lon="6.23699">
        <ele>779.8</ele>
        <time>2023-02-21T10:52:23Z</time>
      </trkpt>
      <trkpt lat="44.14786" lon="6.23703">
        <ele>777.8</ele>
        <time>2023-02-21T10:52:25Z</time>
      </trkpt>
      <trkpt lat="44.14788" lon="6.23705">
        <ele>777</ele>
        <time>2023-02-21T10:52:26Z</time>
      </trkpt>
      <trkpt lat="44.14789" lon="6.23708">
        <ele>776.2</ele>
        <time>2023-02-21T10:52:27Z</time>
      </trkpt>
      <trkpt lat="44.14791" lon="6.23712">
        <ele>774.8</ele>
        <time>2023-02-21T10:52:29Z</time>
      </trkpt>
      <trkpt lat="44.1479" lon="6.23716">
        <ele>773.2</ele>
        <time>2023-02-21T10:52:31Z</time>
      </trkpt>
      <trkpt lat="44.14792" lon="6.2372">
        <ele>771.8</ele>
        <time>2023-02-21T10:52:33Z</time>
      </trkpt>
      <trkpt lat="44.14792" lon="6.23726">
        <ele>770.6</ele>
        <time>2023-02-21T10:52:35Z</time>
      </trkpt>
      <trkpt lat="44.14792" lon="6.23728">
        <ele>769.8</ele>
        <time>2023-02-21T10:52:36Z</time>
      </trkpt>
      <trkpt lat="44.14791" lon="6.2373">
        <ele>769</ele>
        <time>2023-02-21T10:52:37Z</time>
      </trkpt>
      <trkpt lat="44.14789" lon="6.23733">
        <ele>767.8</ele>
        <time>2023-02-21T10:52:39Z</time>
      </trkpt>
      <trkpt lat="44.14787" lon="6.23736">
        <ele>766.6</ele>
        <time>2023-02-21T10:52:42Z</time>
      </trkpt>
      <trkpt lat="44.14788" lon="6.23737">
        <ele>766.2</ele>
        <time>2023-02-21T10:52:43Z</time>
      </trkpt>
      <trkpt lat="44.14791" lon="6.23741">
        <ele>765.2</ele>
        <time>2023-02-21T10:52:45Z</time>
      </trkpt>
      <trkpt lat="44.14794" lon="6.23743">
        <ele>764.6</ele>
        <time>2023-02-21T10:52:46Z</time>
      </trkpt>
      <trkpt lat="44.14796" lon="6.23744">
        <ele>764</ele>
        <time>2023-02-21T10:52:47Z</time>
      </trkpt>
      <trkpt lat="44.14801" lon="6.23747">
        <ele>762.6</ele>
        <time>2023-02-21T10:52:50Z</time>
      </trkpt>
      <trkpt lat="44.14801" lon="6.2375">
        <ele>761.4</ele>
        <time>2023-02-21T10:52:52Z</time>
      </trkpt>
      <trkpt lat="44.14798" lon="6.23755">
        <ele>760</ele>
        <time>2023-02-21T10:52:55Z</time>
      </trkpt>
      <trkpt lat="44.14798" lon="6.23758">
        <ele>759.6</ele>
        <time>2023-02-21T10:52:56Z</time>
      </trkpt>
      <trkpt lat="44.14798" lon="6.23761">
        <ele>759</ele>
        <time>2023-02-21T10:52:57Z</time>
      </trkpt>
      <trkpt lat="44.148" lon="6.23765">
        <ele>757.6</ele>
        <time>2023-02-21T10:52:59Z</time>
      </trkpt>
      <trkpt lat="44.148" lon="6.23769">
        <ele>756.4</ele>
        <time>2023-02-21T10:53:01Z</time>
      </trkpt>
      <trkpt lat="44.14798" lon="6.23771">
        <ele>755.4</ele>
        <time>2023-02-21T10:53:03Z</time>
      </trkpt>
      <trkpt lat="44.14798" lon="6.23773">
        <ele>755</ele>
        <time>2023-02-21T10:53:04Z</time>
      </trkpt>
      <trkpt lat="44.14801" lon="6.23777">
        <ele>754.4</ele>
        <time>2023-02-21T10:53:06Z</time>
      </trkpt>
      <trkpt lat="44.14806" lon="6.23779">
        <ele>753.4</ele>
        <time>2023-02-21T10:53:08Z</time>
      </trkpt>
      <trkpt lat="44.14808" lon="6.23781">
        <ele>752.6</ele>
        <time>2023-02-21T10:53:09Z</time>
      </trkpt>
      <trkpt lat="44.14808" lon="6.23783">
        <ele>751.8</ele>
        <time>2023-02-21T10:53:10Z</time>
      </trkpt>
      <trkpt lat="44.14807" lon="6.2379">
        <ele>750.6</ele>
        <time>2023-02-21T10:53:12Z</time>
      </trkpt>
      <trkpt lat="44.14805" lon="6.23795">
        <ele>749.2</ele>
        <time>2023-02-21T10:53:14Z</time>
      </trkpt>
      <trkpt lat="44.14804" lon="6.23799">
        <ele>748</ele>
        <time>2023-02-21T10:53:16Z</time>
      </trkpt>
      <trkpt lat="44.14803" lon="6.23801">
        <ele>747</ele>
        <time>2023-02-21T10:53:18Z</time>
      </trkpt>
      <trkpt lat="44.14802" lon="6.23803">
        <ele>746.8</ele>
        <time>2023-02-21T10:53:19Z</time>
      </trkpt>
      <trkpt lat="44.148" lon="6.23806">
        <ele>745.6</ele>
        <time>2023-02-21T10:53:21Z</time>
      </trkpt>
      <trkpt lat="44.14799" lon="6.23809">
        <ele>744</ele>
        <time>2023-02-21T10:53:23Z</time>
      </trkpt>
      <trkpt lat="44.14797" lon="6.2381">
        <ele>742.8</ele>
        <time>2023-02-21T10:53:25Z</time>
      </trkpt>
      <trkpt lat="44.14797" lon="6.23811">
        <ele>742.4</ele>
        <time>2023-02-21T10:53:26Z</time>
      </trkpt>
      <trkpt lat="44.14795" lon="6.23812">
        <ele>741.8</ele>
        <time>2023-02-21T10:53:27Z</time>
      </trkpt>
      <trkpt lat="44.14794" lon="6.23813">
        <ele>741</ele>
        <time>2023-02-21T10:53:28Z</time>
      </trkpt>
      <trkpt lat="44.14793" lon="6.23814">
        <ele>739.8</ele>
        <time>2023-02-21T10:53:29Z</time>
      </trkpt>
      <trkpt lat="44.1479" lon="6.23816">
        <ele>738.2</ele>
        <time>2023-02-21T10:53:31Z</time>
      </trkpt>
      <trkpt lat="44.14787" lon="6.23818">
        <ele>736.6</ele>
        <time>2023-02-21T10:53:33Z</time>
      </trkpt>
      <trkpt lat="44.14785" lon="6.23819">
        <ele>734.8</ele>
        <time>2023-02-21T10:53:35Z</time>
      </trkpt>
      <trkpt lat="44.14784" lon="6.23819">
        <ele>733.8</ele>
        <time>2023-02-21T10:53:36Z</time>
      </trkpt>
      <trkpt lat="44.14783" lon="6.2382">
        <ele>732.6</ele>
        <time>2023-02-21T10:53:37Z</time>
      </trkpt>
      <trkpt lat="44.14781" lon="6.23821">
        <ele>731.4</ele>
        <time>2023-02-21T10:53:38Z</time>
      </trkpt>
      <trkpt lat="44.1478" lon="6.23821">
        <ele>730.4</ele>
        <time>2023-02-21T10:53:39Z</time>
      </trkpt>
      <trkpt lat="44.14779" lon="6.2382">
        <ele>729.2</ele>
        <time>2023-02-21T10:53:40Z</time>
      </trkpt>
      <trkpt lat="44.14778" lon="6.23821">
        <ele>727.4</ele>
        <time>2023-02-21T10:53:42Z</time>
      </trkpt>
      <trkpt lat="44.14775" lon="6.23822">
        <ele>726.2</ele>
        <time>2023-02-21T10:53:44Z</time>
      </trkpt>
      <trkpt lat="44.14773" lon="6.23822">
        <ele>725.4</ele>
        <time>2023-02-21T10:53:46Z</time>
      </trkpt>
      <trkpt lat="44.14772" lon="6.23822">
        <ele>724.8</ele>
        <time>2023-02-21T10:53:47Z</time>
      </trkpt>
      <trkpt lat="44.1477" lon="6.23822">
        <ele>723.4</ele>
        <time>2023-02-21T10:53:49Z</time>
      </trkpt>
      <trkpt lat="44.14765" lon="6.23823">
        <ele>721.2</ele>
        <time>2023-02-21T10:53:51Z</time>
      </trkpt>
      <trkpt lat="44.14762" lon="6.23824">
        <ele>719.8</ele>
        <time>2023-02-21T10:53:52Z</time>
      </trkpt>
      <trkpt lat="44.14759" lon="6.23824">
        <ele>718.4</ele>
        <time>2023-02-21T10:53:53Z</time>
      </trkpt>
      <trkpt lat="44.14756" lon="6.23825">
        <ele>717.2</ele>
        <time>2023-02-21T10:53:54Z</time>
      </trkpt>
      <trkpt lat="44.14753" lon="6.23825">
        <ele>716.2</ele>
        <time>2023-02-21T10:53:55Z</time>
      </trkpt>
      <trkpt lat="44.1475" lon="6.23823">
        <ele>715.4</ele>
        <time>2023-02-21T10:53:56Z</time>
      </trkpt>
      <trkpt lat="44.14744" lon="6.2382">
        <ele>714</ele>
        <time>2023-02-21T10:53:58Z</time>
      </trkpt>
      <trkpt lat="44.14737" lon="6.23817">
        <ele>712.8</ele>
        <time>2023-02-21T10:54:00Z</time>
      </trkpt>
      <trkpt lat="44.14727" lon="6.2381">
        <ele>712.2</ele>
        <time>2023-02-21T10:54:03Z</time>
      </trkpt>
      <trkpt lat="44.14718" lon="6.23807">
        <ele>711.4</ele>
        <time>2023-02-21T10:54:06Z</time>
      </trkpt>
      <trkpt lat="44.14713" lon="6.23809">
        <ele>709.8</ele>
        <time>2023-02-21T10:54:08Z</time>
      </trkpt>
      <trkpt lat="44.14708" lon="6.23808">
        <ele>708</ele>
        <time>2023-02-21T10:54:10Z</time>
      </trkpt>
      <trkpt lat="44.14705" lon="6.23807">
        <ele>707</ele>
        <time>2023-02-21T10:54:11Z</time>
      </trkpt>
      <trkpt lat="44.14703" lon="6.23806">
        <ele>705.8</ele>
        <time>2023-02-21T10:54:12Z</time>
      </trkpt>
      <trkpt lat="44.147" lon="6.23804">
        <ele>704.8</ele>
        <time>2023-02-21T10:54:13Z</time>
      </trkpt>
      <trkpt lat="44.14691" lon="6.23803">
        <ele>702.6</ele>
        <time>2023-02-21T10:54:15Z</time>
      </trkpt>
      <trkpt lat="44.14688" lon="6.23803">
        <ele>701.4</ele>
        <time>2023-02-21T10:54:16Z</time>
      </trkpt>
      <trkpt lat="44.14686" lon="6.23804">
        <ele>700.2</ele>
        <time>2023-02-21T10:54:17Z</time>
      </trkpt>
      <trkpt lat="44.14685" lon="6.23806">
        <ele>699.2</ele>
        <time>2023-02-21T10:54:18Z</time>
      </trkpt>
      <trkpt lat="44.14685" lon="6.23811">
        <ele>697.4</ele>
        <time>2023-02-21T10:54:20Z</time>
      </trkpt>
      <trkpt lat="44.14686" lon="6.23818">
        <ele>695.6</ele>
        <time>2023-02-21T10:54:22Z</time>
      </trkpt>
      <trkpt lat="44.14688" lon="6.23824">
        <ele>694</ele>
        <time>2023-02-21T10:54:24Z</time>
      </trkpt>
      <trkpt lat="44.1469" lon="6.23833">
        <ele>692.6</ele>
        <time>2023-02-21T10:54:26Z</time>
      </trkpt>
      <trkpt lat="44.14692" lon="6.2384">
        <ele>690.6</ele>
        <time>2023-02-21T10:54:28Z</time>
      </trkpt>
      <trkpt lat="44.14694" lon="6.23843">
        <ele>689.4</ele>
        <time>2023-02-21T10:54:29Z</time>
      </trkpt>
      <trkpt lat="44.14695" lon="6.23845">
        <ele>688.4</ele>
        <time>2023-02-21T10:54:30Z</time>
      </trkpt>
      <trkpt lat="44.14696" lon="6.23855">
        <ele>686.2</ele>
        <time>2023-02-21T10:54:32Z</time>
      </trkpt>
      <trkpt lat="44.14696" lon="6.23861">
        <ele>684.6</ele>
        <time>2023-02-21T10:54:33Z</time>
      </trkpt>
      <trkpt lat="44.14696" lon="6.23865">
        <ele>683.2</ele>
        <time>2023-02-21T10:54:34Z</time>
      </trkpt>
      <trkpt lat="44.14697" lon="6.2387">
        <ele>681.8</ele>
        <time>2023-02-21T10:54:35Z</time>
      </trkpt>
      <trkpt lat="44.14699" lon="6.23875">
        <ele>680.6</ele>
        <time>2023-02-21T10:54:36Z</time>
      </trkpt>
      <trkpt lat="44.147" lon="6.23879">
        <ele>679.6</ele>
        <time>2023-02-21T10:54:37Z</time>
      </trkpt>
      <trkpt lat="44.14701" lon="6.23883">
        <ele>678.4</ele>
        <time>2023-02-21T10:54:38Z</time>
      </trkpt>
      <trkpt lat="44.14703" lon="6.23886">
        <ele>677.4</ele>
        <time>2023-02-21T10:54:39Z</time>
      </trkpt>
      <trkpt lat="44.14708" lon="6.23891">
        <ele>675.4</ele>
        <time>2023-02-21T10:54:41Z</time>
      </trkpt>
      <trkpt lat="44.14712" lon="6.23896">
        <ele>673.6</ele>
        <time>2023-02-21T10:54:43Z</time>
      </trkpt>
      <trkpt lat="44.14715" lon="6.23906">
        <ele>671.6</ele>
        <time>2023-02-21T10:54:45Z</time>
      </trkpt>
      <trkpt lat="44.14717" lon="6.2391">
        <ele>670.4</ele>
        <time>2023-02-21T10:54:46Z</time>
      </trkpt>
      <trkpt lat="44.14718" lon="6.23915">
        <ele>669</ele>
        <time>2023-02-21T10:54:47Z</time>
      </trkpt>
      <trkpt lat="44.1472" lon="6.23919">
        <ele>667.6</ele>
        <time>2023-02-21T10:54:48Z</time>
      </trkpt>
      <trkpt lat="44.14722" lon="6.23924">
        <ele>666.4</ele>
        <time>2023-02-21T10:54:49Z</time>
      </trkpt>
      <trkpt lat="44.14725" lon="6.23935">
        <ele>664.8</ele>
        <time>2023-02-21T10:54:51Z</time>
      </trkpt>
      <trkpt lat="44.14726" lon="6.23942">
        <ele>663.6</ele>
        <time>2023-02-21T10:54:52Z</time>
      </trkpt>
      <trkpt lat="44.14727" lon="6.23948">
        <ele>662</ele>
        <time>2023-02-21T10:54:53Z</time>
      </trkpt>
      <trkpt lat="44.14729" lon="6.23954">
        <ele>660.6</ele>
        <time>2023-02-21T10:54:54Z</time>
      </trkpt>
      <trkpt lat="44.14731" lon="6.2396">
        <ele>659.4</ele>
        <time>2023-02-21T10:54:55Z</time>
      </trkpt>
      <trkpt lat="44.14733" lon="6.23966">
        <ele>658.6</ele>
        <time>2023-02-21T10:54:56Z</time>
      </trkpt>
      <trkpt lat="44.14735" lon="6.23972">
        <ele>658.2</ele>
        <time>2023-02-21T10:54:57Z</time>
      </trkpt>
      <trkpt lat="44.14738" lon="6.23977">
        <ele>657.4</ele>
        <time>2023-02-21T10:54:58Z</time>
      </trkpt>
      <trkpt lat="44.14741" lon="6.23982">
        <ele>656.6</ele>
        <time>2023-02-21T10:54:59Z</time>
      </trkpt>
      <trkpt lat="44.14744" lon="6.23987">
        <ele>654.8</ele>
        <time>2023-02-21T10:55:00Z</time>
      </trkpt>
      <trkpt lat="44.14745" lon="6.23991">
        <ele>653</ele>
        <time>2023-02-21T10:55:01Z</time>
      </trkpt>
      <trkpt lat="44.14747" lon="6.23996">
        <ele>651.4</ele>
        <time>2023-02-21T10:55:02Z</time>
      </trkpt>
      <trkpt lat="44.14749" lon="6.24">
        <ele>649.8</ele>
        <time>2023-02-21T10:55:03Z</time>
      </trkpt>
      <trkpt lat="44.14751" lon="6.24004">
        <ele>648.6</ele>
        <time>2023-02-21T10:55:04Z</time>
      </trkpt>
      <trkpt lat="44.14752" lon="6.24007">
        <ele>647.4</ele>
        <time>2023-02-21T10:55:05Z</time>
      </trkpt>
      <trkpt lat="44.14753" lon="6.24011">
        <ele>646.2</ele>
        <time>2023-02-21T10:55:06Z</time>
      </trkpt>
      <trkpt lat="44.14755" lon="6.24019">
        <ele>644.6</ele>
        <time>2023-02-21T10:55:08Z</time>
      </trkpt>
      <trkpt lat="44.14759" lon="6.24029">
        <ele>643</ele>
        <time>2023-02-21T10:55:10Z</time>
      </trkpt>
      <trkpt lat="44.1476" lon="6.24034">
        <ele>641.8</ele>
        <time>2023-02-21T10:55:11Z</time>
      </trkpt>
      <trkpt lat="44.14762" lon="6.24038">
        <ele>640.6</ele>
        <time>2023-02-21T10:55:12Z</time>
      </trkpt>
      <trkpt lat="44.14763" lon="6.24043">
        <ele>639.4</ele>
        <time>2023-02-21T10:55:13Z</time>
      </trkpt>
      <trkpt lat="44.14764" lon="6.24048">
        <ele>638.4</ele>
        <time>2023-02-21T10:55:14Z</time>
      </trkpt>
      <trkpt lat="44.14768" lon="6.24055">
        <ele>636.4</ele>
        <time>2023-02-21T10:55:16Z</time>
      </trkpt>
      <trkpt lat="44.1477" lon="6.24058">
        <ele>635.4</ele>
        <time>2023-02-21T10:55:17Z</time>
      </trkpt>
      <trkpt lat="44.14772" lon="6.2406">
        <ele>634.4</ele>
        <time>2023-02-21T10:55:18Z</time>
      </trkpt>
      <trkpt lat="44.14775" lon="6.24066">
        <ele>632.8</ele>
        <time>2023-02-21T10:55:20Z</time>
      </trkpt>
      <trkpt lat="44.14776" lon="6.24075">
        <ele>631.6</ele>
        <time>2023-02-21T10:55:22Z</time>
      </trkpt>
      <trkpt lat="44.14774" lon="6.24082">
        <ele>630.8</ele>
        <time>2023-02-21T10:55:24Z</time>
      </trkpt>
      <trkpt lat="44.14787" lon="6.24092">
        <ele>629</ele>
        <time>2023-02-21T10:56:00Z</time>
      </trkpt>
      <trkpt lat="44.14797" lon="6.24096">
        <ele>629</ele>
        <time>2023-02-21T10:56:06Z</time>
      </trkpt>
      <trkpt lat="44.14803" lon="6.24099">
        <ele>629</ele>
        <time>2023-02-21T10:56:09Z</time>
      </trkpt>
      <trkpt lat="44.14805" lon="6.241">
        <ele>629.2</ele>
        <time>2023-02-21T10:56:10Z</time>
      </trkpt>
      <trkpt lat="44.14808" lon="6.24101">
        <ele>629.2</ele>
        <time>2023-02-21T10:56:11Z</time>
      </trkpt>
      <trkpt lat="44.14815" lon="6.24104">
        <ele>629.2</ele>
        <time>2023-02-21T10:56:14Z</time>
      </trkpt>
      <trkpt lat="44.14818" lon="6.24106">
        <ele>629.2</ele>
        <time>2023-02-21T10:56:15Z</time>
      </trkpt>
      <trkpt lat="44.1482" lon="6.24107">
        <ele>629.2</ele>
        <time>2023-02-21T10:56:16Z</time>
      </trkpt>
      <trkpt lat="44.14822" lon="6.24109">
        <ele>629.2</ele>
        <time>2023-02-21T10:56:17Z</time>
      </trkpt>
      <trkpt lat="44.14827" lon="6.24112">
        <ele>629.2</ele>
        <time>2023-02-21T10:56:19Z</time>
      </trkpt>
      <trkpt lat="44.1483" lon="6.24113">
        <ele>629.2</ele>
        <time>2023-02-21T10:56:20Z</time>
      </trkpt>
      <trkpt lat="44.14843" lon="6.24123">
        <ele>629.4</ele>
        <time>2023-02-21T10:56:26Z</time>
      </trkpt>
      <trkpt lat="44.14857" lon="6.24135">
        <ele>630</ele>
        <time>2023-02-21T10:56:32Z</time>
      </trkpt>
      <trkpt lat="44.14859" lon="6.24137">
        <ele>630.2</ele>
        <time>2023-02-21T10:56:33Z</time>
      </trkpt>
      <trkpt lat="44.14861" lon="6.24138">
        <ele>630.2</ele>
        <time>2023-02-21T10:56:34Z</time>
      </trkpt>
      <trkpt lat="44.14865" lon="6.24142">
        <ele>630.4</ele>
        <time>2023-02-21T10:56:36Z</time>
      </trkpt>
      <trkpt lat="44.14873" lon="6.24148">
        <ele>630.8</ele>
        <time>2023-02-21T10:56:40Z</time>
      </trkpt>
      <trkpt lat="44.14875" lon="6.24149">
        <ele>630.8</ele>
        <time>2023-02-21T10:56:41Z</time>
      </trkpt>
      <trkpt lat="44.14879" lon="6.2415">
        <ele>631</ele>
        <time>2023-02-21T10:56:43Z</time>
      </trkpt>
      <trkpt lat="44.14882" lon="6.24151">
        <ele>631</ele>
        <time>2023-02-21T10:56:44Z</time>
      </trkpt>
      <trkpt lat="44.14886" lon="6.24154">
        <ele>631.2</ele>
        <time>2023-02-21T10:56:46Z</time>
      </trkpt>
      <trkpt lat="44.14891" lon="6.24158">
        <ele>631.2</ele>
        <time>2023-02-21T10:56:48Z</time>
      </trkpt>
      <trkpt lat="44.14899" lon="6.24163">
        <ele>631.2</ele>
        <time>2023-02-21T10:56:51Z</time>
      </trkpt>
      <trkpt lat="44.14917" lon="6.24174">
        <ele>631.4</ele>
        <time>2023-02-21T10:56:56Z</time>
      </trkpt>
      <trkpt lat="44.14947" lon="6.24198">
        <ele>631.8</ele>
        <time>2023-02-21T10:57:05Z</time>
      </trkpt>
      <trkpt lat="44.14951" lon="6.242">
        <ele>631.8</ele>
        <time>2023-02-21T10:57:06Z</time>
      </trkpt>
      <trkpt lat="44.14974" lon="6.2422">
        <ele>632.8</ele>
        <time>2023-02-21T10:57:13Z</time>
      </trkpt>
      <trkpt lat="44.14984" lon="6.24225">
        <ele>633.2</ele>
        <time>2023-02-21T10:57:16Z</time>
      </trkpt>
      <trkpt lat="44.15019" lon="6.24231">
        <ele>633.8</ele>
        <time>2023-02-21T10:57:26Z</time>
      </trkpt>
      <trkpt lat="44.15048" lon="6.24226">
        <ele>633.8</ele>
        <time>2023-02-21T10:57:36Z</time>
      </trkpt>
      <trkpt lat="44.1506" lon="6.2422">
        <ele>633.8</ele>
        <time>2023-02-21T10:57:40Z</time>
      </trkpt>
      <trkpt lat="44.15077" lon="6.24206">
        <ele>634.4</ele>
        <time>2023-02-21T10:57:46Z</time>
      </trkpt>
      <trkpt lat="44.15094" lon="6.24184">
        <ele>635</ele>
        <time>2023-02-21T10:57:53Z</time>
      </trkpt>
      <trkpt lat="44.15103" lon="6.24176">
        <ele>635.2</ele>
        <time>2023-02-21T10:57:56Z</time>
      </trkpt>
      <trkpt lat="44.1512" lon="6.24151">
        <ele>636.2</ele>
        <time>2023-02-21T10:58:03Z</time>
      </trkpt>
      <trkpt lat="44.15125" lon="6.2414">
        <ele>636.8</ele>
        <time>2023-02-21T10:58:06Z</time>
      </trkpt>
      <trkpt lat="44.15135" lon="6.24118">
        <ele>637.2</ele>
        <time>2023-02-21T10:58:12Z</time>
      </trkpt>
      <trkpt lat="44.15142" lon="6.24102">
        <ele>637.2</ele>
        <time>2023-02-21T10:58:16Z</time>
      </trkpt>
      <trkpt lat="44.15168" lon="6.24072">
        <ele>638.2</ele>
        <time>2023-02-21T10:58:25Z</time>
      </trkpt>
      <trkpt lat="44.15171" lon="6.24068">
        <ele>638.2</ele>
        <time>2023-02-21T10:58:26Z</time>
      </trkpt>
      <trkpt lat="44.15196" lon="6.2404">
        <ele>639</ele>
        <time>2023-02-21T10:58:35Z</time>
      </trkpt>
      <trkpt lat="44.152" lon="6.24037">
        <ele>639</ele>
        <time>2023-02-21T10:58:36Z</time>
      </trkpt>
      <trkpt lat="44.15222" lon="6.24024">
        <ele>639</ele>
        <time>2023-02-21T10:58:42Z</time>
      </trkpt>
      <trkpt lat="44.15231" lon="6.2402">
        <ele>639.2</ele>
        <time>2023-02-21T10:58:44Z</time>
      </trkpt>
      <trkpt lat="44.15234" lon="6.24018">
        <ele>639.2</ele>
        <time>2023-02-21T10:58:45Z</time>
      </trkpt>
      <trkpt lat="44.15238" lon="6.24016">
        <ele>639.4</ele>
        <time>2023-02-21T10:58:46Z</time>
      </trkpt>
      <trkpt lat="44.1525" lon="6.2401">
        <ele>639.6</ele>
        <time>2023-02-21T10:58:49Z</time>
      </trkpt>
      <trkpt lat="44.15277" lon="6.23997">
        <ele>639.8</ele>
        <time>2023-02-21T10:58:56Z</time>
      </trkpt>
      <trkpt lat="44.15295" lon="6.23983">
        <ele>640.2</ele>
        <time>2023-02-21T10:59:01Z</time>
      </trkpt>
      <trkpt lat="44.15311" lon="6.23971">
        <ele>640.4</ele>
        <time>2023-02-21T10:59:06Z</time>
      </trkpt>
      <trkpt lat="44.15326" lon="6.23956">
        <ele>640.6</ele>
        <time>2023-02-21T10:59:11Z</time>
      </trkpt>
      <trkpt lat="44.15341" lon="6.23942">
        <ele>641</ele>
        <time>2023-02-21T10:59:16Z</time>
      </trkpt>
      <trkpt lat="44.15355" lon="6.23928">
        <ele>641.2</ele>
        <time>2023-02-21T10:59:21Z</time>
      </trkpt>
      <trkpt lat="44.15358" lon="6.23926">
        <ele>641.4</ele>
        <time>2023-02-21T10:59:22Z</time>
      </trkpt>
      <trkpt lat="44.15363" lon="6.2392">
        <ele>641.6</ele>
        <time>2023-02-21T10:59:24Z</time>
      </trkpt>
      <trkpt lat="44.15366" lon="6.23917">
        <ele>641.6</ele>
        <time>2023-02-21T10:59:25Z</time>
      </trkpt>
      <trkpt lat="44.15369" lon="6.23914">
        <ele>641.8</ele>
        <time>2023-02-21T10:59:26Z</time>
      </trkpt>
      <trkpt lat="44.15371" lon="6.23911">
        <ele>641.8</ele>
        <time>2023-02-21T10:59:27Z</time>
      </trkpt>
      <trkpt lat="44.15373" lon="6.23908">
        <ele>641.8</ele>
        <time>2023-02-21T10:59:28Z</time>
      </trkpt>
      <trkpt lat="44.15375" lon="6.23905">
        <ele>641.8</ele>
        <time>2023-02-21T10:59:29Z</time>
      </trkpt>
      <trkpt lat="44.1538" lon="6.23898">
        <ele>642</ele>
        <time>2023-02-21T10:59:31Z</time>
      </trkpt>
      <trkpt lat="44.15382" lon="6.23895">
        <ele>642</ele>
        <time>2023-02-21T10:59:32Z</time>
      </trkpt>
      <trkpt lat="44.15384" lon="6.23892">
        <ele>642</ele>
        <time>2023-02-21T10:59:33Z</time>
      </trkpt>
      <trkpt lat="44.15393" lon="6.23884">
        <ele>642</ele>
        <time>2023-02-21T10:59:36Z</time>
      </trkpt>
      <trkpt lat="44.15406" lon="6.23873">
        <ele>642</ele>
        <time>2023-02-21T10:59:40Z</time>
      </trkpt>
      <trkpt lat="44.15409" lon="6.23871">
        <ele>642.2</ele>
        <time>2023-02-21T10:59:41Z</time>
      </trkpt>
      <trkpt lat="44.15416" lon="6.23864">
        <ele>642.4</ele>
        <time>2023-02-21T10:59:43Z</time>
      </trkpt>
      <trkpt lat="44.15419" lon="6.23861">
        <ele>642.4</ele>
        <time>2023-02-21T10:59:44Z</time>
      </trkpt>
      <trkpt lat="44.15422" lon="6.23858">
        <ele>642.6</ele>
        <time>2023-02-21T10:59:45Z</time>
      </trkpt>
      <trkpt lat="44.15425" lon="6.23855">
        <ele>642.6</ele>
        <time>2023-02-21T10:59:46Z</time>
      </trkpt>
      <trkpt lat="44.15432" lon="6.23849">
        <ele>642.8</ele>
        <time>2023-02-21T10:59:48Z</time>
      </trkpt>
      <trkpt lat="44.15439" lon="6.23843">
        <ele>643</ele>
        <time>2023-02-21T10:59:50Z</time>
      </trkpt>
      <trkpt lat="44.1545" lon="6.23834">
        <ele>643.2</ele>
        <time>2023-02-21T10:59:53Z</time>
      </trkpt>
      <trkpt lat="44.15457" lon="6.23828">
        <ele>643.4</ele>
        <time>2023-02-21T10:59:55Z</time>
      </trkpt>
      <trkpt lat="44.1546" lon="6.23825">
        <ele>643.4</ele>
        <time>2023-02-21T10:59:56Z</time>
      </trkpt>
      <trkpt lat="44.15487" lon="6.23799">
        <ele>643.8</ele>
        <time>2023-02-21T11:00:04Z</time>
      </trkpt>
      <trkpt lat="44.15494" lon="6.23792">
        <ele>643.6</ele>
        <time>2023-02-21T11:00:06Z</time>
      </trkpt>
      <trkpt lat="44.15528" lon="6.23758">
        <ele>644</ele>
        <time>2023-02-21T11:00:16Z</time>
      </trkpt>
      <trkpt lat="44.15547" lon="6.23741">
        <ele>644.4</ele>
        <time>2023-02-21T11:00:21Z</time>
      </trkpt>
      <trkpt lat="44.15565" lon="6.23726">
        <ele>644.6</ele>
        <time>2023-02-21T11:00:26Z</time>
      </trkpt>
      <trkpt lat="44.15569" lon="6.23724">
        <ele>644.6</ele>
        <time>2023-02-21T11:00:27Z</time>
      </trkpt>
      <trkpt lat="44.15577" lon="6.23719">
        <ele>644.6</ele>
        <time>2023-02-21T11:00:29Z</time>
      </trkpt>
      <trkpt lat="44.15602" lon="6.23696">
        <ele>644.8</ele>
        <time>2023-02-21T11:00:36Z</time>
      </trkpt>
      <trkpt lat="44.15643" lon="6.23664">
        <ele>645.4</ele>
        <time>2023-02-21T11:00:46Z</time>
      </trkpt>
      <trkpt lat="44.15651" lon="6.23658">
        <ele>645.6</ele>
        <time>2023-02-21T11:00:48Z</time>
      </trkpt>
      <trkpt lat="44.15668" lon="6.23646">
        <ele>646</ele>
        <time>2023-02-21T11:00:52Z</time>
      </trkpt>
      <trkpt lat="44.15685" lon="6.23637">
        <ele>646.4</ele>
        <time>2023-02-21T11:00:56Z</time>
      </trkpt>
      <trkpt lat="44.15689" lon="6.23635">
        <ele>646.6</ele>
        <time>2023-02-21T11:00:57Z</time>
      </trkpt>
      <trkpt lat="44.15697" lon="6.23631">
        <ele>647</ele>
        <time>2023-02-21T11:00:59Z</time>
      </trkpt>
      <trkpt lat="44.15713" lon="6.23626">
        <ele>647.6</ele>
        <time>2023-02-21T11:01:03Z</time>
      </trkpt>
      <trkpt lat="44.15724" lon="6.23622">
        <ele>648</ele>
        <time>2023-02-21T11:01:06Z</time>
      </trkpt>
      <trkpt lat="44.15748" lon="6.23615">
        <ele>648.6</ele>
        <time>2023-02-21T11:01:13Z</time>
      </trkpt>
      <trkpt lat="44.15756" lon="6.23612">
        <ele>649.2</ele>
        <time>2023-02-21T11:01:16Z</time>
      </trkpt>
      <trkpt lat="44.15765" lon="6.23608">
        <ele>649.8</ele>
        <time>2023-02-21T11:01:19Z</time>
      </trkpt>
      <trkpt lat="44.15787" lon="6.23601">
        <ele>650.8</ele>
        <time>2023-02-21T11:01:26Z</time>
      </trkpt>
      <trkpt lat="44.158" lon="6.23597">
        <ele>651.4</ele>
        <time>2023-02-21T11:01:30Z</time>
      </trkpt>
      <trkpt lat="44.15813" lon="6.23592">
        <ele>652</ele>
        <time>2023-02-21T11:01:34Z</time>
      </trkpt>
      <trkpt lat="44.1582" lon="6.23589">
        <ele>652.2</ele>
        <time>2023-02-21T11:01:36Z</time>
      </trkpt>
      <trkpt lat="44.15832" lon="6.23588">
        <ele>653</ele>
        <time>2023-02-21T11:01:39Z</time>
      </trkpt>
      <trkpt lat="44.15855" lon="6.23572">
        <ele>653.6</ele>
        <time>2023-02-21T11:01:46Z</time>
      </trkpt>
      <trkpt lat="44.15859" lon="6.23568">
        <ele>653.4</ele>
        <time>2023-02-21T11:01:47Z</time>
      </trkpt>
      <trkpt lat="44.15864" lon="6.23558">
        <ele>653</ele>
        <time>2023-02-21T11:01:49Z</time>
      </trkpt>
      <trkpt lat="44.15868" lon="6.23547">
        <ele>652.8</ele>
        <time>2023-02-21T11:01:51Z</time>
      </trkpt>
      <trkpt lat="44.15879" lon="6.23521">
        <ele>652.8</ele>
        <time>2023-02-21T11:01:56Z</time>
      </trkpt>
      <trkpt lat="44.15884" lon="6.23511">
        <ele>653</ele>
        <time>2023-02-21T11:01:58Z</time>
      </trkpt>
      <trkpt lat="44.15903" lon="6.23485">
        <ele>654.2</ele>
        <time>2023-02-21T11:02:05Z</time>
      </trkpt>
      <trkpt lat="44.15906" lon="6.23483">
        <ele>654.4</ele>
        <time>2023-02-21T11:02:06Z</time>
      </trkpt>
      <trkpt lat="44.15915" lon="6.23476">
        <ele>655</ele>
        <time>2023-02-21T11:02:09Z</time>
      </trkpt>
      <trkpt lat="44.1592" lon="6.23473">
        <ele>655.2</ele>
        <time>2023-02-21T11:02:11Z</time>
      </trkpt>
      <trkpt lat="44.1593" lon="6.23467">
        <ele>655.6</ele>
        <time>2023-02-21T11:02:14Z</time>
      </trkpt>
      <trkpt lat="44.15936" lon="6.23462">
        <ele>655.8</ele>
        <time>2023-02-21T11:02:16Z</time>
      </trkpt>
      <trkpt lat="44.1594" lon="6.23459">
        <ele>655.8</ele>
        <time>2023-02-21T11:02:17Z</time>
      </trkpt>
      <trkpt lat="44.15946" lon="6.23453">
        <ele>656.2</ele>
        <time>2023-02-21T11:02:19Z</time>
      </trkpt>
      <trkpt lat="44.15949" lon="6.2345">
        <ele>656.2</ele>
        <time>2023-02-21T11:02:20Z</time>
      </trkpt>
      <trkpt lat="44.15951" lon="6.23446">
        <ele>656.4</ele>
        <time>2023-02-21T11:02:21Z</time>
      </trkpt>
      <trkpt lat="44.15963" lon="6.23427">
        <ele>656.8</ele>
        <time>2023-02-21T11:02:26Z</time>
      </trkpt>
      <trkpt lat="44.15975" lon="6.23407">
        <ele>657.4</ele>
        <time>2023-02-21T11:02:31Z</time>
      </trkpt>
      <trkpt lat="44.15985" lon="6.23384">
        <ele>657.6</ele>
        <time>2023-02-21T11:02:36Z</time>
      </trkpt>
      <trkpt lat="44.15986" lon="6.23328">
        <ele>657</ele>
        <time>2023-02-21T11:02:46Z</time>
      </trkpt>
      <trkpt lat="44.15987" lon="6.2331">
        <ele>656.8</ele>
        <time>2023-02-21T11:02:49Z</time>
      </trkpt>
      <trkpt lat="44.15991" lon="6.23294">
        <ele>656.8</ele>
        <time>2023-02-21T11:02:52Z</time>
      </trkpt>
      <trkpt lat="44.15995" lon="6.23271">
        <ele>657</ele>
        <time>2023-02-21T11:02:56Z</time>
      </trkpt>
      <trkpt lat="44.16004" lon="6.23219">
        <ele>658.4</ele>
        <time>2023-02-21T11:03:05Z</time>
      </trkpt>
      <trkpt lat="44.16006" lon="6.23212">
        <ele>658.6</ele>
        <time>2023-02-21T11:03:06Z</time>
      </trkpt>
      <trkpt lat="44.16014" lon="6.23164">
        <ele>659.4</ele>
        <time>2023-02-21T11:03:14Z</time>
      </trkpt>
      <trkpt lat="44.16015" lon="6.23152">
        <ele>659.4</ele>
        <time>2023-02-21T11:03:16Z</time>
      </trkpt>
      <trkpt lat="44.16026" lon="6.23092">
        <ele>659.6</ele>
        <time>2023-02-21T11:03:26Z</time>
      </trkpt>
      <trkpt lat="44.16039" lon="6.23055">
        <ele>660.6</ele>
        <time>2023-02-21T11:03:34Z</time>
      </trkpt>
      <trkpt lat="44.16043" lon="6.23046">
        <ele>660.6</ele>
        <time>2023-02-21T11:03:36Z</time>
      </trkpt>
      <trkpt lat="44.16052" lon="6.23017">
        <ele>661.6</ele>
        <time>2023-02-21T11:03:43Z</time>
      </trkpt>
      <trkpt lat="44.16054" lon="6.23013">
        <ele>661.8</ele>
        <time>2023-02-21T11:03:44Z</time>
      </trkpt>
      <trkpt lat="44.16056" lon="6.23005">
        <ele>662.2</ele>
        <time>2023-02-21T11:03:46Z</time>
      </trkpt>
      <trkpt lat="44.16064" lon="6.22986">
        <ele>662.8</ele>
        <time>2023-02-21T11:03:51Z</time>
      </trkpt>
      <trkpt lat="44.1607" lon="6.22963">
        <ele>663.2</ele>
        <time>2023-02-21T11:03:56Z</time>
      </trkpt>
      <trkpt lat="44.16078" lon="6.22934">
        <ele>664</ele>
        <time>2023-02-21T11:04:03Z</time>
      </trkpt>
      <trkpt lat="44.1608" lon="6.22921">
        <ele>664.4</ele>
        <time>2023-02-21T11:04:06Z</time>
      </trkpt>
      <trkpt lat="44.16082" lon="6.22905">
        <ele>665</ele>
        <time>2023-02-21T11:04:10Z</time>
      </trkpt>
      <trkpt lat="44.16089" lon="6.22879">
        <ele>665.6</ele>
        <time>2023-02-21T11:04:16Z</time>
      </trkpt>
      <trkpt lat="44.16093" lon="6.22862">
        <ele>666.2</ele>
        <time>2023-02-21T11:04:20Z</time>
      </trkpt>
      <trkpt lat="44.16102" lon="6.22836">
        <ele>667</ele>
        <time>2023-02-21T11:04:26Z</time>
      </trkpt>
      <trkpt lat="44.16104" lon="6.22832">
        <ele>667.2</ele>
        <time>2023-02-21T11:04:27Z</time>
      </trkpt>
      <trkpt lat="44.16109" lon="6.22815">
        <ele>667.8</ele>
        <time>2023-02-21T11:04:31Z</time>
      </trkpt>
      <trkpt lat="44.16114" lon="6.22804">
        <ele>668.4</ele>
        <time>2023-02-21T11:04:34Z</time>
      </trkpt>
      <trkpt lat="44.16117" lon="6.22796">
        <ele>668.6</ele>
        <time>2023-02-21T11:04:36Z</time>
      </trkpt>
      <trkpt lat="44.16131" lon="6.22756">
        <ele>669.4</ele>
        <time>2023-02-21T11:04:45Z</time>
      </trkpt>
      <trkpt lat="44.16132" lon="6.22752">
        <ele>669.4</ele>
        <time>2023-02-21T11:04:46Z</time>
      </trkpt>
      <trkpt lat="44.16145" lon="6.22714">
        <ele>670.4</ele>
        <time>2023-02-21T11:04:56Z</time>
      </trkpt>
      <trkpt lat="44.16157" lon="6.22686">
        <ele>671.4</ele>
        <time>2023-02-21T11:05:04Z</time>
      </trkpt>
      <trkpt lat="44.1616" lon="6.2268">
        <ele>671.8</ele>
        <time>2023-02-21T11:05:06Z</time>
      </trkpt>
      <trkpt lat="44.1617" lon="6.22647">
        <ele>672.6</ele>
        <time>2023-02-21T11:05:15Z</time>
      </trkpt>
      <trkpt lat="44.16171" lon="6.22644">
        <ele>672.6</ele>
        <time>2023-02-21T11:05:16Z</time>
      </trkpt>
      <trkpt lat="44.16187" lon="6.22607">
        <ele>673.4</ele>
        <time>2023-02-21T11:05:26Z</time>
      </trkpt>
      <trkpt lat="44.16189" lon="6.22604">
        <ele>673.6</ele>
        <time>2023-02-21T11:05:27Z</time>
      </trkpt>
      <trkpt lat="44.16204" lon="6.22581">
        <ele>674.4</ele>
        <time>2023-02-21T11:05:34Z</time>
      </trkpt>
      <trkpt lat="44.16207" lon="6.22574">
        <ele>674.6</ele>
        <time>2023-02-21T11:05:36Z</time>
      </trkpt>
      <trkpt lat="44.16222" lon="6.22549">
        <ele>674.8</ele>
        <time>2023-02-21T11:05:44Z</time>
      </trkpt>
      <trkpt lat="44.16227" lon="6.22544">
        <ele>675</ele>
        <time>2023-02-21T11:05:46Z</time>
      </trkpt>
      <trkpt lat="44.16242" lon="6.22531">
        <ele>675.6</ele>
        <time>2023-02-21T11:05:52Z</time>
      </trkpt>
      <trkpt lat="44.16252" lon="6.22522">
        <ele>675.8</ele>
        <time>2023-02-21T11:05:56Z</time>
      </trkpt>
      <trkpt lat="44.16271" lon="6.22491">
        <ele>676.4</ele>
        <time>2023-02-21T11:06:06Z</time>
      </trkpt>
      <trkpt lat="44.16282" lon="6.22467">
        <ele>676.6</ele>
        <time>2023-02-21T11:06:12Z</time>
      </trkpt>
      <trkpt lat="44.16286" lon="6.22456">
        <ele>678</ele>
        <time>2023-02-21T11:06:15Z</time>
      </trkpt>
      <trkpt lat="44.16288" lon="6.22453">
        <ele>678.4</ele>
        <time>2023-02-21T11:06:16Z</time>
      </trkpt>
      <trkpt lat="44.16302" lon="6.22425">
        <ele>678.8</ele>
        <time>2023-02-21T11:06:24Z</time>
      </trkpt>
      <trkpt lat="44.16307" lon="6.22417">
        <ele>679</ele>
        <time>2023-02-21T11:06:26Z</time>
      </trkpt>
      <trkpt lat="44.16335" lon="6.22378">
        <ele>678.8</ele>
        <time>2023-02-21T11:06:36Z</time>
      </trkpt>
      <trkpt lat="44.16341" lon="6.22369">
        <ele>678.8</ele>
        <time>2023-02-21T11:06:38Z</time>
      </trkpt>
      <trkpt lat="44.16363" lon="6.22339">
        <ele>679</ele>
        <time>2023-02-21T11:06:46Z</time>
      </trkpt>
      <trkpt lat="44.16377" lon="6.22319">
        <ele>679</ele>
        <time>2023-02-21T11:06:51Z</time>
      </trkpt>
      <trkpt lat="44.1638" lon="6.22316">
        <ele>679</ele>
        <time>2023-02-21T11:06:52Z</time>
      </trkpt>
      <trkpt lat="44.16387" lon="6.22311">
        <ele>679.2</ele>
        <time>2023-02-21T11:06:54Z</time>
      </trkpt>
      <trkpt lat="44.16393" lon="6.22308">
        <ele>679.4</ele>
        <time>2023-02-21T11:06:56Z</time>
      </trkpt>
      <trkpt lat="44.16402" lon="6.223">
        <ele>680.2</ele>
        <time>2023-02-21T11:07:00Z</time>
      </trkpt>
      <trkpt lat="44.1642" lon="6.22283">
        <ele>681</ele>
        <time>2023-02-21T11:07:06Z</time>
      </trkpt>
      <trkpt lat="44.1644" lon="6.22255">
        <ele>680.8</ele>
        <time>2023-02-21T11:07:14Z</time>
      </trkpt>
      <trkpt lat="44.16445" lon="6.22247">
        <ele>680.6</ele>
        <time>2023-02-21T11:07:16Z</time>
      </trkpt>
      <trkpt lat="44.1645" lon="6.22239">
        <ele>680.6</ele>
        <time>2023-02-21T11:07:18Z</time>
      </trkpt>
      <trkpt lat="44.16473" lon="6.2221">
        <ele>680.4</ele>
        <time>2023-02-21T11:07:26Z</time>
      </trkpt>
      <trkpt lat="44.1648" lon="6.22199">
        <ele>680</ele>
        <time>2023-02-21T11:07:29Z</time>
      </trkpt>
      <trkpt lat="44.16482" lon="6.22195">
        <ele>679.6</ele>
        <time>2023-02-21T11:07:30Z</time>
      </trkpt>
      <trkpt lat="44.16502" lon="6.22169">
        <ele>679.6</ele>
        <time>2023-02-21T11:07:36Z</time>
      </trkpt>
      <trkpt lat="44.16506" lon="6.22165">
        <ele>679.6</ele>
        <time>2023-02-21T11:07:37Z</time>
      </trkpt>
      <trkpt lat="44.16536" lon="6.2213">
        <ele>681.2</ele>
        <time>2023-02-21T11:07:46Z</time>
      </trkpt>
      <trkpt lat="44.16555" lon="6.22101">
        <ele>681.8</ele>
        <time>2023-02-21T11:07:53Z</time>
      </trkpt>
      <trkpt lat="44.16562" lon="6.22088">
        <ele>682.2</ele>
        <time>2023-02-21T11:07:56Z</time>
      </trkpt>
      <trkpt lat="44.1657" lon="6.22074">
        <ele>682.2</ele>
        <time>2023-02-21T11:07:59Z</time>
      </trkpt>
      <trkpt lat="44.16587" lon="6.22048">
        <ele>682</ele>
        <time>2023-02-21T11:08:05Z</time>
      </trkpt>
      <trkpt lat="44.16591" lon="6.22045">
        <ele>682</ele>
        <time>2023-02-21T11:08:06Z</time>
      </trkpt>
      <trkpt lat="44.16599" lon="6.22039">
        <ele>682</ele>
        <time>2023-02-21T11:08:08Z</time>
      </trkpt>
      <trkpt lat="44.16634" lon="6.22036">
        <ele>682.2</ele>
        <time>2023-02-21T11:08:16Z</time>
      </trkpt>
      <trkpt lat="44.16653" lon="6.2203">
        <ele>682.2</ele>
        <time>2023-02-21T11:08:20Z</time>
      </trkpt>
      <trkpt lat="44.16676" lon="6.22015">
        <ele>681.8</ele>
        <time>2023-02-21T11:08:26Z</time>
      </trkpt>
      <trkpt lat="44.16697" lon="6.21999">
        <ele>682.4</ele>
        <time>2023-02-21T11:08:32Z</time>
      </trkpt>
      <trkpt lat="44.16711" lon="6.21988">
        <ele>682.6</ele>
        <time>2023-02-21T11:08:36Z</time>
      </trkpt>
      <trkpt lat="44.16748" lon="6.2196">
        <ele>682.6</ele>
        <time>2023-02-21T11:08:46Z</time>
      </trkpt>
      <trkpt lat="44.16777" lon="6.21938">
        <ele>683.4</ele>
        <time>2023-02-21T11:08:54Z</time>
      </trkpt>
      <trkpt lat="44.16784" lon="6.21933">
        <ele>683.6</ele>
        <time>2023-02-21T11:08:56Z</time>
      </trkpt>
      <trkpt lat="44.16804" lon="6.2192">
        <ele>684.6</ele>
        <time>2023-02-21T11:09:02Z</time>
      </trkpt>
      <trkpt lat="44.16817" lon="6.2191">
        <ele>685</ele>
        <time>2023-02-21T11:09:06Z</time>
      </trkpt>
      <trkpt lat="44.16826" lon="6.21903">
        <ele>685.4</ele>
        <time>2023-02-21T11:09:09Z</time>
      </trkpt>
      <trkpt lat="44.1683" lon="6.21898">
        <ele>685.6</ele>
        <time>2023-02-21T11:09:11Z</time>
      </trkpt>
      <trkpt lat="44.16831" lon="6.21894">
        <ele>685.6</ele>
        <time>2023-02-21T11:09:12Z</time>
      </trkpt>
      <trkpt lat="44.1683" lon="6.21879">
        <ele>686.2</ele>
        <time>2023-02-21T11:09:16Z</time>
      </trkpt>
      <trkpt lat="44.16829" lon="6.21875">
        <ele>686.2</ele>
        <time>2023-02-21T11:09:17Z</time>
      </trkpt>
    </trkseg>
  </trk>
</gpx>